[[{"header":{"parameterUnit":"m.s-1","parameterCategory":1,"la1":31.0,"la2":29.5877,"lo1":-88.7671,"lo2":-86.6584,"dy":0.0162,"dx":0.0185,"nx":115,"ny":88,"refTime":"2024-02-21T06:00:00:Z","depth":0,"parameterNumber":2,"parameterNumberName":"U-component_of_WINDS"},"data":[0.0,0.0,0.0,0.0,0.0,0.0,0.0,0.0,0.0,0.0,0.0,0.0,0.0,0.0,0.0,0.0,0.0,0.0,0.0,0.0,0.0,0.0,0.0,0.0,0.0,0.0,0.0,0.0,0.0,0.0,0.0,0.0,0.0,0.0,0.0,0.0,0.0,0.0,0.0,0.0,0.0,0.0,0.0,0.0,0.0,0.0,0.0,0.0,0.0,0.0,0.0,0.0,0.0,0.0,0.0,0.0,0.0,0.0,0.0,0.0,0.0,0.0,0.0,0.0,0.0,0.0,0.0,0.0,0.0,0.0,0.0,0.0,0.0,0.0,0.0,0.0,0.0,0.0,0.0,0.0,0.0,0.0,0.0,0.0,0.0,0.0,0.0,0.0,0.0,0.0,0.0,0.0,0.0,0.0,0.0,0.0,0.0,0.0,0.0,0.0,0.0,0.0,0.0,0.0,0.0,0.0,0.0,0.0,0.0,0.0,0.0,0.0,0.0,0.0,0.0,0.0,0.0,0.0,0.0,0.0,0.0,0.0,0.0,0.0,0.0,0.0,0.0,0.0,0.0,0.0,0.0,0.0,0.0,0.0,0.0,0.0,0.0,0.0,0.0,0.0,0.0,0.0,0.0,0.0,0.0,0.0,0.0,0.0,0.0,0.0,0.0,0.0,0.0,0.0,0.0,0.0,0.0,0.0,0.0,0.0,0.0,0.0,0.0,0.0,0.0,0.0,0.0,0.0,0.0,0.0,0.0,0.0,0.0,0.0,0.0,0.0,0.0,0.0,0.0,0.0,0.0,0.0,0.0,0.0,0.0,0.0,0.0,0.0,0.0,0.0,0.0,0.0,0.0,0.0,0.0,0.0,0.0,0.0,0.0,0.0,0.0,0.0,0.0,0.0,0.0,0.0,0.0,0.0,0.0,0.0,0.0,0.0,0.0,0.0,0.0,0.0,0.0,0.0,0.0,0.0,0.0,0.0,0.0,0.0,0.0,0.0,0.0,0.0,0.0,0.0,0.0,0.0,0.0,0.0,0.0,0.0,0.0,0.0,0.0,0.0,0.0,0.0,0.0,0.0,0.0,0.0,0.0,0.0,0.0,0.0,0.0,0.0,0.0,0.0,0.0,0.0,0.0,0.0,0.0,0.0,0.0,0.0,0.0,0.0,0.0,0.0,0.0,0.0,0.0,0.0,0.0,0.0,0.0,0.0,0.0,0.0,0.0,0.0,0.0,0.0,0.0,0.0,0.0,0.0,0.0,0.0,0.0,0.0,0.0,0.0,0.0,0.0,0.0,0.0,0.0,0.0,0.0,0.0,0.0,0.0,0.0,0.0,0.0,0.0,0.0,0.0,0.0,0.0,0.0,0.0,0.0,0.0,0.0,0.0,0.0,0.0,0.0,0.0,0.0,0.0,0.0,0.0,0.0,0.0,0.0,0.0,0.0,0.0,0.0,0.0,0.0,0.0,0.0,0.0,0.0,0.0,0.0,0.0,0.0,0.0,0.0,0.0,0.0,0.0,0.0,0.0,0.0,0.0,0.0,0.0,0.0,0.0,0.0,0.0,0.0,0.0,0.0,0.0,0.0,0.0,0.0,0.0,0.0,0.0,0.0,0.0,0.0,0.0,0.0,0.0,0.0,0.0,0.0,0.0,0.0,0.0,0.0,0.0,0.0,0.0,0.0,0.0,0.0,0.0,0.0,0.0,0.0,0.0,0.0,0.0,0.0,0.0,0.0,0.0,0.0,0.0,0.0,0.0,0.0,0.0,0.0,0.0,0.0,0.0,0.0,0.0,0.0,0.0,0.0,0.0,0.0,0.0,0.0,0.0,0.0,0.0,0.0,0.0,0.0,0.0,0.0,0.0,0.0,0.0,0.0,0.0,0.0,0.0,0.0,0.0,0.0,0.0,0.0,0.0,0.0,0.0,0.0,0.0,0.0,0.0,0.0,0.0,0.0,0.0,0.0,0.0,0.0,0.0,0.0,0.0,0.0,0.0,0.0,0.0,0.0,0.0,0.0,0.0,0.0,0.0,0.0,0.0,0.0,0.0,0.0,0.0,0.0,0.0,0.0,0.0,0.0,0.0,0.0,0.0,0.0,0.0,0.0,0.0,0.0,0.0,0.0,0.0,0.0,0.0,0.0,0.0,0.0,0.0,0.0,0.0,0.0,0.0,0.0,0.0,0.0,0.0,0.0,0.0,0.0,0.0,0.0,0.0,0.0,0.0,0.0,0.0,0.0,0.0,0.0,0.0,0.0,0.0,0.0,0.0,0.0,0.0,0.0,0.0,0.0,0.0,0.0,0.0,0.0,0.0,0.0,0.0,0.0,0.0,0.0,0.0,0.0,0.0,0.0,0.0,0.0,0.0,0.0,0.0,0.0,0.0,0.0,0.0,0.0,0.0,0.0,0.0,0.0,0.0,0.0,0.0,0.0,0.0,0.0,0.0,0.0,0.0,0.0,0.0,0.0,0.0,0.0,0.0,0.0,0.0,0.0,0.0,0.0,0.0,0.0,0.0,0.0,0.0,0.0,0.0,0.0,0.0,0.0,0.0,0.0,0.0,0.0,0.0,0.0,0.0,0.0,0.0,0.0,0.0,0.0,0.0,0.0,0.0,0.0,0.0,0.0,0.0,0.0,0.0,0.0,0.0,0.0,0.0,0.0,0.0,0.0,0.0,0.0,0.0,0.0,0.0,0.0,0.0,0.0,0.0,0.0,0.0,0.0,0.0,0.0,0.0,0.0,0.0,0.0,0.0,0.0,0.0,0.0,0.0,0.0,0.0,0.0,0.0,0.0,0.0,0.0,0.0,0.0,0.0,0.0,0.0,0.0,0.0,0.0,0.0,0.0,0.0,0.0,0.0,0.0,0.0,0.0,0.0,0.0,0.0,0.0,0.0,0.0,0.0,0.0,0.0,0.0,0.0,0.0,0.0,0.0,0.0,0.0,0.0,0.0,0.0,0.0,0.0,0.0,0.0,0.0,0.0,0.0,0.0,0.0,0.0,0.0,0.0,0.0,0.0,0.0,0.0,0.0,0.0,0.0,0.0,0.0,0.0,0.0,0.0,0.0,0.0,0.0,0.0,0.0,0.0,0.0,0.0,0.0,0.0,0.0,0.0,0.0,0.0,0.0,0.0,0.0,0.0,0.0,0.0,0.0,0.0,0.0,0.0,0.0,0.0,0.0,0.0,0.0,0.0,0.0,0.0,0.0,0.0,0.0,0.0,0.0,0.0,0.0,0.0,0.0,0.0,0.0,0.0,0.0,0.0,0.0,0.0,0.0,0.0,0.0,0.0,0.0,0.0,0.0,0.0,0.0,0.0,0.0,0.0,0.0,0.0,0.0,0.0,0.0,0.0,0.0,0.0,0.0,0.0,0.0,0.0,0.0,0.0,0.0,0.0,0.0,0.0,0.0,0.0,0.0,0.0,0.0,0.0,0.0,0.0,0.0,0.0,0.0,0.0,0.0,0.0,0.0,0.0,0.0,0.0,0.0,0.0,0.0,0.0,0.0,0.0,0.0,0.0,0.0,0.0,0.0,0.0,0.0,0.0,0.0,0.0,0.0,0.0,0.0,0.0,0.0,0.0,0.0,0.0,0.0,0.0,0.0,0.0,0.0,0.0,0.0,0.0,0.0,0.0,0.0,0.0,0.0,0.0,0.0,0.0,0.0,0.0,0.0,0.0,0.0,0.0,0.0,0.0,0.0,0.0,0.0,0.0,0.0,0.0,0.0,0.0,0.0,0.0,0.0,0.0,0.0,0.0,0.0,0.0,0.0,0.0,0.0,0.0,0.0,0.0,0.0,0.0,0.0,0.0,0.0,0.0,0.0,0.0,0.0,0.0,0.0,0.0,0.0,0.0,0.0,0.0,0.0,0.0,0.0,0.0,0.0,0.0,0.0,0.0,0.0,0.0,0.0,0.0,0.0,0.0,0.0,0.0,0.0,0.0,0.0,0.0,0.0,0.0,0.0,0.0,0.0,0.0,0.0,0.0,0.0,0.0,0.0,0.0,0.0,0.0,0.0,0.0,0.0,0.0,0.0,0.0,0.0,0.0,0.0,0.0,0.0,0.0,0.0,0.0,0.0,0.0,0.0,0.0,0.0,0.0,0.0,0.0,0.0,0.0,0.0,0.0,0.0,0.0,0.0,0.0,0.0,0.0,0.0,0.0,0.0,0.0,0.0,0.0,0.0,0.0,0.0,0.0,0.0,0.0,0.0,0.0,0.0,0.0,0.0,0.0,0.0,0.0,0.0,0.0,0.0,0.0,-2.0111,0.0,0.0,0.0,0.0,0.0,0.0,0.0,0.0,0.0,0.0,0.0,0.0,0.0,0.0,0.0,0.0,0.0,0.0,0.0,0.0,0.0,0.0,0.0,0.0,0.0,0.0,0.0,0.0,0.0,0.0,0.0,0.0,0.0,0.0,0.0,0.0,0.0,0.0,0.0,0.0,0.0,0.0,0.0,0.0,0.0,0.0,0.0,0.0,0.0,0.0,0.0,0.0,0.0,0.0,0.0,0.0,0.0,0.0,0.0,0.0,0.0,0.0,0.0,0.0,0.0,0.0,0.0,0.0,0.0,0.0,0.0,0.0,0.0,0.0,0.0,0.0,0.0,0.0,0.0,0.0,0.0,0.0,0.0,0.0,0.0,0.0,0.0,0.0,0.0,0.0,0.0,0.0,0.0,0.0,0.0,0.0,0.0,0.0,0.0,0.0,0.0,0.0,0.0,0.0,0.0,0.0,0.0,0.0,0.0,0.0,-2.0386,-2.036,-2.0323,-2.0288,-2.0288,0.0,0.0,0.0,0.0,0.0,0.0,0.0,0.0,0.0,0.0,0.0,0.0,0.0,0.0,0.0,0.0,0.0,0.0,0.0,0.0,0.0,0.0,0.0,0.0,0.0,0.0,0.0,0.0,0.0,0.0,0.0,0.0,0.0,0.0,0.0,0.0,0.0,0.0,0.0,0.0,0.0,0.0,0.0,0.0,0.0,0.0,0.0,0.0,0.0,0.0,0.0,0.0,0.0,0.0,0.0,0.0,0.0,0.0,0.0,0.0,0.0,0.0,0.0,0.0,0.0,0.0,0.0,0.0,0.0,0.0,0.0,0.0,0.0,0.0,0.0,0.0,0.0,0.0,0.0,0.0,0.0,0.0,0.0,0.0,0.0,0.0,0.0,0.0,0.0,0.0,0.0,0.0,0.0,0.0,0.0,0.0,0.0,0.0,0.0,0.0,0.0,0.0,0.0,0.0,0.0,0.0,0.0,0.0,0.0,0.0,0.0,0.0,-2.0616,-2.0558,-2.0577,0.0,0.0,0.0,0.0,0.0,0.0,0.0,0.0,0.0,0.0,0.0,0.0,0.0,0.0,0.0,0.0,0.0,0.0,0.0,0.0,0.0,0.0,0.0,0.0,0.0,0.0,0.0,0.0,0.0,0.0,0.0,0.0,0.0,0.0,0.0,0.0,0.0,0.0,0.0,0.0,0.0,0.0,0.0,0.0,0.0,0.0,0.0,0.0,0.0,0.0,0.0,0.0,0.0,0.0,0.0,0.0,0.0,0.0,0.0,0.0,0.0,0.0,0.0,0.0,0.0,0.0,0.0,0.0,0.0,0.0,0.0,0.0,0.0,0.0,0.0,0.0,0.0,0.0,0.0,0.0,0.0,0.0,0.0,0.0,0.0,0.0,0.0,0.0,0.0,0.0,0.0,0.0,0.0,0.0,0.0,0.0,0.0,0.0,0.0,0.0,0.0,0.0,0.0,0.0,0.0,0.0,0.0,0.0,0.0,0.0,-2.0749,-2.1452,-2.1424,0.0,-2.1346,0.0,0.0,0.0,0.0,0.0,0.0,0.0,0.0,0.0,0.0,0.0,0.0,0.0,0.0,0.0,0.0,0.0,0.0,0.0,0.0,0.0,0.0,0.0,0.0,0.0,0.0,0.0,0.0,0.0,0.0,0.0,0.0,0.0,0.0,0.0,0.0,0.0,0.0,0.0,0.0,0.0,0.0,0.0,0.0,0.0,0.0,0.0,0.0,0.0,0.0,0.0,0.0,0.0,0.0,0.0,0.0,0.0,0.0,0.0,0.0,0.0,0.0,0.0,0.0,0.0,0.0,0.0,0.0,0.0,0.0,0.0,0.0,0.0,0.0,0.0,0.0,0.0,0.0,0.0,0.0,0.0,0.0,0.0,0.0,0.0,0.0,0.0,0.0,0.0,0.0,0.0,0.0,0.0,0.0,0.0,0.0,0.0,0.0,0.0,0.0,0.0,0.0,0.0,0.0,0.0,0.0,0.0,0.0,0.0,0.0,-2.053,-2.0808,-2.073,-2.0694,0.0,0.0,0.0,0.0,0.0,0.0,0.0,0.0,0.0,0.0,0.0,0.0,0.0,0.0,0.0,0.0,0.0,0.0,0.0,0.0,0.0,0.0,0.0,0.0,0.0,0.0,0.0,0.0,0.0,0.0,0.0,0.0,0.0,0.0,0.0,0.0,0.0,0.0,0.0,0.0,0.0,0.0,0.0,0.0,0.0,0.0,0.0,0.0,0.0,0.0,0.0,0.0,0.0,0.0,0.0,0.0,0.0,0.0,0.0,0.0,0.0,0.0,0.0,0.0,0.0,0.0,0.0,0.0,0.0,0.0,0.0,0.0,0.0,0.0,0.0,0.0,0.0,0.0,0.0,0.0,0.0,0.0,0.0,0.0,0.0,0.0,0.0,0.0,0.0,0.0,0.0,0.0,0.0,0.0,0.0,0.0,0.0,0.0,0.0,0.0,0.0,0.0,0.0,0.0,0.0,0.0,0.0,0.0,0.0,0.0,-2.0501,-2.0469,-2.06,-2.0274,-2.028,-2.0611,0.0,0.0,0.0,0.0,0.0,0.0,0.0,0.0,0.0,0.0,0.0,0.0,0.0,0.0,0.0,0.0,0.0,0.0,0.0,0.0,0.0,0.0,0.0,0.0,0.0,0.0,0.0,0.0,0.0,0.0,0.0,0.0,0.0,0.0,0.0,0.0,0.0,0.0,0.0,0.0,0.0,0.0,0.0,0.0,0.0,0.0,0.0,0.0,0.0,0.0,0.0,0.0,0.0,0.0,0.0,0.0,0.0,0.0,0.0,0.0,0.0,0.0,0.0,0.0,0.0,0.0,0.0,0.0,0.0,0.0,0.0,0.0,0.0,0.0,0.0,0.0,0.0,0.0,0.0,0.0,0.0,0.0,0.0,0.0,0.0,0.0,0.0,0.0,0.0,0.0,0.0,0.0,0.0,0.0,0.0,0.0,0.0,0.0,0.0,0.0,0.0,0.0,0.0,0.0,0.0,0.0,0.0,0.0,-2.1554,-2.0756,-2.0664,-2.137,-2.0591,-2.051,0.0,0.0,0.0,0.0,0.0,0.0,0.0,0.0,0.0,0.0,0.0,0.0,0.0,0.0,0.0,0.0,0.0,0.0,0.0,0.0,0.0,0.0,0.0,0.0,0.0,0.0,0.0,0.0,0.0,0.0,0.0,0.0,0.0,0.0,0.0,0.0,0.0,0.0,0.0,0.0,0.0,0.0,0.0,0.0,0.0,0.0,0.0,0.0,0.0,0.0,0.0,0.0,0.0,0.0,0.0,0.0,0.0,0.0,0.0,0.0,0.0,0.0,0.0,0.0,0.0,0.0,0.0,0.0,0.0,0.0,0.0,0.0,0.0,0.0,0.0,0.0,0.0,0.0,0.0,0.0,0.0,0.0,0.0,0.0,0.0,0.0,0.0,0.0,0.0,0.0,0.0,0.0,0.0,0.0,0.0,0.0,0.0,0.0,0.0,0.0,0.0,0.0,0.0,0.0,0.0,0.0,0.0,0.0,0.0,-2.0837,-2.0488,-2.0431,-2.0692,-2.0278,-2.0255,0.0,0.0,0.0,0.0,0.0,0.0,0.0,0.0,0.0,0.0,0.0,0.0,0.0,0.0,0.0,0.0,0.0,0.0,0.0,0.0,0.0,0.0,0.0,0.0,0.0,0.0,0.0,0.0,0.0,0.0,0.0,0.0,0.0,0.0,0.0,0.0,0.0,0.0,0.0,0.0,0.0,0.0,0.0,0.0,0.0,0.0,0.0,0.0,0.0,0.0,0.0,0.0,0.0,0.0,0.0,0.0,0.0,0.0,0.0,0.0,0.0,0.0,0.0,0.0,0.0,0.0,0.0,0.0,0.0,0.0,0.0,0.0,0.0,0.0,0.0,0.0,0.0,0.0,0.0,0.0,0.0,0.0,0.0,0.0,0.0,0.0,0.0,0.0,0.0,0.0,0.0,0.0,0.0,0.0,0.0,0.0,0.0,0.0,0.0,0.0,0.0,0.0,0.0,0.0,0.0,0.0,0.0,0.0,0.0,-2.0389,0.0,-2.0273,-2.0257,-2.0134,-2.0121,0.0,0.0,0.0,0.0,0.0,0.0,0.0,0.0,0.0,0.0,0.0,0.0,0.0,0.0,0.0,0.0,0.0,0.0,0.0,0.0,0.0,0.0,0.0,0.0,0.0,0.0,0.0,0.0,0.0,0.0,0.0,0.0,0.0,0.0,0.0,0.0,0.0,0.0,0.0,0.0,0.0,0.0,0.0,0.0,0.0,0.0,0.0,0.0,0.0,0.0,0.0,0.0,0.0,0.0,0.0,0.0,0.0,0.0,0.0,0.0,0.0,0.0,0.0,0.0,0.0,0.0,0.0,0.0,0.0,0.0,0.0,0.0,0.0,0.0,0.0,0.0,0.0,0.0,0.0,0.0,0.0,0.0,0.0,0.0,0.0,0.0,0.0,0.0,0.0,0.0,0.0,0.0,0.0,0.0,0.0,0.0,0.0,0.0,0.0,0.0,0.0,0.0,0.0,0.0,0.0,0.0,0.0,0.0,-2.0347,-2.0296,-2.0233,-2.0205,-2.023,-2.022,-2.0208,0.0,0.0,0.0,0.0,0.0,0.0,0.0,0.0,0.0,0.0,0.0,0.0,0.0,0.0,0.0,0.0,0.0,0.0,0.0,0.0,0.0,0.0,0.0,0.0,0.0,0.0,0.0,0.0,0.0,0.0,0.0,0.0,0.0,0.0,0.0,0.0,0.0,0.0,0.0,0.0,0.0,0.0,0.0,0.0,0.0,0.0,0.0,0.0,0.0,0.0,0.0,0.0,0.0,0.0,0.0,0.0,0.0,0.0,0.0,0.0,0.0,0.0,0.0,0.0,0.0,0.0,0.0,0.0,0.0,0.0,0.0,0.0,0.0,0.0,0.0,0.0,0.0,0.0,0.0,0.0,0.0,0.0,0.0,0.0,0.0,0.0,0.0,0.0,0.0,0.0,0.0,0.0,0.0,0.0,0.0,0.0,0.0,0.0,0.0,0.0,0.0,0.0,0.0,0.0,0.0,0.0,0.0,0.0,0.0,-2.0292,-2.0241,-2.0429,-2.091,-2.0408,-2.0384,0.0,0.0,0.0,0.0,0.0,0.0,0.0,0.0,0.0,0.0,0.0,0.0,0.0,0.0,0.0,0.0,0.0,0.0,0.0,0.0,0.0,0.0,0.0,0.0,0.0,0.0,0.0,0.0,0.0,0.0,0.0,0.0,0.0,0.0,0.0,0.0,0.0,0.0,0.0,0.0,0.0,0.0,0.0,0.0,0.0,0.0,0.0,0.0,0.0,0.0,0.0,0.0,0.0,0.0,0.0,0.0,0.0,0.0,0.0,0.0,0.0,0.0,0.0,0.0,0.0,0.0,0.0,0.0,0.0,0.0,0.0,0.0,0.0,0.0,0.0,0.0,0.0,0.0,0.0,0.0,0.0,0.0,0.0,0.0,0.0,0.0,0.0,0.0,0.0,0.0,0.0,0.0,0.0,0.0,0.0,0.0,0.0,0.0,0.0,0.0,0.0,0.0,0.0,0.0,0.0,0.0,0.0,0.0,0.0,-2.2546,-2.1841,-2.1708,-2.2223,-2.1675,-2.12,-2.0817,0.0,0.0,0.0,0.0,0.0,0.0,0.0,0.0,0.0,0.0,0.0,0.0,0.0,0.0,0.0,0.0,0.0,0.0,0.0,0.0,0.0,0.0,0.0,0.0,0.0,0.0,0.0,0.0,0.0,0.0,0.0,0.0,0.0,0.0,0.0,0.0,0.0,0.0,0.0,0.0,0.0,0.0,0.0,0.0,0.0,0.0,0.0,0.0,0.0,0.0,0.0,0.0,0.0,0.0,0.0,0.0,0.0,0.0,0.0,0.0,0.0,0.0,0.0,0.0,0.0,0.0,0.0,0.0,0.0,0.0,0.0,0.0,0.0,0.0,0.0,0.0,0.0,0.0,0.0,0.0,0.0,0.0,0.0,0.0,0.0,0.0,0.0,0.0,0.0,0.0,0.0,0.0,0.0,0.0,0.0,0.0,0.0,0.0,0.0,0.0,0.0,0.0,0.0,0.0,0.0,0.0,0.0,0.0,-2.6588,-2.511,-2.435,-2.4252,-2.3867,-2.2595,0.0,0.0,0.0,0.0,0.0,0.0,0.0,0.0,0.0,0.0,0.0,0.0,0.0,0.0,0.0,0.0,0.0,0.0,0.0,0.0,0.0,0.0,0.0,0.0,0.0,0.0,0.0,0.0,0.0,0.0,0.0,0.0,0.0,0.0,0.0,0.0,0.0,0.0,0.0,0.0,0.0,0.0,0.0,0.0,0.0,0.0,0.0,0.0,0.0,0.0,0.0,0.0,0.0,0.0,0.0,0.0,0.0,0.0,0.0,0.0,0.0,0.0,0.0,0.0,0.0,0.0,0.0,0.0,0.0,0.0,0.0,0.0,0.0,0.0,0.0,0.0,0.0,0.0,0.0,0.0,0.0,0.0,0.0,0.0,0.0,0.0,0.0,0.0,0.0,0.0,0.0,0.0,0.0,0.0,0.0,0.0,0.0,0.0,0.0,0.0,0.0,0.0,0.0,0.0,0.0,0.0,0.0,0.0,0.0,-2.9033,-3.1522,-3.1625,-2.913,-2.6734,-2.5151,0.0,0.0,0.0,0.0,0.0,0.0,0.0,0.0,0.0,0.0,0.0,0.0,0.0,0.0,0.0,0.0,0.0,0.0,0.0,0.0,0.0,0.0,0.0,0.0,0.0,0.0,0.0,0.0,0.0,0.0,0.0,0.0,0.0,0.0,0.0,0.0,0.0,0.0,0.0,0.0,0.0,0.0,0.0,0.0,0.0,0.0,0.0,0.0,0.0,0.0,0.0,0.0,0.0,0.0,0.0,0.0,0.0,0.0,0.0,0.0,0.0,0.0,0.0,0.0,0.0,0.0,0.0,0.0,0.0,0.0,0.0,0.0,0.0,0.0,0.0,0.0,0.0,0.0,0.0,0.0,0.0,0.0,0.0,0.0,0.0,0.0,0.0,0.0,0.0,0.0,0.0,0.0,0.0,0.0,0.0,0.0,0.0,0.0,0.0,0.0,0.0,0.0,0.0,0.0,0.0,0.0,0.0,0.0,-2.964,-3.1597,-3.6359,-3.7797,-3.5544,-3.1045,-2.7577,0.0,0.0,0.0,0.0,0.0,0.0,0.0,0.0,0.0,0.0,0.0,0.0,0.0,0.0,0.0,0.0,0.0,0.0,0.0,0.0,0.0,0.0,0.0,0.0,0.0,0.0,0.0,0.0,0.0,0.0,0.0,0.0,0.0,0.0,0.0,0.0,0.0,0.0,0.0,0.0,0.0,0.0,0.0,0.0,0.0,0.0,0.0,0.0,0.0,0.0,0.0,0.0,0.0,0.0,0.0,0.0,0.0,0.0,0.0,0.0,0.0,0.0,0.0,0.0,0.0,0.0,0.0,0.0,0.0,0.0,0.0,0.0,0.0,0.0,0.0,0.0,0.0,0.0,0.0,0.0,0.0,0.0,0.0,0.0,0.0,0.0,0.0,0.0,0.0,0.0,0.0,0.0,0.0,0.0,0.0,0.0,0.0,0.0,0.0,0.0,0.0,0.0,0.0,0.0,0.0,0.0,0.0,0.0,-3.2484,-3.4096,-3.9824,-4.2481,-4.164,-3.5516,-2.9998,0.0,0.0,0.0,0.0,0.0,0.0,0.0,0.0,0.0,0.0,0.0,0.0,0.0,0.0,0.0,0.0,0.0,0.0,0.0,0.0,0.0,0.0,0.0,0.0,0.0,0.0,0.0,0.0,0.0,0.0,0.0,0.0,0.0,0.0,0.0,0.0,0.0,0.0,0.0,0.0,0.0,0.0,0.0,0.0,0.0,0.0,0.0,0.0,0.0,0.0,0.0,0.0,0.0,0.0,0.0,0.0,0.0,0.0,0.0,0.0,0.0,0.0,0.0,0.0,0.0,0.0,0.0,0.0,0.0,0.0,0.0,0.0,0.0,0.0,0.0,0.0,0.0,0.0,0.0,0.0,0.0,0.0,0.0,0.0,0.0,0.0,0.0,0.0,0.0,0.0,0.0,0.0,0.0,0.0,0.0,0.0,0.0,0.0,0.0,0.0,0.0,0.0,0.0,0.0,0.0,0.0,0.0,0.0,-3.3632,-3.587,-4.1007,-4.3119,-4.1795,-3.6212,-3.2229,0.0,0.0,0.0,0.0,0.0,0.0,0.0,0.0,0.0,0.0,0.0,0.0,0.0,0.0,0.0,0.0,0.0,0.0,0.0,0.0,0.0,0.0,0.0,0.0,0.0,0.0,0.0,0.0,0.0,0.0,0.0,0.0,0.0,0.0,0.0,0.0,0.0,0.0,0.0,0.0,0.0,0.0,0.0,0.0,0.0,0.0,0.0,0.0,-2.2006,0.0,0.0,0.0,0.0,0.0,0.0,0.0,0.0,0.0,0.0,0.0,0.0,0.0,0.0,0.0,0.0,0.0,0.0,0.0,0.0,0.0,0.0,0.0,0.0,0.0,0.0,0.0,0.0,0.0,0.0,0.0,0.0,0.0,0.0,0.0,0.0,0.0,0.0,0.0,0.0,0.0,0.0,0.0,0.0,0.0,0.0,0.0,0.0,0.0,0.0,0.0,0.0,0.0,0.0,0.0,0.0,0.0,0.0,0.0,-3.4592,-3.7073,-4.16,-4.3312,-4.1777,-3.7493,-3.3825,0.0,0.0,0.0,0.0,0.0,0.0,0.0,0.0,0.0,0.0,0.0,0.0,0.0,0.0,0.0,0.0,0.0,0.0,0.0,0.0,0.0,0.0,0.0,0.0,0.0,0.0,0.0,0.0,0.0,0.0,0.0,0.0,0.0,0.0,0.0,0.0,0.0,0.0,0.0,0.0,0.0,0.0,0.0,0.0,0.0,0.0,0.0,0.0,0.0,0.0,0.0,0.0,0.0,0.0,0.0,0.0,0.0,0.0,0.0,0.0,0.0,0.0,0.0,0.0,0.0,0.0,0.0,0.0,0.0,0.0,0.0,0.0,0.0,0.0,0.0,0.0,0.0,0.0,0.0,0.0,0.0,0.0,0.0,0.0,0.0,0.0,0.0,0.0,0.0,0.0,0.0,0.0,0.0,0.0,0.0,0.0,0.0,0.0,0.0,0.0,0.0,0.0,0.0,0.0,0.0,0.0,0.0,-3.2374,-3.5304,-3.8191,-4.1743,-4.3011,-4.173,-3.852,-3.4822,-3.0621,0.0,0.0,0.0,0.0,0.0,0.0,0.0,0.0,0.0,0.0,0.0,0.0,0.0,0.0,0.0,0.0,0.0,0.0,0.0,0.0,0.0,0.0,0.0,0.0,0.0,0.0,0.0,0.0,0.0,0.0,0.0,0.0,0.0,0.0,0.0,0.0,0.0,0.0,-1.9653,-2.0398,0.0,0.0,0.0,0.0,0.0,0.0,0.0,0.0,-2.2814,0.0,0.0,0.0,0.0,0.0,0.0,0.0,0.0,0.0,0.0,0.0,0.0,0.0,0.0,0.0,0.0,0.0,0.0,0.0,0.0,0.0,0.0,0.0,0.0,0.0,0.0,0.0,0.0,0.0,0.0,0.0,0.0,0.0,0.0,0.0,0.0,0.0,0.0,0.0,0.0,0.0,0.0,0.0,0.0,0.0,0.0,0.0,0.0,0.0,0.0,0.0,0.0,0.0,0.0,0.0,0.0,-3.1123,-3.2387,-3.5274,-3.9842,-4.1237,-4.1586,-4.0835,-3.7713,-3.4519,-3.1335,0.0,0.0,0.0,0.0,0.0,0.0,0.0,0.0,0.0,0.0,0.0,0.0,0.0,0.0,0.0,0.0,0.0,0.0,0.0,0.0,0.0,0.0,0.0,0.0,0.0,0.0,0.0,0.0,0.0,0.0,0.0,0.0,0.0,0.0,0.0,0.0,0.0,0.0,0.0,-2.2547,-2.3117,0.0,0.0,0.0,0.0,0.0,0.0,0.0,0.0,-2.4053,0.0,0.0,0.0,0.0,0.0,0.0,0.0,0.0,0.0,0.0,0.0,0.0,0.0,0.0,0.0,0.0,0.0,0.0,0.0,0.0,0.0,0.0,0.0,0.0,0.0,0.0,0.0,0.0,0.0,0.0,0.0,0.0,0.0,0.0,0.0,0.0,0.0,0.0,0.0,0.0,0.0,0.0,0.0,0.0,0.0,0.0,0.0,0.0,0.0,0.0,0.0,0.0,0.0,0.0,0.0,-3.2037,-3.3501,-3.6189,-4.0301,-4.1551,-4.1336,-3.9687,-3.6798,-3.3944,0.0,0.0,0.0,0.0,0.0,0.0,0.0,0.0,0.0,0.0,0.0,0.0,0.0,0.0,0.0,0.0,0.0,0.0,0.0,0.0,0.0,0.0,0.0,0.0,0.0,0.0,0.0,0.0,0.0,0.0,0.0,0.0,0.0,0.0,0.0,0.0,0.0,0.0,0.0,0.0,-2.4789,-2.557,-2.6835,0.0,0.0,0.0,0.0,0.0,0.0,-2.602,-2.5206,0.0,0.0,0.0,0.0,0.0,0.0,0.0,0.0,0.0,0.0,0.0,0.0,0.0,0.0,0.0,0.0,0.0,0.0,0.0,0.0,0.0,0.0,0.0,0.0,0.0,0.0,0.0,0.0,0.0,0.0,0.0,0.0,0.0,0.0,0.0,0.0,0.0,0.0,0.0,0.0,0.0,0.0,0.0,0.0,0.0,0.0,0.0,0.0,0.0,0.0,0.0,0.0,0.0,0.0,0.0,-3.2445,-3.4283,-3.6829,-4.0115,-4.1368,-4.093,-3.8724,-3.5623,-3.2972,0.0,0.0,0.0,0.0,0.0,0.0,0.0,0.0,0.0,0.0,0.0,0.0,0.0,0.0,0.0,0.0,0.0,0.0,0.0,0.0,0.0,0.0,0.0,0.0,0.0,0.0,0.0,0.0,0.0,0.0,0.0,0.0,0.0,0.0,0.0,0.0,0.0,0.0,0.0,0.0,0.0,-2.8198,-2.9335,-2.9191,0.0,0.0,0.0,0.0,-2.8193,-2.8064,0.0,0.0,0.0,0.0,0.0,0.0,0.0,0.0,0.0,0.0,0.0,0.0,0.0,0.0,0.0,0.0,0.0,0.0,0.0,0.0,0.0,0.0,0.0,0.0,0.0,0.0,0.0,0.0,0.0,0.0,0.0,0.0,0.0,0.0,0.0,0.0,0.0,0.0,0.0,0.0,0.0,0.0,0.0,0.0,0.0,0.0,0.0,0.0,0.0,0.0,0.0,0.0,0.0,0.0,0.0,0.0,-3.1654,-3.3466,-3.5998,-3.9231,-3.9423,-3.9176,-3.8648,-3.4027,-3.1271,0.0,0.0,0.0,0.0,0.0,0.0,0.0,0.0,0.0,0.0,0.0,0.0,0.0,0.0,0.0,0.0,0.0,0.0,0.0,0.0,0.0,0.0,0.0,0.0,0.0,0.0,0.0,0.0,0.0,0.0,0.0,0.0,0.0,0.0,0.0,0.0,0.0,0.0,0.0,0.0,0.0,-3.0156,-2.9589,-3.0682,-3.0968,0.0,0.0,-3.1776,-3.2525,-3.4501,0.0,0.0,0.0,0.0,0.0,0.0,0.0,0.0,0.0,0.0,0.0,0.0,0.0,0.0,0.0,0.0,0.0,0.0,0.0,0.0,0.0,0.0,0.0,0.0,0.0,0.0,0.0,0.0,0.0,0.0,0.0,0.0,0.0,0.0,0.0,0.0,0.0,0.0,0.0,0.0,0.0,0.0,0.0,0.0,0.0,0.0,0.0,0.0,0.0,0.0,0.0,0.0,0.0,0.0,0.0,-2.8676,-3.1527,-3.3333,-3.5628,-3.843,-3.8391,-3.7795,-3.6727,-3.271,-3.0232,0.0,0.0,0.0,0.0,0.0,0.0,0.0,0.0,0.0,0.0,0.0,0.0,0.0,0.0,0.0,0.0,0.0,0.0,0.0,0.0,0.0,0.0,0.0,0.0,0.0,0.0,0.0,0.0,0.0,0.0,0.0,0.0,0.0,0.0,0.0,0.0,0.0,0.0,0.0,0.0,0.0,0.0,-3.1172,-3.2867,0.0,0.0,0.0,-3.4452,-3.4802,0.0,0.0,0.0,0.0,0.0,0.0,0.0,0.0,0.0,0.0,0.0,0.0,0.0,0.0,0.0,0.0,0.0,0.0,0.0,0.0,0.0,0.0,0.0,0.0,0.0,0.0,0.0,0.0,0.0,0.0,0.0,0.0,0.0,0.0,0.0,0.0,0.0,0.0,0.0,0.0,0.0,0.0,0.0,0.0,0.0,0.0,0.0,0.0,0.0,0.0,0.0,0.0,0.0,0.0,0.0,0.0,0.0,-3.1584,-3.3307,-3.5218,-3.7276,-3.7233,-3.6454,-3.4925,-3.1794,0.0,0.0,0.0,0.0,0.0,0.0,0.0,0.0,0.0,0.0,0.0,0.0,0.0,0.0,0.0,0.0,0.0,0.0,0.0,0.0,0.0,0.0,0.0,0.0,0.0,0.0,0.0,-2.016,0.0,0.0,0.0,0.0,0.0,0.0,0.0,0.0,0.0,0.0,0.0,0.0,0.0,0.0,-3.4472,-3.2949,-3.5134,-3.6537,0.0,0.0,-3.7285,-3.7282,-3.8564,-3.8213,0.0,0.0,0.0,0.0,0.0,0.0,0.0,0.0,0.0,0.0,0.0,0.0,0.0,0.0,0.0,0.0,0.0,0.0,0.0,0.0,0.0,0.0,0.0,0.0,0.0,0.0,0.0,0.0,0.0,0.0,0.0,0.0,0.0,0.0,0.0,0.0,0.0,0.0,0.0,0.0,0.0,0.0,0.0,0.0,0.0,0.0,0.0,0.0,0.0,0.0,0.0,0.0,0.0,0.0,-2.9071,-3.1552,-3.3307,-3.4661,-3.5615,-3.5537,-3.5066,-3.4165,-3.1538,-3.0057,0.0,0.0,0.0,0.0,0.0,0.0,0.0,0.0,0.0,0.0,0.0,0.0,0.0,0.0,0.0,0.0,0.0,0.0,0.0,0.0,0.0,0.0,0.0,0.0,0.0,0.0,0.0,0.0,0.0,0.0,0.0,0.0,0.0,0.0,0.0,0.0,0.0,0.0,0.0,0.0,0.0,-3.5516,-3.4648,-3.7359,-3.972,0.0,0.0,-4.0767,-4.0757,-4.5487,-4.5897,-3.6106,0.0,0.0,0.0,0.0,0.0,0.0,0.0,0.0,0.0,0.0,0.0,0.0,0.0,0.0,0.0,0.0,0.0,0.0,0.0,0.0,0.0,0.0,0.0,0.0,0.0,0.0,0.0,0.0,0.0,0.0,0.0,0.0,0.0,0.0,0.0,0.0,0.0,0.0,0.0,0.0,0.0,0.0,0.0,0.0,0.0,0.0,0.0,0.0,0.0,0.0,0.0,0.0,0.0,-2.9589,-3.1564,-3.2782,-3.3814,-3.4641,-3.4653,-3.3965,-3.26,-3.1038,-2.9707,0.0,0.0,0.0,0.0,0.0,0.0,0.0,0.0,0.0,0.0,0.0,0.0,0.0,0.0,0.0,0.0,0.0,0.0,0.0,0.0,0.0,0.0,0.0,0.0,0.0,0.0,0.0,0.0,-2.0853,-2.128,-2.1595,0.0,0.0,0.0,0.0,0.0,0.0,0.0,0.0,0.0,0.0,-3.7825,-3.855,-4.1112,0.0,0.0,-4.3608,-4.3742,-4.2137,-4.3394,-4.2496,-3.6393,-3.4319,0.0,0.0,0.0,0.0,0.0,0.0,0.0,0.0,0.0,0.0,0.0,0.0,0.0,0.0,0.0,0.0,0.0,0.0,0.0,0.0,0.0,0.0,0.0,0.0,0.0,0.0,0.0,0.0,0.0,0.0,0.0,0.0,0.0,0.0,0.0,0.0,0.0,0.0,0.0,0.0,0.0,0.0,0.0,0.0,0.0,0.0,0.0,0.0,0.0,0.0,0.0,0.0,-3.0061,-3.1961,-3.2346,-3.2949,-3.3801,-3.3583,-3.2756,-3.1284,-3.0638,-2.9704,0.0,0.0,0.0,0.0,0.0,0.0,0.0,0.0,0.0,0.0,0.0,0.0,0.0,0.0,0.0,0.0,0.0,0.0,0.0,0.0,0.0,0.0,0.0,0.0,0.0,0.0,0.0,0.0,-2.1448,-2.2212,-2.2486,0.0,0.0,0.0,0.0,0.0,0.0,0.0,0.0,0.0,0.0,-3.9,-4.0191,-4.2344,-4.3689,-4.3353,-4.3898,-4.3875,-4.2599,-4.2098,-4.0516,-3.6549,0.0,0.0,0.0,0.0,0.0,0.0,0.0,0.0,0.0,0.0,0.0,0.0,0.0,0.0,0.0,0.0,0.0,0.0,0.0,0.0,0.0,0.0,0.0,0.0,0.0,0.0,0.0,0.0,0.0,0.0,-2.6732,0.0,0.0,0.0,0.0,0.0,0.0,0.0,0.0,0.0,0.0,0.0,0.0,0.0,0.0,0.0,0.0,0.0,0.0,0.0,0.0,0.0,0.0,-3.0343,-3.2781,-3.2103,-3.2122,-3.2872,-3.216,-3.1371,-3.0475,-3.0343,-3.0292,-3.0209,0.0,0.0,0.0,0.0,0.0,0.0,0.0,0.0,0.0,0.0,0.0,0.0,0.0,0.0,0.0,0.0,0.0,0.0,0.0,0.0,0.0,0.0,0.0,0.0,0.0,0.0,-2.0748,-2.201,-2.3361,0.0,0.0,0.0,0.0,0.0,0.0,0.0,0.0,0.0,0.0,-3.5822,-3.8546,-3.873,-4.0097,-4.1581,-4.2367,-4.1142,-4.0588,-4.2106,-4.3028,-4.1894,0.0,0.0,0.0,0.0,0.0,0.0,0.0,0.0,0.0,0.0,0.0,0.0,0.0,0.0,0.0,0.0,0.0,0.0,0.0,0.0,0.0,0.0,0.0,0.0,0.0,0.0,0.0,-3.1755,-3.1237,0.0,0.0,0.0,0.0,0.0,0.0,0.0,0.0,0.0,0.0,0.0,-3.2474,-3.2494,0.0,0.0,0.0,0.0,0.0,0.0,0.0,0.0,0.0,0.0,0.0,0.0,-3.0655,-3.1962,-3.1815,-3.1833,-3.2083,-3.1852,-3.1275,-3.0423,-3.0361,-3.033,-3.0292,0.0,0.0,0.0,0.0,0.0,0.0,0.0,0.0,0.0,0.0,0.0,0.0,0.0,0.0,0.0,0.0,0.0,0.0,0.0,0.0,0.0,0.0,0.0,0.0,0.0,-2.3646,0.0,0.0,0.0,0.0,0.0,0.0,0.0,0.0,0.0,0.0,0.0,-3.1735,-3.4297,-3.6913,-3.8984,-4.0097,-4.1718,-4.2926,0.0,0.0,0.0,0.0,0.0,0.0,0.0,0.0,0.0,0.0,0.0,0.0,0.0,0.0,-3.695,-3.3512,-3.3324,-3.3823,-3.4114,0.0,0.0,0.0,0.0,0.0,0.0,0.0,0.0,0.0,0.0,0.0,0.0,0.0,0.0,-3.3891,0.0,-3.368,0.0,0.0,0.0,0.0,0.0,0.0,0.0,0.0,-3.3391,-3.4603,-3.5064,-3.5064,-3.5064,0.0,-3.4487,-3.2897,0.0,0.0,0.0,0.0,0.0,0.0,0.0,0.0,-3.0821,-3.1578,-3.1379,-3.1385,-3.1679,-3.1385,-3.0981,-3.0423,-3.0404,-3.0386,-3.0343,-2.9724,-2.9397,0.0,0.0,0.0,0.0,0.0,0.0,0.0,0.0,0.0,0.0,0.0,0.0,0.0,0.0,0.0,0.0,0.0,0.0,0.0,0.0,0.0,0.0,0.0,-2.5503,0.0,0.0,0.0,0.0,0.0,0.0,0.0,0.0,0.0,-3.1641,-3.2199,-3.3611,-3.6465,-3.8105,-3.9413,-4.0487,0.0,0.0,0.0,0.0,0.0,0.0,0.0,-3.913,-3.713,-3.7566,-3.8337,-3.8908,-3.9691,-4.026,-4.0265,0.0,0.0,-3.6674,-3.623,-3.649,-3.6801,-3.7074,-3.7523,-3.8381,-3.8986,-3.932,0.0,0.0,0.0,0.0,0.0,0.0,0.0,0.0,-3.4969,-3.4629,0.0,-3.5391,0.0,0.0,0.0,0.0,0.0,-3.3468,0.0,0.0,-3.7322,-3.845,-3.6942,-3.6949,-3.6904,-3.6719,-3.5238,-3.3994,-3.3006,-3.2237,0.0,0.0,0.0,0.0,0.0,0.0,-3.0833,-3.1583,-3.0846,-3.0808,-3.1583,-3.0827,-3.0423,-3.0404,-3.0404,-3.0404,-3.0398,-3.0324,-3.0292,-3.0292,-3.0192,0.0,0.0,0.0,0.0,0.0,0.0,0.0,0.0,0.0,0.0,0.0,0.0,0.0,0.0,0.0,0.0,0.0,0.0,0.0,0.0,-2.7558,0.0,0.0,0.0,0.0,0.0,0.0,0.0,0.0,0.0,0.0,-3.363,-3.3555,-3.4726,-3.8064,0.0,0.0,0.0,0.0,-4.0546,-3.8987,-3.8685,-3.8758,-3.8764,-3.9429,-3.9665,-3.8783,0.0,0.0,-4.2452,-4.1816,-4.134,-4.128,-4.2078,-4.2259,-4.139,-4.039,-4.0055,-4.0813,-4.0381,-4.0258,-4.0976,-4.1332,-4.1156,-3.9867,0.0,0.0,0.0,0.0,-3.7501,-3.915,-4.1798,-4.0912,-4.0223,-3.9604,-3.9219,0.0,0.0,0.0,0.0,0.0,0.0,-3.618,-3.6661,-3.9053,-4.0208,-4.0365,-4.0989,-4.0623,-3.9411,-3.8919,-3.7623,-3.5641,-3.4808,-3.3801,-3.262,0.0,0.0,0.0,0.0,-3.0523,-3.0731,-3.0538,-3.0519,-3.075,-3.0519,-3.0404,-3.0404,-3.0404,-3.0404,-3.0404,-3.0386,-3.0349,-3.0311,-3.0842,0.0,0.0,0.0,0.0,0.0,0.0,0.0,0.0,0.0,0.0,0.0,0.0,0.0,0.0,0.0,0.0,0.0,0.0,0.0,-2.9081,-2.9471,-2.9418,0.0,0.0,0.0,0.0,0.0,0.0,0.0,0.0,0.0,-3.6836,-3.6013,-3.5852,0.0,0.0,-3.8933,-3.8878,-4.0156,-4.1138,-4.1268,0.0,0.0,0.0,-4.242,-4.2298,-4.1424,-4.2939,-4.4253,-4.4251,-4.4566,-4.4822,-4.4766,-4.4999,-4.5097,-4.4784,-4.3065,-4.1875,-4.197,-4.2302,-4.2848,-4.3688,-4.4352,-4.4707,-4.5194,-4.3115,-4.0291,-3.9764,-4.0795,-4.0795,-4.2372,-4.4803,-4.3946,-4.3102,-4.2316,-4.2112,-4.0142,-3.6969,-3.6103,0.0,0.0,0.0,-3.8354,-3.9565,-4.0912,-4.1797,-4.2335,-4.2835,-4.2374,-4.1046,-4.0669,-3.9554,-3.7719,-3.6579,-3.5495,-3.4443,0.0,0.0,-3.1671,-3.0837,-3.0402,-3.0404,-3.0404,-3.0404,-3.0404,-3.0404,-3.0404,-3.0404,-3.0404,-3.0404,-3.0404,-3.0404,-3.0398,-3.0342,-3.1142,-3.136,0.0,0.0,0.0,0.0,0.0,0.0,0.0,0.0,0.0,0.0,0.0,-2.8965,-2.8494,0.0,0.0,0.0,-3.0802,-3.1038,-3.105,-3.1527,0.0,0.0,0.0,0.0,0.0,0.0,0.0,-3.4428,-3.5796,-3.736,-3.8885,-3.9077,-3.9366,-4.0227,-4.0499,-4.0848,-4.1504,0.0,-4.3352,-4.3875,-4.4383,-4.4735,-4.4736,-4.4735,-4.4539,-4.4035,-4.4801,-4.5486,-4.5526,-4.5957,-4.6289,-4.6289,-4.6289,-4.6289,-4.6289,-4.498,-4.3945,-4.3965,-4.4355,-4.4902,-4.543,-4.5957,-4.6289,-4.949,-4.9019,-4.367,-4.2271,-4.3577,-4.3596,-4.4523,-4.5922,-4.5086,-4.4239,-4.3566,-4.4201,-4.2701,-3.9573,-3.8757,0.0,-3.9488,-3.965,-4.0527,-4.2047,-4.2893,-4.3258,-4.3201,-4.3201,-4.2701,-4.1777,-4.0989,-4.015,-3.9246,-3.767,-3.6863,-3.6709,-3.3532,-3.1897,-3.1858,-3.0993,-3.0544,-3.0602,-3.0544,-3.05,-3.0519,-3.0423,-3.0404,-3.0404,-3.0404,-3.0404,-3.0404,-3.0404,-3.0404,-3.0423,-3.1232,-3.1661,-3.1623,0.0,0.0,0.0,0.0,0.0,0.0,0.0,0.0,0.0,0.0,0.0,0.0,0.0,0.0,0.0,-3.3077,0.0,-3.3603,-3.354,0.0,0.0,0.0,-3.364,-3.3706,-3.525,-3.6324,-3.6305,0.0,0.0,-4.0269,0.0,-4.4215,-4.5272,-4.4549,-4.449,-4.6089,-4.6305,-4.652,-4.6435,-4.6629,-4.6687,-4.6531,-4.6301,-4.611,-4.6055,-4.6289,-4.625,-4.623,-4.6269,-4.6289,-4.6289,-4.6289,-4.6289,-4.6289,-4.6191,-4.6289,-4.6172,-4.6211,-4.625,-4.625,-4.6269,-4.6289,-5.0375,-5.0289,-4.8874,-4.8143,-4.7912,-4.7893,-4.8519,-4.9384,-4.8548,-4.7702,-4.6894,-4.6451,-4.4759,-4.2181,-4.1989,-4.1643,-4.1277,-4.2527,-4.3316,-4.3739,-4.4605,-4.4643,-4.4028,-4.4008,-4.3239,-4.1846,-4.1585,-4.0739,-3.9304,-3.8226,-3.7396,-3.6723,-3.4705,-3.3683,-3.3625,-3.2168,-3.1713,-3.237,-3.1715,-3.1376,-3.1391,-3.075,-3.0404,-3.0404,-3.0404,-3.0404,-3.0404,-3.0404,-3.0404,-3.0442,-3.1808,-3.2308,-3.1705,-3.2904,0.0,0.0,0.0,0.0,0.0,0.0,0.0,0.0,0.0,-3.2942,-3.2318,0.0,-3.3686,0.0,-3.4821,-3.5384,-3.5388,-3.4782,0.0,0.0,-3.4974,-3.5658,-3.6304,-3.7907,-3.8982,-3.8961,-4.0056,-4.158,-4.3533,-4.4315,-4.5741,-4.8476,-4.7069,-4.5835,-4.6303,-4.7478,-4.8279,-4.8376,-4.9295,-4.9706,-4.8398,-4.7128,-4.6308,-4.6289,-4.6289,-4.6289,-4.6289,-4.6289,-4.6289,-4.6289,-4.6289,-4.6289,-4.6289,-4.6289,-4.6289,-4.6289,-4.6289,-4.6289,-4.6289,-4.6289,-4.6289,-5.0683,-5.0683,-5.0683,-5.0442,-4.9971,-4.9971,-5.024,-5.0654,-5.0192,-4.949,-4.8625,-4.7817,-4.6462,-4.4836,-4.4797,-4.4316,-4.3566,-4.4451,-4.4874,-4.4921,-4.5364,-4.5133,-4.4278,-4.3932,-4.3085,-4.1808,-4.1412,-4.0739,-3.9823,-3.8988,-3.8145,-3.7313,-3.6029,-3.5168,-3.4782,-3.3186,-3.2734,-3.3572,-3.2727,-3.2248,-3.2218,-3.1775,-3.1531,-3.1543,-3.1563,-3.1555,-3.1548,-3.1567,-3.1548,-3.1605,-3.2819,-3.3326,-3.2902,-3.3742,-3.4044,0.0,0.0,0.0,0.0,0.0,0.0,0.0,0.0,0.0,0.0,0.0,-3.5924,0.0,-3.6491,-3.6579,-3.6578,-3.613,-3.5876,-3.5857,-3.6638,-3.7498,-3.8358,-3.9648,-4.0761,-4.1503,-4.2323,-4.3672,-4.5859,-4.6504,-4.7558,-4.9902,-4.9257,-4.8573,-4.8612,-4.9433,-4.9999,-5.0078,-5.082,-5.082,-4.916,-4.7773,-4.6738,-4.6387,-4.6289,-4.6289,-4.6289,-4.6289,-4.6289,-4.6289,-4.6289,-4.6289,-4.6289,-4.6289,-4.6289,-4.6289,-4.6289,-4.6289,-4.6289,-4.6289,-4.6289,-5.0683,-5.0683,-5.0683,-5.0683,-5.0683,-5.0683,-5.0683,-5.0683,-5.0683,-5.0269,-4.949,-4.8644,-4.7817,-4.7067,-4.7058,-4.6528,-4.5614,-4.5729,-4.571,-4.5594,-4.5594,-4.5133,-4.4278,-4.3585,-4.2816,-4.1942,-4.1085,-4.065,-4.0642,-3.9746,-3.8919,-3.8176,-3.7194,-3.6407,-3.5798,-3.4232,-3.3713,-3.4284,-3.3541,-3.3127,-3.3077,-3.2981,-3.2941,-3.301,-3.301,-3.2983,-3.2987,-3.2993,-3.2993,-3.3012,-3.3822,-3.4343,-3.4434,-3.455,-3.4665,0.0,-3.4781,0.0,0.0,0.0,0.0,0.0,0.0,0.0,0.0,-3.7063,-3.7791,-3.8594,-3.8041,-3.7653,-3.7786,-3.7788,-3.7829,-3.7968,-3.8612,-3.9433,-4.0273,-4.1152,-4.2246,-4.3711,-4.4629,-4.582,-4.748,-4.8437,-4.9219,-5.0215,-5.0683,-5.082,-5.1133,-5.1055,-5.1055,-5.125,-5.1035,-5.0098,-4.8887,-4.793,-4.709,-4.6445,-4.6289,-4.6289,-4.6289,-4.6289,-4.6289,-4.6289,-4.6289,-4.6289,-4.6289,-4.6289,-4.6289,-4.6289,-4.6289,-4.6289,-4.6289,-4.6289,-4.6289,-5.0683,-5.0683,-5.0683,-5.0683,-5.0683,-5.0683,-5.0683,-5.0683,-5.0683,-5.0616,-5.0385,-4.9548,-4.8682,-4.7913,-4.7875,-4.7028,-4.5652,-4.6336,-4.6278,-4.5594,-4.5594,-4.5143,-4.4316,-4.4143,-4.3643,-4.2816,-4.197,-4.1546,-4.1527,-4.0046,-3.9256,-3.9094,-3.7552,-3.7083,-3.757,0.0,0.0,0.0,-3.4075,-3.3993,-3.4017,-3.3342,-3.3006,-3.3079,-3.3018,0.0,-3.2993,-3.2993,-3.2993,-3.3031,-3.3822,0.0,0.0,0.0,0.0,0.0,0.0,0.0,0.0,0.0,0.0,0.0,-4.0223,-3.9641,-3.9096,-3.859,-3.8635,-3.9445,-3.9409,-3.9646,-4.039,-4.0468,-4.0722,-4.1367,-4.1582,-4.2012,-4.2871,-4.373,-4.4453,-4.4707,-4.5527,-4.6699,-4.8281,-4.8828,-4.9473,-5.0742,-5.0723,-5.0449,-5.043,-5.043,-5.043,-5.0351,-4.9394,-4.832,-4.7891,-4.7148,-4.6582,-4.6328,-4.6289,-4.6289,-4.6289,-4.6289,-4.6289,-4.6289,-4.6289,-4.6289,-4.6289,-4.6289,-4.6289,-4.6289,-4.6289,-4.6289,-4.6289,-4.6289,-4.6289,-5.1683,0.0,-5.1279,-5.1048,0.0,-5.0683,-5.0683,-5.0683,-5.0683,-5.0683,-5.0673,-5.0221,-4.9567,-4.8721,-4.8298,-4.7644,-4.6817,-4.6432,-4.6259,-4.622,-4.5778,-4.5383,-4.4913,-4.4509,-4.4085,-4.3662,-4.2854,-4.2231,-4.1769,-4.095,-4.0146,-3.9355,-3.8462,-3.8059,-3.8061,-3.7237,-3.617,-3.4897,-3.4853,-3.4854,-3.4867,-3.4462,-3.425,-3.426,0.0,0.0,0.0,0.0,0.0,0.0,0.0,0.0,0.0,0.0,0.0,-3.8046,-3.8503,-3.9148,-4.0077,-4.0591,-4.147,-4.2804,-4.2992,-4.2474,-4.12,-4.1067,-4.1246,-4.1678,-4.1718,-4.1913,-4.2363,-4.2441,-4.2598,-4.2988,-4.3027,-4.3398,-4.4219,-4.4726,-4.5176,-4.5605,-4.6035,-4.6816,-4.8066,-4.8262,-4.875,-4.9902,-4.9844,-4.9551,-4.957,-4.957,-4.957,-4.9531,-4.8496,-4.7637,-4.7539,-4.6875,-4.6289,-4.6289,-4.6289,-4.6289,-4.6289,-4.6289,-4.6289,-4.6289,-4.6289,-4.6289,-4.6289,-4.6289,-4.6289,-4.6289,-4.6289,-4.6289,-4.6289,-4.6289,-4.6289,-5.2779,-5.2115,-5.1981,-5.1529,-5.0914,-5.077,-5.0683,-5.0683,0.0,0.0,0.0,-5.0616,-5.0154,-4.9163,-4.874,-4.8394,-4.8009,-4.6836,-4.6567,-4.7058,-4.622,-4.5902,-4.5998,-4.5009,-4.4605,-4.472,-4.3778,-4.2854,-4.2038,-4.1865,-4.1046,-3.9631,-3.9381,-3.8854,-3.8065,-3.8007,-3.7329,-3.6016,-3.5926,-3.5951,-3.5963,-3.5963,-3.5964,-3.5946,-3.5958,-3.6293,-3.6987,-3.7025,-3.7372,-3.8047,-3.8086,-3.8182,-3.8317,-3.8465,-3.86,-3.8786,-3.9557,-4.0435,-4.1312,-4.2165,-4.3351,-4.4958,-4.5167,-4.4492,-4.2771,-4.3281,-4.3711,-4.3711,-4.3848,-4.3926,-4.3926,-4.4082,-4.416,-4.416,-4.416,-4.4453,-4.5117,-4.5234,-4.5527,-4.6152,-4.6289,-4.6641,-4.75,-4.7656,-4.793,-4.8691,-4.8828,-4.8574,-4.8496,-4.8555,-4.8594,-4.832,-4.7676,-4.7324,-4.7266,-4.6797,-4.6328,-4.6289,-4.6289,-4.6289,-4.6289,-4.6289,-4.6289,-4.6289,-4.6289,-4.6289,-4.6289,-4.6289,-4.6289,-4.6289,-4.6289,-4.6289,-4.6289,-4.6289,-4.6289,-5.3115,-5.2953,-5.2212,-5.1827,-5.1702,-5.0991,-5.0683,-5.0683,-5.0683,-5.0279,-4.9625,-5.0375,-4.9798,-4.8355,-4.9721,-4.951,-4.8163,-4.8625,-4.8529,0.0,-4.7086,-4.7086,-4.7644,-4.6163,-4.5817,-4.6374,-4.4913,-4.372,-4.2912,-4.2173,-4.1296,-4.0362,-3.9631,-3.888,-3.8065,-3.8007,-3.7892,-3.7656,-3.7658,-3.7667,-3.7745,-3.7726,-3.7726,-3.7733,-3.7707,-3.7797,-3.79,-3.7912,-3.7977,-3.8086,-3.8086,-3.8407,-3.9112,-3.9863,-4.0554,-4.1254,-4.2101,-4.2977,-4.3886,-4.4212,-4.4842,-4.5938,-4.6092,-4.5371,-4.3711,-4.3633,-4.3711,-4.373,-4.4414,-4.4805,-4.4863,-4.543,-4.582,-4.5859,-4.5898,-4.5996,-4.6074,-4.6074,-4.6113,-4.6269,-4.6289,-4.6601,-4.7344,-4.7558,-4.7812,-4.8516,-4.8144,-4.7558,-4.7109,-4.7305,-4.7402,-4.6855,-4.6582,-4.6484,-4.6543,-4.6426,-4.6289,-4.6289,-4.6289,-4.6289,-4.6289,-4.6289,-4.6289,-4.6289,-4.6289,-4.6289,-4.6289,-4.6289,-4.6289,-4.6289,-4.6289,-4.6289,-4.6289,-4.6289,-4.6289,-5.4299,-5.3876,-5.3472,-5.3029,-5.2549,-5.1702,-5.1087,-5.0712,-5.0683,-5.0471,-5.0106,-5.0038,-4.9798,-4.9548,-4.9846,-4.9817,-4.951,-4.8933,-4.874,-4.874,-4.7952,-4.775,-4.7971,-4.6855,-4.6528,-4.6836,-4.6105,-4.5047,-4.3797,-4.3335,-4.2508,-4.1239,-4.0362,-3.9738,-3.9373,-3.9354,-3.9335,-3.9335,-3.8445,-3.8017,-3.8057,-3.8038,-3.8038,-3.8059,-3.8045,-3.8289,-3.8731,-3.8751,-3.9167,-4.0072,-4.0111,-4.0488,-4.132,-4.1732,-4.212,-4.2508,-4.3278,-4.3987,-4.4524,-4.5159,-4.5746,-4.6267,-4.6738,-4.6699,-4.5879,-4.5371,-4.5117,-4.5117,-4.5488,-4.5703,-4.5703,-4.6055,-4.6289,-4.6289,-4.6289,-4.6289,-4.6289,-4.6289,-4.6289,-4.6289,-4.6289,-4.6465,-4.6836,-4.6894,-4.6992,-4.7402,-4.709,-4.6719,-4.6367,-4.6621,-4.6777,-4.6387,-4.6289,-4.6308,-4.6289,-4.6289,-4.6289,-4.6289,-4.6289,-4.6289,-4.6289,-4.6289,-4.6289,-4.6289,-4.6289,-4.6289,-4.6289,-4.6289,-4.6289,-4.6289,-4.6289,-4.6289,-4.6289,-4.6289,-4.6289,-5.5338,-5.4761,-5.4568,-5.3895,-5.2885,-5.2173,-5.1452,-5.0712,-5.05,-5.0404,-5.0327,-4.9683,-4.9683,-5.0029,-4.9606,-4.9875,-5.0442,-4.9298,-4.8952,-4.9298,-4.8702,-4.8298,-4.8019,-4.7269,-4.6904,-4.6874,-4.6692,-4.5893,-4.4701,-4.4412,-4.3566,-4.2162,-4.1412,-4.1093,-4.1093,-4.0893,-4.09,-4.0958,-3.9411,-3.8565,-3.8565,-3.8565,-3.8488,-3.8296,-3.8488,-3.8796,-3.9284,-3.9669,-4.0469,-4.1692,-4.1981,-4.2412,-4.3047,-4.3278,-4.3374,-4.3431,-4.4143,-4.4677,-4.4915,-4.5639,-4.6282,-4.6581,-4.7207,-4.7676,-4.7812,-4.7285,-4.6875,-4.6875,-4.6914,-4.6836,-4.666,-4.6601,-4.6523,-4.6348,-4.6289,-4.6289,-4.6289,-4.6289,-4.6289,-4.6289,-4.6289,-4.6308,-4.6289,-4.6289,-4.6348,-4.6387,-4.6289,-4.6289,-4.6289,-4.6289,-4.6289,-4.6289,-4.6289,-4.6289,-4.6289,-4.6289,-4.6289,-4.6289,-4.6289,-4.6289,-4.6289,-4.6289,-4.6289,-4.6289,-4.6289,-4.6289,-4.6289,-4.6289,-4.6289,-4.6289,-4.6289,-4.6289,-4.6289,-4.6289,-4.6289,-5.5645,-5.5472,-5.4818,-5.353,-5.2135,-5.1962,-5.1471,-5.0654,-4.9875,-4.951,-4.949,-4.9433,-4.8971,-4.849,-4.9067,-4.9837,-5.0635,-5.0539,-5.0038,-4.9433,-4.9317,-4.8856,-4.8067,-4.7298,-4.6904,-4.6808,-4.6163,-4.5748,-4.5383,-4.4662,-4.3855,-4.3066,-4.2893,-4.2797,-4.2739,-4.2066,-4.2066,-4.2797,-4.115,-4.0265,-4.0285,-4.0265,-3.9919,-3.9227,-3.99,-3.9958,-3.9534,-4.0758,-4.1635,-4.1854,-4.2585,-4.3028,-4.3201,-4.3797,-4.4201,-4.4239,-4.5017,-4.5569,-4.5775,-4.5861,-4.6437,-4.7353,-4.7616,-4.8008,-4.8691,-4.873,-4.8672,-4.8652,-4.8652,-4.8223,-4.7598,-4.748,-4.7168,-4.6484,-4.6387,-4.6289,-4.6289,-4.6289,-4.6289,-4.6289,-4.6289,-4.6289,-4.6289,-4.6289,-4.6289,-4.6289,-4.6289,-4.6289,-4.6289,-4.6289,-4.6289,-4.6289,-4.6289,-4.6289,-4.6289,-4.6289,-4.6289,-4.6289,-4.6289,-4.6289,-4.6289,-4.6289,-4.6289,-4.6289,-4.6289,-4.6289,-4.6289,-4.6289,-4.6289,-4.6289,-4.6289,-4.6289,-4.6289,-4.6289,-4.6289,-5.5684,-5.5665,-5.5338,-5.4241,-5.2769,-5.2664,-5.1914,-5.0654,-4.976,-4.9125,-4.8606,-4.8125,-4.799,-4.8115,-4.849,-4.9106,-4.9894,-4.9933,-4.976,-4.9413,-4.9413,-4.8933,-4.8067,-4.7278,-4.6904,-4.6885,-4.6528,-4.6086,-4.5537,-4.4701,-4.3893,-4.3181,-4.3085,-4.3085,-4.3066,-4.2739,-4.2508,-4.2316,-4.1643,-4.1277,-4.1258,-4.1277,-4.1123,-4.0912,-4.1585,-4.1893,-4.1662,-4.2239,-4.2797,-4.3239,-4.3624,-4.4047,-4.4556,-4.4893,-4.5297,-4.5817,-4.6703,-4.726,-4.7442,-4.7469,-4.7719,-4.8291,-4.8827,-4.9316,-4.9648,-5.0098,-5.0371,-5.0273,-4.9492,-4.873,-4.8437,-4.8379,-4.8027,-4.7266,-4.707,-4.6855,-4.6348,-4.6289,-4.6289,-4.6289,-4.6289,-4.6289,-4.6289,-4.6289,-4.6289,-4.6289,-4.6289,-4.6289,-4.6289,-4.6289,-4.6289,-4.6289,-4.6289,-4.6289,-4.6289,-4.6289,-4.6289,-4.6289,-4.6289,-4.6289,-4.6289,-4.6289,-4.6289,-4.6289,-4.6289,-4.6289,-4.6289,-4.6289,-4.6289,-4.6289,-4.6289,-4.6289,-4.6289,-4.6289,-4.6289,-5.5684,-5.5684,-5.5684,-5.4876,-5.3587,-5.3549,-5.2587,-5.1068,-5.0356,-4.949,-4.8432,-4.7836,-4.7778,-4.8058,-4.8096,-4.8567,-4.9336,-4.9413,-4.9125,-4.8798,-4.8913,-4.8452,-4.7451,-4.7115,-4.6778,-4.6567,-4.6509,-4.6317,-4.5893,-4.5355,-4.472,-4.422,-4.4143,-4.4028,-4.3797,-4.3778,-4.3489,-4.2893,-4.2423,-4.2258,-4.245,-4.2489,-4.2269,-4.1923,-4.2643,-4.2989,-4.2777,-4.3181,-4.3682,-4.4278,-4.4739,-4.5297,-4.5913,-4.6163,-4.6586,-4.7191,-4.7848,-4.8326,-4.8491,-4.8548,-4.8739,-4.9148,-4.9823,-5.0312,-5.0586,-5.1074,-5.1367,-5.1289,-5.0273,-4.959,-4.9258,-4.9043,-4.8516,-4.7715,-4.7422,-4.6953,-4.6406,-4.6289,-4.6289,-4.6289,-4.6289,-4.6289,-4.6289,-4.6289,-4.6289,-4.6289,-4.6289,-4.6289,-4.6289,-4.6289,-4.6289,-4.6289,-4.6289,-4.6289,-4.6289,-4.6289,-4.6289,-4.6289,-4.6289,-4.6289,-4.6289,-4.6289,-4.6289,-4.6289,-4.6289,-4.6289,-4.6289,-4.6289,-4.6289,-4.6289,-4.6289,-4.6289,-4.6289,-4.6289,-4.6289,-5.5684,-5.5684,-5.5684,-5.5184,-5.4434,-5.4357,-5.3414,-5.175,-5.1654,-5.0788,-4.9375,-4.9183,-4.8817,-4.8182,-4.8202,-4.8586,-4.9336,-4.9356,-4.8606,-4.7471,-4.7952,-4.7336,-4.5825,-4.649,-4.649,-4.5941,-4.6009,-4.624,-4.6817,-4.6788,-4.6788,-4.6682,-4.6586,-4.6259,-4.5556,-4.5451,-4.5441,-4.4951,-4.3778,-4.3393,-4.4008,-4.4124,-4.3431,-4.2308,-4.2701,-4.2893,-4.2346,-4.347,-4.4316,-4.4355,-4.5893,-4.6797,-4.6894,-4.7567,-4.7971,-4.8067,-4.8134,-4.8298,-4.8559,-4.8657,-4.9035,-4.9866,-5.0195,-5.0527,-5.1152,-5.1328,-5.1387,-5.1387,-5.123,-5.084,-5.0195,-4.9492,-4.8613,-4.7695,-4.6894,-4.6484,-4.6328,-4.6289,-4.6289,-4.6289,-4.6289,-4.6289,-4.6289,-4.6289,-4.6289,-4.6289,-4.6289,-4.6289,-4.6289,-4.6289,-4.6289,-4.6289,-4.6289,-4.6289,-4.6289,-4.6289,-4.6289,-4.6289,-4.6289,-4.6289,-4.6289,-4.6289,-4.6289,-4.6289,-4.6289,-4.6289,-4.6289,-4.6289,-4.6289,-4.6289,-4.6289,-4.6289,-4.6289,-4.6289,-4.6289,-5.5684,-5.5684,-5.5684,-5.5241,-5.4472,-5.3914,-5.2972,-5.1827,-5.0741,-4.999,-4.9375,-4.8817,-4.8702,-4.8933,-4.8933,-4.9106,-4.9336,-4.8836,-4.8529,-4.849,-4.8817,-4.8317,-4.7336,-4.7548,-4.724,-4.6605,-4.6932,-4.7355,-4.7625,-4.7682,-4.7682,-4.7663,-4.7663,-4.7259,-4.6663,-4.6951,-4.6471,-4.4951,-4.4624,-4.4594,-4.4432,-4.4836,-4.5047,-4.5077,-4.4797,-4.4816,-4.5058,-4.5654,-4.6182,-4.6701,-4.7355,-4.7682,-4.774,-4.8471,-4.8933,-4.9,-4.9505,-4.9879,-4.9972,-5.0137,-5.0361,-5.0723,-5.0903,-5.1034,-5.1328,-5.1387,-5.1387,-5.1387,-5.1387,-5.1211,-5.0937,-5.0234,-4.9141,-4.7871,-4.7305,-4.6836,-4.6445,-4.6289,-4.6289,-4.6289,-4.6289,-4.6289,-4.6289,-4.6289,-4.6289,-4.6289,-4.6289,-4.6289,-4.6289,-4.6289,-4.6289,-4.6289,-4.6289,-4.6289,-4.6289,-4.6289,-4.6289,-4.6289,-4.6289,-4.6289,-4.6289,-4.6289,-4.6289,-4.6289,-4.6289,-4.6289,-4.6289,-4.6289,-4.6289,-4.6289,-4.6289,-4.6289,-4.6289,-4.6289,-4.6289,-5.5684,-5.5684,-5.5684,-5.5395,-5.4838,-5.426,-5.3356,-5.2288,-5.1395,-5.0606,-4.9894,-4.9721,-4.9952,-5.0125,-4.9952,-4.999,-5.0048,-4.9067,-4.8702,-4.8971,-4.899,-4.8663,-4.8182,-4.8096,-4.7817,-4.7432,-4.7817,-4.8221,-4.8452,-4.8221,-4.8259,-4.8509,-4.8509,-4.8105,-4.7567,-4.8105,-4.7451,-4.597,-4.6105,-4.6105,-4.5663,-4.6086,-4.6663,-4.7105,-4.6721,-4.6663,-4.7269,-4.7298,-4.7528,-4.8048,-4.8355,-4.8644,-4.8971,-4.949,-4.9827,-4.9894,-5.0392,-5.078,-5.08,-5.1011,-5.1123,-5.119,-5.1269,-5.1358,-5.1387,-5.1387,-5.1387,-5.1367,-5.1113,-5.0957,-5.0488,-4.9805,-4.8984,-4.8047,-4.7519,-4.6973,-4.6406,-4.6308,-4.6289,-4.6289,-4.6289,-4.6289,-4.6289,-4.6289,-4.6289,-4.6289,-4.6289,-4.6289,-4.6289,-4.6289,-4.6289,-4.6289,-4.6289,-4.6289,-4.6289,-4.6289,-4.6289,-4.6289,-4.6289,-4.6289,-4.6289,-4.6289,-4.6289,-4.6289,-4.6289,-4.6289,-4.6289,-4.6289,-4.6289,-4.6289,-4.6289,-4.6289,-4.6289,-4.6289,-4.6289,-5.5761,-5.5761,-5.5722,-5.5722,-5.5568,-5.5299,-5.4568,-5.3318,-5.376,-5.2529,-5.0952,-5.2222,-5.2299,-5.1808,-5.101,-5.1106,-5.1308,-5.0087,-4.9067,-4.8529,-4.8452,-4.8413,-4.8336,-4.8394,-4.8375,-4.824,-4.8144,-4.8606,-4.9336,-4.8759,-4.874,-4.9298,-4.9394,-4.8971,-4.8125,-4.8913,-4.8933,-4.8029,-4.7894,-4.7971,-4.8058,-4.7952,-4.8029,-4.8125,-4.8105,-4.8144,-4.8182,-4.8144,-4.8182,-4.8355,-4.899,-4.9798,-5.0375,-5.0577,-5.0635,-5.0596,-5.0683,-5.0739,-5.0805,-5.0879,-5.1027,-5.116,-5.1205,-5.1265,-5.1387,-5.1387,-5.1367,-5.1172,-5.0664,-4.998,-4.9141,-4.8359,-4.8008,-4.8496,-4.7285,-4.6426,-4.6328,-4.6289,-4.6289,-4.6289,-4.6289,-4.6289,-4.6289,-4.6289,-4.6289,-4.6289,-4.6289,-4.6289,-4.6289,-4.6289,-4.6289,-4.6289,-4.6289,-4.6289,-4.6289,-4.6289,-4.6289,-4.6289,-4.6289,-4.6289,-4.6289,-4.6289,-4.6289,-4.6289,-4.6289,-4.6289,-4.6289,-4.6289,-4.6289,-4.6289,-4.6289,-4.6289,-4.6289,-4.6289,-4.6289,-5.7146,-5.6618,-5.6579,-5.6233,-5.5568,-5.4491,-5.3645,-5.3164,-5.2914,-5.225,-5.1837,-5.2722,-5.3049,-5.2654,-5.1914,-5.1673,-5.1788,-5.0798,-5.0125,-4.9913,-4.9875,-4.9856,-4.9856,-4.9875,-4.9894,-4.9779,-4.926,-4.9452,-5.0087,-5.0,-5.0058,-5.026,-5.0279,-4.9837,-4.9106,-4.9808,-4.9606,-4.8336,-4.8702,-4.8721,-4.824,-4.8702,-4.899,-4.9067,-4.9567,-4.9894,-4.9875,-4.9317,-4.9317,-4.9798,-5.0135,-5.0442,-5.0654,-5.0683,-5.0683,-5.0702,-5.0748,-5.0757,-5.0748,-5.0859,-5.1017,-5.1113,-5.1163,-5.1273,-5.1387,-5.1387,-5.1172,-5.0742,-5.0312,-4.9844,-4.8984,-4.8125,-4.7539,-4.7129,-4.6621,-4.6289,-4.6289,-4.6289,-4.6289,-4.6289,-4.6289,-4.6289,-4.6289,-4.6289,-4.6289,-4.6289,-4.6289,-4.6289,-4.6289,-4.6289,-4.6289,-4.6289,-4.6289,-4.6289,-4.6289,-4.6289,-4.6289,-4.6289,-4.6289,-4.6289,-4.6289,-4.6289,-4.6289,-4.6289,-4.6289,-4.6289,-4.6289,-4.6289,-4.6289,-4.6289,-4.6289,-4.6289,-4.6289,-4.6289,-4.6289,-5.7973,-5.7453,-5.7137,-5.6714,-5.606,-5.4703,-5.3953,-5.3703,-5.3453,-5.2972,-5.2722,-5.3645,-5.3933,-5.3626,-5.3087,-5.2876,-5.2779,-5.201,-5.1625,-5.1548,-5.1221,-5.1144,-5.1144,-5.1125,-5.1144,-5.1144,-5.0914,-5.0914,-5.1125,-5.1125,-5.0991,-5.075,-5.0683,-5.0433,-4.9952,-5.0356,-5.0048,-4.926,-4.9586,-4.9625,-4.9279,-4.9586,-4.9875,-4.9952,-5.0423,-5.0673,-5.0654,-5.0173,-5.0125,-5.0587,-5.0683,-5.0683,-5.0683,-5.0683,-5.0683,-5.0702,-5.074,-5.0739,-5.0731,-5.0822,-5.0985,-5.1069,-5.116,-5.1262,-5.1367,-5.1387,-5.1133,-5.0762,-5.0039,-4.9473,-4.8887,-4.7773,-4.6914,-4.6387,-4.6328,-4.6289,-4.6289,-4.6289,-4.6289,-4.6289,-4.6289,-4.6289,-4.6289,-4.6289,-4.6289,-4.6289,-4.6289,-4.6289,-4.6289,-4.6289,-4.6289,-4.6289,-4.6289,-4.6289,-4.6289,-4.6289,-4.6289,-4.6289,-4.6289,-4.6289,-4.6289,-4.6289,-4.6289,-4.6289,-4.6289,-4.6289,-4.6289,-4.6289,-4.6289,-4.6289,-4.6289,-4.6289,-4.6289,-4.6289,-4.6289,-5.8415,-5.8261,-5.7492,-5.7195,-5.6934,-5.5972,-5.5145,-5.4722,-5.5107,-5.453,-5.3799,-5.4799,-5.5184,-5.4664,-5.4318,-5.4222,-5.4318,-5.3568,-5.3145,-5.2991,-5.2606,-5.2212,-5.1827,-5.175,-5.1818,-5.2058,-5.2626,-5.2615,-5.201,-5.1827,-5.1538,-5.1087,-5.0866,-5.0741,-5.0712,-5.076,-5.0625,-5.0491,-5.0596,-5.0548,-5.0519,-5.0596,-5.0635,-5.0596,-5.0558,-5.0567,-5.0673,-5.0596,-5.0616,-5.0683,-5.0683,-5.0683,-5.0683,-5.0683,-5.0683,-5.0683,-5.0693,-5.0702,-5.0702,-5.0799,-5.0911,-5.1093,-5.1168,-5.1243,-5.1367,-5.1269,-5.1055,-5.0762,-4.9629,-4.875,-4.8359,-4.7344,-4.6445,-4.6308,-4.6289,-4.6289,-4.6289,-4.6289,-4.6289,-4.6289,-4.6289,-4.6289,-4.6289,-4.6289,-4.6289,-4.6289,-4.6289,-4.6289,-4.6289,-4.6289,-4.6289,-4.6289,-4.6289,-4.6289,-4.6289,-4.6289,-4.6289,-4.6289,-4.6308,-4.6308,-4.6308,-4.6289,-4.6289,-4.6289,-4.6289,-4.6289,-4.6289,-4.6289,-4.6289,-4.6289,-4.6289,-4.6289,-4.6308,-4.6308,-4.6348,-5.9781,-5.9165,-5.8954,-5.8511,-5.778,-5.6357,-5.5626,-5.5338,-5.4972,-5.4722,-5.4472,-5.5222,-5.5588,-5.5338,-5.478,-5.4511,-5.453,-5.4357,-5.4164,-5.4222,-5.4607,-5.351,-5.2231,-5.1942,-5.2269,-5.2827,-5.3183,-5.3087,-5.2818,-5.2308,-5.2154,-5.2472,-5.1337,-5.1068,-5.1433,-5.1048,-5.0712,-5.0683,-5.0731,-5.0731,-5.0712,-5.0731,-5.0683,-5.0635,-5.0125,-5.0144,-5.0606,-5.0683,-5.0683,-5.0683,-5.0683,-5.0683,-5.0683,-5.0683,-5.0683,-5.0683,-5.0683,-5.0693,-5.0712,-5.0833,-5.0952,-5.1098,-5.1167,-5.126,-5.1367,-5.0859,-5.0254,-4.959,-4.8535,-4.7734,-4.7129,-4.6621,-4.6328,-4.6289,-4.6289,-4.6289,-4.6289,-4.6289,-4.6289,-4.6289,-4.6289,-4.6289,-4.6289,-4.6289,-4.6289,-4.6289,-4.6289,-4.6289,-4.6289,-4.6289,-4.6289,-4.6289,-4.6289,-4.6289,-4.6289,-4.6289,-4.6289,-4.6289,-4.6308,-4.6348,-4.6328,-4.6289,-4.6289,-4.6289,-4.6289,-4.6289,-4.6289,-4.6289,-4.6289,-4.6289,-4.6289,-4.6289,-4.6308,-4.6328,-4.6406,-6.0492,-6.0012,-5.9665,-5.9242,-5.8665,-5.7357,-5.678,-5.6626,-5.5934,-5.578,-5.5992,-5.5742,-5.5906,-5.6145,-5.5771,-5.5568,-5.5568,-5.5934,-5.5915,-5.5472,-5.5241,-5.4299,-5.326,-5.301,-5.328,-5.3722,-5.4107,-5.4049,-5.3741,-5.3222,-5.3145,-5.2972,-5.2241,-5.201,-5.2365,-5.2029,-5.1529,-5.1356,-5.1491,-5.1501,-5.077,-5.1048,-5.1202,-5.1048,-5.0414,-5.0231,-5.0654,-5.0683,-5.0683,-5.0683,-5.0683,-5.0683,-5.0683,-5.0683,-5.0683,-5.0683,-5.0683,-5.0721,-5.0758,-5.0855,-5.0978,-5.1093,-5.119,-5.1082,-5.0859,-5.0391,-4.9824,-4.9004,-4.8105,-4.7441,-4.6933,-4.6543,-4.6328,-4.6289,-4.6289,-4.6308,-4.6308,-4.6289,-4.6289,-4.6289,-4.6289,-4.6308,-4.6308,-4.6308,-4.6308,-4.6289,-4.6289,-4.6289,-4.6289,-4.6289,-4.6289,-4.6289,-4.6328,-4.6328,-4.6562,-4.666,-4.6914,-4.6875,-4.6894,-4.6816,-4.6426,-4.6367,-4.6289,-4.6289,-4.6289,-4.6308,-4.6308,-4.6308,-4.6289,-4.6289,-4.6289,-4.6367,-4.6426,-4.6816,-4.6836,-6.08,-6.0723,-5.9954,-5.9646,-5.9511,-5.8781,-5.8319,-5.8242,-5.7434,-5.7434,-5.7684,-5.6607,-5.6588,-5.7137,-5.7041,-5.708,-5.7157,-5.778,-5.7761,-5.6973,-5.5972,-5.4934,-5.5107,-5.4587,-5.4645,-5.4953,-5.5607,-5.5588,-5.5164,-5.4818,-5.4299,-5.3857,-5.3472,-5.3241,-5.3222,-5.3164,-5.2741,-5.2299,-5.2606,-5.2337,-5.1548,-5.1779,-5.2019,-5.1942,-5.151,-5.0991,-5.102,-5.101,-5.1106,-5.101,-5.0827,-5.0712,-5.0683,-5.0683,-5.0683,-5.076,-5.0846,-5.0952,-5.1015,-5.1277,-5.1301,-5.1358,-5.1432,-5.1093,-5.0609,-5.0312,-4.9902,-4.9258,-4.8262,-4.7891,-4.7656,-4.7012,-4.6738,-4.6777,-4.668,-4.6484,-4.6543,-4.6504,-4.6406,-4.6367,-4.6387,-4.6562,-4.6465,-4.6504,-4.6601,-4.6777,-4.668,-4.6562,-4.6445,-4.6289,-4.6289,-4.6289,-4.6328,-4.6387,-4.6719,-4.709,-4.7441,-4.7656,-4.7715,-4.7539,-4.6738,-4.6523,-4.6367,-4.6289,-4.6289,-4.6308,-4.6328,-4.6308,-4.6484,-4.6719,-4.6992,-4.6855,-4.6758,-4.7422,-4.7695,-6.08,-6.0781,-6.0608,-6.0531,-6.0377,-5.9627,-5.9242,-5.9184,-5.8357,-5.8165,-5.8204,-5.7857,-5.78,-5.8011,-5.8011,-5.803,-5.8107,-5.8781,-5.9088,-5.8781,-5.7223,-5.6953,-5.6973,-5.6203,-5.5876,-5.6434,-5.7319,-5.755,-5.7184,-5.6126,-5.5722,-5.5915,-5.4357,-5.3587,-5.4145,-5.3703,-5.3164,-5.2991,-5.3183,-5.3106,-5.2722,-5.2741,-5.2895,-5.2837,-5.2702,-5.2279,-5.1933,-5.2318,-5.2645,-5.2375,-5.151,-5.0894,-5.0875,-5.0837,-5.0856,-5.0991,-5.1395,-5.1654,-5.1799,-5.229,-5.2628,-5.1974,-5.1953,-5.2001,-5.1192,-5.0433,-5.0112,-4.9746,-4.916,-4.8574,-4.8437,-4.7793,-4.7637,-4.7851,-4.7656,-4.7558,-4.8027,-4.7715,-4.7109,-4.6836,-4.7461,-4.8086,-4.7461,-4.791,-4.7832,-4.7461,-4.7187,-4.6973,-4.6777,-4.6582,-4.668,-4.6875,-4.6855,-4.7031,-4.7422,-4.7832,-4.8242,-4.8476,-4.8535,-4.8242,-4.7441,-4.6836,-4.6719,-4.6523,-4.6289,-4.6348,-4.6562,-4.7051,-4.7363,-4.7539,-4.7704,-4.7742,-4.788,-4.8332,-4.8588,-6.08,-6.08,-6.08,-6.08,-6.0723,-6.03,-6.0108,-5.9935,-5.9223,-5.9088,-5.9223,-5.8723,-5.8511,-5.8838,-5.8858,-5.8858,-5.8954,-5.9261,-5.9492,-5.9184,-5.8165,-5.7877,-5.8204,-5.7838,-5.7646,-5.778,-5.8011,-5.828,-5.7973,-5.7492,-5.7165,-5.7473,-5.5761,-5.5415,-5.5472,-5.4799,-5.4241,-5.3991,-5.4184,-5.4049,-5.3356,-5.3626,-5.351,-5.3414,-5.353,-5.3395,-5.2683,-5.2914,-5.3145,-5.2991,-5.2375,-5.1875,-5.1875,-5.1856,-5.1856,-5.1972,-5.2202,-5.253,-5.2742,-5.2677,-5.2597,-5.2235,-5.2039,-5.1384,-5.0846,-5.0202,-4.984,-4.9532,-4.9121,-4.8848,-4.8824,-4.8535,-4.8509,-4.853,-4.8397,-4.834,-4.8592,-4.8418,-4.8086,-4.7754,-4.832,-4.8496,-4.8594,-4.8887,-4.875,-4.8223,-4.8183,-4.8008,-4.8027,-4.7851,-4.7793,-4.7832,-4.7715,-4.7832,-4.8203,-4.8633,-4.9101,-4.9277,-4.9336,-4.8887,-4.8183,-4.7633,-4.7148,-4.6894,-4.6641,-4.6836,-4.7102,-4.7652,-4.8124,-4.8241,-4.8413,-4.8699,-4.8954,-4.9178,-4.9336,-6.08,-6.08,-6.08,-6.08,-6.08,-6.0762,-6.0742,-6.0646,-6.0031,-6.0031,-6.0454,-5.9242,-5.9223,-5.9588,-5.9704,-5.9704,-5.9665,-5.9492,-5.955,-5.9665,-5.8915,-5.8723,-5.8915,-5.9223,-5.9223,-5.8723,-5.8858,-5.8838,-5.88,-5.8434,-5.8146,-5.8242,-5.7396,-5.6703,-5.6665,-5.628,-5.5434,-5.4857,-5.5376,-5.5318,-5.4357,-5.4664,-5.4549,-5.4068,-5.4299,-5.4376,-5.3837,-5.376,-5.3683,-5.3587,-5.3587,-5.3568,-5.353,-5.326,-5.3203,-5.3145,-5.3241,-5.3271,-5.3109,-5.2867,-5.264,-5.2293,-5.1673,-5.0914,-5.0323,-5.0169,-4.9972,-4.9627,-4.9367,-4.9399,-4.9167,-4.9031,-4.9023,-4.9062,-4.9003,-4.8902,-4.9016,-4.9126,-4.916,-4.8789,-4.918,-4.9531,-4.9375,-4.9433,-4.9238,-4.91,-4.908,-4.9002,-4.8982,-4.8848,-4.8613,-4.8418,-4.8223,-4.8535,-4.8945,-4.9555,-5.0014,-5.0013,-5.0079,-4.9551,-4.8965,-4.8591,-4.8074,-4.7311,-4.7109,-4.7385,-4.7785,-4.8344,-4.873,-4.8891,-4.9279,-4.9685,-4.9892,-4.9976,-5.013,-6.08,-6.08,-6.08,-6.08,-6.08,-6.08,-6.08,-6.0781,-6.0589,-6.0646,-6.0704,-6.0492,-6.0319,-6.0512,-6.0569,-6.055,-6.0319,-5.9973,-5.9915,-6.0242,-5.9723,-5.9569,-6.0108,-6.0262,-6.0358,-6.0454,-6.0242,-6.0165,-5.9858,-5.9108,-5.8838,-5.8858,-5.78,-5.7107,-5.7088,-5.6772,-5.6233,-5.5549,-5.6088,-5.6175,-5.6175,-5.6222,-5.6041,-5.5261,-5.5395,-5.5299,-5.5241,-5.5222,-5.528,-5.528,-5.528,-5.5203,-5.4799,-5.3895,-5.3414,-5.3491,-5.378,-5.3762,-5.3435,-5.3697,-5.3253,-5.2526,-5.1887,-5.153,-5.0966,-5.0796,-5.0722,-5.0804,-5.072,-5.0786,-5.0707,-5.0287,-5.0163,-5.0285,-5.0164,-4.9963,-5.0388,-5.043,-5.0052,-4.9321,-4.9959,-5.0584,-5.028,-5.0087,-5.0065,-4.9946,-4.9825,-4.9562,-4.9299,-4.9134,-4.8887,-4.8711,-4.8555,-4.9082,-4.9668,-5.0386,-5.0904,-5.0734,-5.0629,-5.028,-4.9809,-4.9586,-4.9068,-4.8446,-4.8082,-4.8224,-4.8657,-4.9095,-4.943,-4.9679,-5.0201,-5.0694,-5.0661,-5.0626,-5.0975,-6.08,-6.08,-6.08,-6.08,-6.08,-6.08,-6.08,-6.08,-6.08,-6.08,-6.08,-6.08,-6.08,-6.08,-6.08,-6.08,-6.0646,-6.0435,-6.0416,-6.0646,-6.0416,-6.0339,-6.0781,-6.08,-6.08,-6.0762,-6.0781,-6.08,-6.0666,-5.955,-5.9396,-5.9608,-5.8511,-5.7684,-5.753,-5.7195,-5.6599,-5.6069,-5.6203,-5.6646,-5.708,-5.7376,-5.7165,-5.6618,-5.631,-5.6156,-5.5722,-5.5684,-5.5684,-5.5665,-5.5665,-5.5472,-5.5011,-5.453,-5.4049,-5.4318,-5.4107,-5.3953,-5.3606,-5.3648,-5.2676,-5.2127,-5.172,-5.1308,-5.1149,-5.1234,-5.1585,-5.1777,-5.2244,-5.218,-5.1711,-5.1625,-5.174,-5.1554,-5.1263,-5.1082,-5.1011,-5.1018,-5.0563,-4.9969,-5.0512,-5.0952,-5.0909,-5.0826,-5.0904,-5.0812,-5.0603,-5.0205,-4.9726,-4.9615,-4.9489,-4.9557,-4.9532,-4.9789,-5.0239,-5.0659,-5.118,-5.1098,-5.1011,-5.0662,-5.047,-5.0162,-5.0066,-4.9772,-4.9538,-4.9117,-4.9349,-4.9744,-5.0118,-5.0406,-5.0658,-5.0897,-5.1114,-5.1336,-5.1546,-6.08,-6.08,-6.08,-6.08,-6.08,-6.08,-6.08,-6.08,-6.08,-6.08,-6.08,-6.08,-6.08,-6.08,-6.08,-6.08,-6.08,-6.0762,-6.0762,-6.0762,-6.0742,-6.0762,-6.0781,-6.08,-6.08,-6.08,-6.08,-6.08,-6.0627,-5.9838,-6.0031,-6.0089,-5.9184,-5.855,-5.8396,-5.8011,-5.6992,-5.653,-5.6434,-5.6876,-5.7511,-5.7953,-5.7896,-5.7118,-5.7003,-5.6637,-5.6137,-5.6079,-5.6242,-5.6261,-5.6126,-5.5733,-5.5145,-5.4838,-5.5049,-5.5318,-5.4241,-5.3991,-5.3664,-5.3183,-5.2424,-5.1943,-5.1337,-5.1164,-5.147,-5.2035,-5.2376,-5.2535,-5.287,-5.3088,-5.2581,-5.2971,-5.2941,-5.2591,-5.234,-5.2211,-5.1732,-5.1606,-5.1713,-5.1441,-5.1441,-5.1263,-5.1176,-5.0982,-5.0956,-5.095,-5.0753,-5.0744,-5.0377,-5.05,-5.048,-5.0635,-5.0705,-5.0703,-5.082,-5.0726,-5.1017,-5.0978,-5.0923,-5.0735,-5.0683,-5.0613,-5.0537,-5.0382,-5.0242,-4.9896,-5.0159,-5.0283,-5.0465,-5.0676,-5.0865,-5.1016,-5.1114,-5.1347,-5.1598,-6.08,-6.08,-6.08,-6.08,-6.08,-6.08,-6.08,-6.08,-6.08,-6.08,-6.08,-6.08,-6.08,-6.08,-6.08,-6.08,-6.08,-6.08,-6.08,-6.08,-6.08,-6.08,-6.08,-6.08,-6.08,-6.08,-6.08,-6.08,-6.0589,-5.9915,-5.9973,-6.0358,-5.9877,-5.9319,-5.9165,-5.8934,-5.88,-5.8204,-5.8569,-5.8934,-5.8915,-5.8569,-5.7934,-5.7253,-5.6983,-5.6849,-5.6579,-5.6541,-5.6819,-5.7473,-5.7069,-5.681,-5.6599,-5.5934,-5.5645,-5.5434,-5.4857,-5.4049,-5.3606,-5.3126,-5.2635,-5.2212,-5.1837,-5.2164,-5.2646,-5.2926,-5.3157,-5.308,-5.3349,-5.3377,-5.3242,-5.331,-5.3234,-5.3215,-5.3138,-5.3061,-5.2743,-5.2261,-5.2357,-5.2374,-5.2233,-5.1687,-5.1334,-5.1114,-5.0932,-5.0932,-5.0944,-5.0999,-5.1061,-5.1165,-5.0902,-5.0905,-5.0901,-5.0916,-5.0923,-5.0898,-5.0933,-5.0877,-5.0846,-5.0795,-5.074,-5.0712,-5.0702,-5.0577,-5.0479,-5.0565,-5.0718,-5.0794,-5.0812,-5.0934,-5.1159,-5.1103,-5.1009,-5.1307,-5.1705,-6.08,-6.08,-6.08,-6.08,-6.08,-6.08,-6.08,-6.08,-6.08,-6.08,-6.08,-6.08,-6.08,-6.08,-6.08,-6.08,-6.08,-6.08,-6.08,-6.08,-6.08,-6.08,-6.08,-6.08,-6.08,-6.0858,-6.08,-6.08,-6.0512,-6.0108,-5.9954,-6.055,-5.9992,-5.9473,-5.9588,-5.9531,-5.8992,-5.8704,-5.8954,-5.9204,-5.8973,-5.8819,-5.8338,-5.7118,-5.7041,-5.681,-5.6445,-5.628,-5.6415,-5.6857,-5.6753,-5.6503,-5.5915,-5.5549,-5.553,-5.4972,-5.4703,-5.4318,-5.3991,-5.3491,-5.3049,-5.2818,-5.2702,-5.3029,-5.3713,-5.3964,-5.3975,-5.3925,-5.4398,-5.4398,-5.4155,-5.4398,-5.4253,-5.4138,-5.3965,-5.3647,-5.3492,-5.3232,-5.3021,-5.3022,-5.2984,-5.2511,-5.1959,-5.1473,-5.1451,-5.1625,-5.1724,-5.1815,-5.1807,-5.1836,-5.1393,-5.0795,-5.0794,-5.0784,-5.0793,-5.0775,-5.0928,-5.0911,-5.0883,-5.0827,-5.0731,-5.0693,-5.0933,-5.0866,-5.0683,-5.0847,-5.1202,-5.1126,-5.099,-5.1192,-5.1442,-5.1524,-5.1612,-5.155,-5.1762,-6.08,-6.08,-6.08,-6.08,-6.08,-6.08,-6.08,-6.08,-6.08,-6.08,-6.08,-6.08,-6.08,-6.08,-6.08,-6.08,-6.08,-6.08,-6.08,-6.08,-6.0819,-6.0935,-6.1031,-6.1031,-6.0935,-6.1089,-6.0877,-6.0819,-6.0608,-6.03,-6.0242,-6.0762,-6.0262,-5.9935,-5.9858,-5.9858,-5.9627,-5.9281,-5.9646,-5.9627,-5.9281,-5.9338,-5.8588,-5.78,-5.7234,-5.6926,-5.6165,-5.6088,-5.6145,-5.6665,-5.681,-5.6503,-5.5752,-5.5945,-5.5733,-5.5241,-5.4934,-5.4895,-5.4568,-5.4145,-5.3645,-5.3587,-5.3818,-5.4203,-5.4626,-5.4799,-5.4799,-5.478,-5.5175,-5.5194,-5.5068,-5.5348,-5.5194,-5.4944,-5.479,-5.4337,-5.401,-5.401,-5.4049,-5.4147,-5.4041,-5.3646,-5.2993,-5.2126,-5.1962,-5.228,-5.2454,-5.2606,-5.2587,-5.2549,-5.2193,-5.1616,-5.1616,-5.1636,-5.1588,-5.1433,-5.1327,-5.1193,-5.1193,-5.1298,-5.1491,-5.1568,-5.176,-5.151,-5.1193,-5.1587,-5.2202,-5.1645,-5.1164,-5.152,-5.1876,-5.2242,-5.2367,-5.2173,-5.1703,-6.08,-6.08,-6.08,-6.08,-6.08,-6.08,-6.08,-6.08,-6.08,-6.08,-6.08,-6.08,-6.08,-6.08,-6.08,-6.08,-6.08,-6.08,-6.08,-6.08,-6.0839,-6.1166,-6.1281,-6.1185,-6.1108,-6.1562,-6.1146,-6.08,-6.0781,-6.0666,-6.0646,-6.0742,-6.055,-6.0627,-6.0589,-6.0454,-6.0454,-6.0242,-6.0454,-6.0435,-6.0069,-5.9762,-5.8992,-5.8377,-5.8107,-5.7819,-5.6983,-5.683,-5.6953,-5.755,-5.7203,-5.683,-5.631,-5.6522,-5.6233,-5.5626,-5.5415,-5.5395,-5.5222,-5.4838,-5.4511,-5.4607,-5.4895,-5.5222,-5.5376,-5.5568,-5.5607,-5.5626,-5.5876,-5.5895,-5.5722,-5.5665,-5.578,-5.5742,-5.5588,-5.5338,-5.5107,-5.5126,-5.5164,-5.528,-5.503,-5.4549,-5.4299,-5.3493,-5.2926,-5.3195,-5.3484,-5.3645,-5.3318,-5.3222,-5.3106,-5.2847,-5.2856,-5.2886,-5.2905,-5.2722,-5.2337,-5.226,-5.2279,-5.2491,-5.2741,-5.276,-5.2472,-5.2529,-5.2356,-5.276,-5.3029,-5.2626,-5.2318,-5.2173,-5.2346,-5.2837,-5.275,-5.2404,-5.1741,-6.08,-6.08,-6.08,-6.08,-6.08,-6.08,-6.08,-6.08,-6.08,-6.08,-6.08,-6.08,-6.08,-6.08,-6.08,-6.08,-6.08,-6.08,-6.0819,-6.08,-6.0877,-6.1012,-6.1108,-6.1127,-6.0973,-6.1254,-6.0954,-6.08,-6.08,-6.08,-6.08,-6.08,-6.08,-6.0781,-6.0781,-6.08,-6.08,-6.08,-6.0723,-6.0589,-5.9954,-5.9723,-5.9108,-5.8396,-5.8288,-5.8165,-5.7761,-5.7253,-5.73,-5.7338,-5.7157,-5.683,-5.6503,-5.6753,-5.6522,-5.5876,-5.5761,-5.5684,-5.5684,-5.5395,-5.5261,-5.528,-5.5511,-5.5722,-5.5838,-5.6165,-5.6445,-5.6503,-5.6503,-5.6588,-5.7203,-5.6838,-5.6541,-5.6503,-5.6395,-5.6242,-5.6069,-5.603,-5.5857,-5.578,-5.5588,-5.528,-5.5126,-5.4963,-5.4463,-5.4136,-5.4414,-5.4568,-5.4241,-5.403,-5.3991,-5.3837,-5.3818,-5.3606,-5.3587,-5.3433,-5.326,-5.3337,-5.3395,-5.3491,-5.3606,-5.3203,-5.2991,-5.3183,-5.3414,-5.3587,-5.3664,-5.3645,-5.3491,-5.3299,-5.3337,-5.3568,-5.326,-5.275,-5.2087,-6.0646,-6.0454,-6.0685,-6.08,-6.08,-6.08,-6.08,-6.08,-6.08,-6.08,-6.08,-6.08,-6.08,-6.08,-6.08,-6.1031,-6.1166,-6.1254,-6.1223,-6.1243,-6.1262,-6.1185,-6.1089,-6.0993,-6.0993,-6.1031,-6.0858,-6.08,-6.08,-6.08,-6.08,-6.08,-6.08,-6.08,-6.08,-6.08,-6.08,-6.08,-6.0723,-6.0569,-5.9954,-5.9915,-5.9511,-5.8858,-5.8742,-5.8492,-5.8223,-5.7742,-5.7311,-5.7195,-5.6964,-5.6714,-5.6464,-5.6329,-5.6376,-5.6145,-5.5857,-5.5742,-5.5703,-5.5684,-5.5684,-5.5607,-5.6011,-5.6088,-5.628,-5.6857,-5.7357,-5.7376,-5.7415,-5.7646,-5.8319,-5.7684,-5.7396,-5.7376,-5.7376,-5.7223,-5.6838,-5.6665,-5.6406,-5.6195,-5.5945,-5.5607,-5.553,-5.5376,-5.5203,-5.4857,-5.5011,-5.5164,-5.5068,-5.4953,-5.503,-5.4857,-5.4664,-5.4376,-5.4087,-5.4222,-5.4376,-5.4434,-5.4453,-5.4299,-5.4222,-5.3876,-5.3895,-5.4299,-5.4434,-5.4357,-5.4434,-5.4568,-5.4511,-5.4395,-5.4337,-5.4164,-5.401,-5.351,-5.2914,-6.0319,-5.9685,-6.0454,-6.0781,-6.0704,-6.08,-6.08,-6.08,-6.08,-6.08,-6.08,-6.08,-6.08,-6.0819,-6.0896,-6.132,-6.1831,-6.2005,-6.2005,-6.1897,-6.1831,-6.1966,-6.162,-6.1262,-6.105,-6.1627,-6.1262,-6.08,-6.08,-6.08,-6.08,-6.08,-6.08,-6.08,-6.08,-6.08,-6.08,-6.08,-6.08,-6.0704,-6.0627,-6.0569,-6.0089,-5.9685,-5.9492,-5.9242,-5.8858,-5.8454,-5.8011,-5.7607,-5.73,-5.7069,-5.6849,-5.6395,-5.6453,-5.6772,-5.6214,-5.5915,-5.5799,-5.5761,-5.5953,-5.6145,-5.6722,-5.6934,-5.7146,-5.7703,-5.828,-5.8242,-5.8261,-5.8319,-5.8396,-5.8338,-5.83,-5.8261,-5.8261,-5.803,-5.7627,-5.7319,-5.7069,-5.6838,-5.6233,-5.5703,-5.5684,-5.5665,-5.5645,-5.5568,-5.5645,-5.5665,-5.5645,-5.5829,-5.5876,-5.5665,-5.5434,-5.5415,-5.5222,-5.5357,-5.5472,-5.5549,-5.5395,-5.5088,-5.5068,-5.5011,-5.5145,-5.5415,-5.528,-5.503,-5.528,-5.5588,-5.528,-5.4934,-5.4741,-5.4587,-5.4491,-5.4203,-5.3549,-6.0281,-5.9588,-6.0435,-6.0473,-6.0069,-6.055,-6.08,-6.08,-6.08,-6.08,-6.08,-6.08,-6.08,-6.0916,-6.1447,-6.1858,-6.2108,-6.2762,-6.2762,-6.212,-6.2101,-6.1647,-6.13,-6.1069,-6.0993,-6.1089,-6.0858,-6.08,-6.08,-6.0877,-6.0819,-6.08,-6.0973,-6.08,-6.08,-6.08,-6.08,-6.08,-6.08,-6.0781,-6.08,-6.0781,-6.0646,-6.03,-6.03,-6.0089,-5.9762,-5.9358,-5.8877,-5.8434,-5.8146,-5.7646,-5.7387,-5.6953,-5.7242,-5.7357,-5.6953,-5.7453,-5.7434,-5.7473,-5.7453,-5.755,-5.7607,-5.7857,-5.7953,-5.8627,-5.8992,-5.9108,-5.9108,-5.9319,-5.9819,-5.9338,-5.9165,-5.9108,-5.8992,-5.8665,-5.83,-5.8069,-5.7819,-5.7607,-5.7146,-5.6357,-5.6049,-5.6242,-5.6261,-5.6395,-5.6492,-5.6069,-5.5934,-5.6387,-5.6618,-5.6368,-5.6195,-5.631,-5.6349,-5.6088,-5.578,-5.5626,-5.5607,-5.553,-5.5607,-5.5684,-5.5665,-5.5549,-5.5626,-5.5684,-5.5684,-5.5684,-5.5588,-5.5376,-5.5164,-5.4914,-5.4703,-5.4434,-5.3991,-6.0281,-5.9627,-6.0435,-6.03,-5.9704,-6.0416,-6.08,-6.08,-6.08,-6.0935,-6.1223,-6.1262,-6.1454,-6.18,-6.2204,-6.2512,-6.257,-6.2974,-6.2858,-6.2197,-6.2101,-6.1601,-6.1069,-6.08,-6.0839,-6.08,-6.0839,-6.0877,-6.132,-6.1281,-6.1493,-6.1685,-6.1396,-6.1358,-6.1243,-6.1069,-6.08,-6.08,-6.08,-6.08,-6.08,-6.0781,-6.0781,-6.0742,-6.0742,-6.0704,-6.0608,-6.0281,-5.98,-5.9473,-5.8992,-5.8434,-5.8165,-5.7973,-5.8204,-5.8107,-5.7992,-5.8454,-5.855,-5.8646,-5.8742,-5.9165,-5.8934,-5.8742,-5.8877,-5.9492,-5.9819,-5.9954,-5.9915,-6.0185,-6.0473,-5.9992,-5.9954,-5.9877,-5.9762,-5.9435,-5.93,-5.9069,-5.8684,-5.8473,-5.7992,-5.7203,-5.6646,-5.678,-5.6973,-5.7165,-5.7338,-5.6876,-5.6492,-5.6973,-5.7349,-5.708,-5.6964,-5.7049,-5.6838,-5.6387,-5.6088,-5.5742,-5.5684,-5.5684,-5.5684,-5.5684,-5.5684,-5.5684,-5.5684,-5.5684,-5.5684,-5.5665,-5.5626,-5.5607,-5.5568,-5.528,-5.4953,-5.4722,-5.4491,-6.03,-5.9685,-6.0416,-6.03,-5.9742,-6.0435,-6.08,-6.08,-6.08,-6.1262,-6.2024,-6.1985,-6.23,-6.3051,-6.3243,-6.3205,-6.3154,-6.325,-6.2762,-6.2312,-6.212,-6.1485,-6.1031,-6.08,-6.08,-6.08,-6.0877,-6.1166,-6.1947,-6.2108,-6.2493,-6.2801,-6.2358,-6.207,-6.1755,-6.1389,-6.0993,-6.0877,-6.08,-6.08,-6.08,-6.08,-6.08,-6.08,-6.08,-6.08,-6.0742,-6.0608,-6.0242,-5.9896,-5.955,-5.9492,-5.9242,-5.8761,-5.9011,-5.9088,-5.8819,-5.9108,-5.9396,-5.955,-5.9819,-6.0146,-5.9877,-5.9646,-5.9723,-6.0165,-6.0396,-6.0531,-6.0512,-6.0608,-6.0685,-6.0646,-6.0627,-6.0608,-6.0608,-6.0473,-6.0416,-6.0127,-5.9685,-5.9261,-5.8742,-5.8165,-5.7838,-5.7838,-5.7761,-5.8127,-5.8319,-5.8357,-5.803,-5.7953,-5.8146,-5.78,-5.7742,-5.7819,-5.7473,-5.6896,-5.6222,-5.5838,-5.5722,-5.5684,-5.5684,-5.5703,-5.5684,-5.5684,-5.5684,-5.5684,-5.5684,-5.5684,-5.5684,-5.5684,-5.5684,-5.5626,-5.528,-5.5376,-5.528,-6.03,-5.9627,-6.0435,-6.03,-5.9685,-6.0435,-6.08,-6.08,-6.08,-6.1281,-6.2101,-6.2101,-6.2647,-6.3269,-6.3288,-6.3308,-6.3269,-6.3205,-6.2762,-6.2339,-6.1947,-6.1466,-6.1069,-6.08,-6.08,-6.08,-6.0916,-6.1243,-6.2082,-6.2551,-6.2993,-6.3147,-6.3108,-6.2704,-6.2243,-6.1851,-6.1339,-6.0935,-6.08,-6.08,-6.08,-6.08,-6.08,-6.08,-6.08,-6.08,-6.08,-6.08,-6.0531,-6.0454,-6.0396,-6.0242,-5.9473,-5.9819,-6.0319,-6.0339,-6.0204,-6.0223,-6.0377,-6.0416,-6.0531,-6.0704,-6.0492,-6.0512,-6.0512,-6.0589,-6.08,-6.08,-6.08,-6.08,-6.08,-6.08,-6.08,-6.08,-6.08,-6.0762,-6.0704,-6.0589,-6.0185,-6.0031,-5.9492,-5.9088,-5.88,-5.8569,-5.8569,-5.9011,-5.9338,-5.9492,-5.9435,-5.93,-5.8896,-5.855,-5.8492,-5.8569,-5.8011,-5.7434,-5.6607,-5.5953,-5.5934,-5.5876,-5.5818,-5.5818,-5.5742,-5.5684,-5.5684,-5.5684,-5.5684,-5.5684,-5.5684,-5.5684,-5.5684,-5.5684,-5.5684,-5.5684,-5.5684,-5.9915,-6.005,-6.0185,-6.0165,-6.0127,-6.0569,-6.08,-6.08,-6.08,-6.1435,-6.2512,-6.2589,-6.3051,-6.3782,-6.3839,-6.3512,-6.2781,-6.2704,-6.23,-6.1647,-6.1639,-6.1235,-6.0896,-6.08,-6.08,-6.08,-6.0916,-6.1243,-6.2159,-6.3243,-6.3858,-6.3878,-6.3808,-6.3281,-6.2743,-6.2185,-6.1581,-6.1089,-6.08,-6.08,-6.08,-6.08,-6.08,-6.08,-6.08,-6.08,-6.08,-6.08,-6.08,-6.08,-6.08,-6.0608,-6.0069,-6.0531,-6.0762,-6.0723,-6.0685,-6.0627,-6.0704,-6.0723,-6.0781,-6.08,-6.08,-6.0762,-6.0742,-6.0762,-6.08,-6.08,-6.08,-6.08,-6.08,-6.08,-6.08,-6.08,-6.08,-6.08,-6.0781,-6.0781,-6.0723,-6.0666,-6.0319,-5.9877,-5.9569,-5.9338,-5.9569,-6.0339,-6.0762,-6.0839,-6.0658,-6.0319,-5.9762,-5.9204,-5.9223,-5.9281,-5.8627,-5.805,-5.7607,-5.6973,-5.6549,-5.6453,-5.6203,-5.5915,-5.5799,-5.5742,-5.5684,-5.5684,-5.5684,-5.5684,-5.5684,-5.5684,-5.5684,-5.5684,-5.5684,-5.5684,-5.5684,-5.93,-6.0569,-5.9915,-6.0127,-6.0723,-6.08,-6.08,-6.08,-6.08,-6.1723,-6.3031,-6.325,-6.3685,-6.4243,-6.4205,-6.3339,-6.2551,-6.2089,-6.1685,-6.0819,-6.0973,-6.0858,-6.0858,-6.08,-6.08,-6.08,-6.0935,-6.1262,-6.23,-6.3281,-6.407,-6.4512,-6.432,-6.3705,-6.2839,-6.2351,-6.1678,-6.0954,-6.08,-6.08,-6.08,-6.08,-6.08,-6.08,-6.08,-6.08,-6.08,-6.08,-6.08,-6.08,-6.0781,-6.0762,-6.0742,-6.0723,-6.0781,-6.08,-6.08,-6.08,-6.08,-6.08,-6.08,-6.08,-6.08,-6.08,-6.08,-6.08,-6.08,-6.08,-6.08,-6.08,-6.08,-6.08,-6.08,-6.08,-6.08,-6.08,-6.08,-6.08,-6.0781,-6.0742,-6.0666,-6.0281,-6.0281,-6.0069,-6.0319,-6.1435,-6.1831,-6.1851,-6.1812,-6.1358,-6.0762,-6.0031,-5.9915,-5.9819,-5.9108,-5.8684,-5.8704,-5.8223,-5.753,-5.7203,-5.7088,-5.653,-5.5857,-5.5915,-5.5992,-5.5761,-5.5684,-5.5684,-5.5684,-5.5684,-5.5684,-5.5684,-5.5684,-5.5684,-5.5684,-5.9435,-5.9858,-6.03,-6.0627,-6.08,-6.08,-6.08,-6.08,-6.08,-6.1723,-6.3089,-6.3346,-6.3743,-6.4359,-6.3916,-6.3031,-6.2166,-6.1473,-6.1031,-6.0858,-6.08,-6.08,-6.08,-6.08,-6.08,-6.08,-6.0935,-6.1223,-6.2082,-6.3012,-6.3647,-6.3615,-6.3724,-6.3455,-6.257,-6.212,-6.1697,-6.0858,-6.08,-6.08,-6.08,-6.08,-6.08,-6.08,-6.08,-6.08,-6.08,-6.08,-6.08,-6.08,-6.08,-6.0781,-6.0781,-6.08,-6.08,-6.08,-6.08,-6.08,-6.08,-6.08,-6.08,-6.08,-6.08,-6.08,-6.08,-6.08,-6.08,-6.08,-6.08,-6.08,-6.08,-6.08,-6.08,-6.08,-6.08,-6.08,-6.08,-6.08,-6.08,-6.08,-6.08,-6.0839,-6.0839,-6.1069,-6.1339,-6.1639,-6.1928,-6.2139,-6.2454,-6.2281,-6.1839,-6.1185,-6.0646,-6.0339,-5.9646,-5.9319,-5.9358,-5.8973,-5.8261,-5.8069,-5.7953,-5.7319,-5.6665,-5.6445,-5.6349,-5.6049,-5.5799,-5.5684,-5.5684,-5.5684,-5.5684,-5.5684,-5.5684,-5.5684,-5.5684,-5.8838,-5.9569,-6.0416,-6.08,-6.08,-6.08,-6.08,-6.0723,-6.0396,-6.1185,-6.2704,-6.3147,-6.357,-6.4012,-6.3493,-6.2551,-6.1666,-6.105,-6.0877,-6.0819,-6.08,-6.08,-6.08,-6.08,-6.08,-6.08,-6.08,-6.1127,-6.1716,-6.2704,-6.3281,-6.2993,-6.3128,-6.3185,-6.2274,-6.2024,-6.1647,-6.0839,-6.08,-6.08,-6.08,-6.08,-6.08,-6.08,-6.08,-6.08,-6.08,-6.08,-6.08,-6.08,-6.08,-6.08,-6.08,-6.08,-6.08,-6.08,-6.08,-6.08,-6.08,-6.08,-6.08,-6.08,-6.08,-6.08,-6.08,-6.08,-6.08,-6.08,-6.08,-6.08,-6.08,-6.08,-6.08,-6.08,-6.08,-6.08,-6.08,-6.08,-6.08,-6.08,-6.0935,-6.1204,-6.1396,-6.1973,-6.2262,-6.2608,-6.2762,-6.3012,-6.3243,-6.3147,-6.2724,-6.23,-6.1762,-6.105,-6.0339,-6.0089,-6.005,-5.9569,-5.8992,-5.8646,-5.8377,-5.7934,-5.7492,-5.7165,-5.6753,-5.6222,-5.6011,-5.5953,-5.5742,-5.5684,-5.5684,-5.5684,-5.5722,-5.5818,-5.5857,-5.8204,-5.9685,-6.0473,-6.08,-6.08,-6.08,-6.08,-6.0685,-6.005,-6.0608,-6.2101,-6.2839,-6.3108,-6.3147,-6.307,-6.1993,-6.1223,-6.0916,-6.08,-6.08,-6.08,-6.08,-6.08,-6.08,-6.08,-6.08,-6.08,-6.0819,-6.1012,-6.1973,-6.2454,-6.2339,-6.2762,-6.3339,-6.2358,-6.1839,-6.1435,-6.0954,-6.08,-6.08,-6.08,-6.08,-6.08,-6.08,-6.08,-6.08,-6.08,-6.08,-6.08,-6.08,-6.08,-6.08,-6.08,-6.08,-6.08,-6.08,-6.08,-6.08,-6.08,-6.08,-6.08,-6.08,-6.08,-6.08,-6.08,-6.08,-6.08,-6.0819,-6.0819,-6.08,-6.08,-6.08,-6.08,-6.08,-6.08,-6.0916,-6.0935,-6.0954,-6.0973,-6.1012,-6.1358,-6.1666,-6.1839,-6.2454,-6.3031,-6.3416,-6.3762,-6.4128,-6.4282,-6.3935,-6.357,-6.3243,-6.2839,-6.205,-6.1185,-6.0935,-6.0877,-6.0339,-5.98,-5.9281,-5.8858,-5.8646,-5.828,-5.7761,-5.73,-5.6934,-5.653,-5.6357,-5.6126,-5.5972,-5.5703,-5.5761,-5.6165,-5.6222,-5.6184,-5.9031,-6.0569,-6.0742,-6.0781,-6.0781,-6.0781,-6.08,-6.0762,-6.0627,-6.1166,-6.1851,-6.2159,-6.232,-6.2332,-6.2332,-6.1697,-6.0993,-6.08,-6.08,-6.08,-6.08,-6.08,-6.08,-6.08,-6.08,-6.08,-6.08,-6.08,-6.0954,-6.1262,-6.1339,-6.137,-6.1377,-6.1647,-6.1435,-6.1166,-6.1262,-6.105,-6.0993,-6.0954,-6.0896,-6.0877,-6.08,-6.08,-6.08,-6.08,-6.08,-6.08,-6.08,-6.08,-6.08,-6.08,-6.08,-6.08,-6.08,-6.08,-6.08,-6.08,-6.08,-6.08,-6.08,-6.08,-6.08,-6.08,-6.08,-6.08,-6.0839,-6.0935,-6.0916,-6.08,-6.08,-6.08,-6.08,-6.0839,-6.0858,-6.1223,-6.1447,-6.1524,-6.1601,-6.1897,-6.23,-6.2012,-6.1454,-6.2224,-6.3147,-6.3455,-6.3628,-6.3993,-6.432,-6.4301,-6.4359,-6.4147,-6.3858,-6.3031,-6.2166,-6.1877,-6.1685,-6.1146,-6.0608,-6.0108,-5.9742,-5.9569,-5.9165,-5.855,-5.8242,-5.7953,-5.753,-5.6973,-5.6876,-5.6684,-5.5992,-5.5857,-5.6376,-5.6799,-5.6876]},{"header":{"parameterUnit":"m.s-1","parameterCategory":1,"la1":31.0,"la2":29.5877,"lo1":-88.7671,"lo2":-86.6584,"dy":0.0162,"dx":0.0185,"nx":115,"ny":88,"refTime":"2024-02-21T06:00:00:Z","depth":0,"parameterNumber":3,"parameterNumberName":"V-component_of_WINDS"},"data":[0.0,0.0,0.0,0.0,0.0,0.0,0.0,0.0,0.0,0.0,0.0,0.0,0.0,0.0,0.0,0.0,0.0,0.0,0.0,0.0,0.0,0.0,0.0,0.0,0.0,0.0,0.0,0.0,0.0,0.0,0.0,0.0,0.0,0.0,0.0,0.0,0.0,0.0,0.0,0.0,0.0,0.0,0.0,0.0,0.0,0.0,0.0,0.0,0.0,0.0,0.0,0.0,0.0,0.0,0.0,0.0,0.0,0.0,0.0,0.0,0.0,0.0,0.0,0.0,0.0,0.0,0.0,0.0,0.0,0.0,0.0,0.0,0.0,0.0,0.0,0.0,0.0,0.0,0.0,0.0,0.0,0.0,0.0,0.0,0.0,0.0,0.0,0.0,0.0,0.0,0.0,0.0,0.0,0.0,0.0,0.0,0.0,0.0,0.0,0.0,0.0,0.0,0.0,0.0,0.0,0.0,0.0,0.0,0.0,0.0,0.0,0.0,0.0,0.0,0.0,0.0,0.0,0.0,0.0,0.0,0.0,0.0,0.0,0.0,0.0,0.0,0.0,0.0,0.0,0.0,0.0,0.0,0.0,0.0,0.0,0.0,0.0,0.0,0.0,0.0,0.0,0.0,0.0,0.0,0.0,0.0,0.0,0.0,0.0,0.0,0.0,0.0,0.0,0.0,0.0,0.0,0.0,0.0,0.0,0.0,0.0,0.0,0.0,0.0,0.0,0.0,0.0,0.0,0.0,0.0,0.0,0.0,0.0,0.0,0.0,0.0,0.0,0.0,0.0,0.0,0.0,0.0,0.0,0.0,0.0,0.0,0.0,0.0,0.0,0.0,0.0,0.0,0.0,0.0,0.0,0.0,0.0,0.0,0.0,0.0,0.0,0.0,0.0,0.0,0.0,0.0,0.0,0.0,0.0,0.0,0.0,0.0,0.0,0.0,0.0,0.0,0.0,0.0,0.0,0.0,0.0,0.0,0.0,0.0,0.0,0.0,0.0,0.0,0.0,0.0,0.0,0.0,0.0,0.0,0.0,0.0,0.0,0.0,0.0,0.0,0.0,0.0,0.0,0.0,0.0,0.0,0.0,0.0,0.0,0.0,0.0,0.0,0.0,0.0,0.0,0.0,0.0,0.0,0.0,0.0,0.0,0.0,0.0,0.0,0.0,0.0,0.0,0.0,0.0,0.0,0.0,0.0,0.0,0.0,0.0,0.0,0.0,0.0,0.0,0.0,0.0,0.0,0.0,0.0,0.0,0.0,0.0,0.0,0.0,0.0,0.0,0.0,0.0,0.0,0.0,0.0,0.0,0.0,0.0,0.0,0.0,0.0,0.0,0.0,0.0,0.0,0.0,0.0,0.0,0.0,0.0,0.0,0.0,0.0,0.0,0.0,0.0,0.0,0.0,0.0,0.0,0.0,0.0,0.0,0.0,0.0,0.0,0.0,0.0,0.0,0.0,0.0,0.0,0.0,0.0,0.0,0.0,0.0,0.0,0.0,0.0,0.0,0.0,0.0,0.0,0.0,0.0,0.0,0.0,0.0,0.0,0.0,0.0,0.0,0.0,0.0,0.0,0.0,0.0,0.0,0.0,0.0,0.0,0.0,0.0,0.0,0.0,0.0,0.0,0.0,0.0,0.0,0.0,0.0,0.0,0.0,0.0,0.0,0.0,0.0,0.0,0.0,0.0,0.0,0.0,0.0,0.0,0.0,0.0,0.0,0.0,0.0,0.0,0.0,0.0,0.0,0.0,0.0,0.0,0.0,0.0,0.0,0.0,0.0,0.0,0.0,0.0,0.0,0.0,0.0,0.0,0.0,0.0,0.0,0.0,0.0,0.0,0.0,0.0,0.0,0.0,0.0,0.0,0.0,0.0,0.0,0.0,0.0,0.0,0.0,0.0,0.0,0.0,0.0,0.0,0.0,0.0,0.0,0.0,0.0,0.0,0.0,0.0,0.0,0.0,0.0,0.0,0.0,0.0,0.0,0.0,0.0,0.0,0.0,0.0,0.0,0.0,0.0,0.0,0.0,0.0,0.0,0.0,0.0,0.0,0.0,0.0,0.0,0.0,0.0,0.0,0.0,0.0,0.0,0.0,0.0,0.0,0.0,0.0,0.0,0.0,0.0,0.0,0.0,0.0,0.0,0.0,0.0,0.0,0.0,0.0,0.0,0.0,0.0,0.0,0.0,0.0,0.0,0.0,0.0,0.0,0.0,0.0,0.0,0.0,0.0,0.0,0.0,0.0,0.0,0.0,0.0,0.0,0.0,0.0,0.0,0.0,0.0,0.0,0.0,0.0,0.0,0.0,0.0,0.0,0.0,0.0,0.0,0.0,0.0,0.0,0.0,0.0,0.0,0.0,0.0,0.0,0.0,0.0,0.0,0.0,0.0,0.0,0.0,0.0,0.0,0.0,0.0,0.0,0.0,0.0,0.0,0.0,0.0,0.0,0.0,0.0,0.0,0.0,0.0,0.0,0.0,0.0,0.0,0.0,0.0,0.0,0.0,0.0,0.0,0.0,0.0,0.0,0.0,0.0,0.0,0.0,0.0,0.0,0.0,0.0,0.0,0.0,0.0,0.0,0.0,0.0,0.0,0.0,0.0,0.0,0.0,0.0,0.0,0.0,0.0,0.0,0.0,0.0,0.0,0.0,0.0,0.0,0.0,0.0,0.0,0.0,0.0,0.0,0.0,0.0,0.0,0.0,0.0,0.0,0.0,0.0,0.0,0.0,0.0,0.0,0.0,0.0,0.0,0.0,0.0,0.0,0.0,0.0,0.0,0.0,0.0,0.0,0.0,0.0,0.0,0.0,0.0,0.0,0.0,0.0,0.0,0.0,0.0,0.0,0.0,0.0,0.0,0.0,0.0,0.0,0.0,0.0,0.0,0.0,0.0,0.0,0.0,0.0,0.0,0.0,0.0,0.0,0.0,0.0,0.0,0.0,0.0,0.0,0.0,0.0,0.0,0.0,0.0,0.0,0.0,0.0,0.0,0.0,0.0,0.0,0.0,0.0,0.0,0.0,0.0,0.0,0.0,0.0,0.0,0.0,0.0,0.0,0.0,0.0,0.0,0.0,0.0,0.0,0.0,0.0,0.0,0.0,0.0,0.0,0.0,0.0,0.0,0.0,0.0,0.0,0.0,0.0,0.0,0.0,0.0,0.0,0.0,0.0,0.0,0.0,0.0,0.0,0.0,0.0,0.0,0.0,0.0,0.0,0.0,0.0,0.0,0.0,0.0,0.0,0.0,0.0,0.0,0.0,0.0,0.0,0.0,0.0,0.0,0.0,0.0,0.0,0.0,0.0,0.0,0.0,0.0,0.0,0.0,0.0,0.0,0.0,0.0,0.0,0.0,0.0,0.0,0.0,0.0,0.0,0.0,0.0,0.0,0.0,0.0,0.0,0.0,0.0,0.0,0.0,0.0,0.0,0.0,0.0,0.0,0.0,0.0,0.0,0.0,0.0,0.0,0.0,0.0,0.0,0.0,0.0,0.0,0.0,0.0,0.0,0.0,0.0,0.0,0.0,0.0,0.0,0.0,0.0,0.0,0.0,0.0,0.0,0.0,0.0,0.0,0.0,0.0,0.0,0.0,0.0,0.0,0.0,0.0,0.0,0.0,0.0,0.0,0.0,0.0,0.0,0.0,0.0,0.0,0.0,0.0,0.0,0.0,0.0,0.0,0.0,0.0,0.0,0.0,0.0,0.0,0.0,0.0,0.0,0.0,0.0,0.0,0.0,0.0,0.0,0.0,0.0,0.0,0.0,0.0,0.0,0.0,0.0,0.0,0.0,0.0,0.0,0.0,0.0,0.0,0.0,0.0,0.0,0.0,0.0,0.0,0.0,0.0,0.0,0.0,0.0,0.0,0.0,0.0,0.0,0.0,0.0,0.0,0.0,0.0,0.0,0.0,0.0,0.0,0.0,0.0,0.0,0.0,0.0,0.0,0.0,0.0,0.0,0.0,0.0,0.0,0.0,0.0,0.0,0.0,0.0,0.0,0.0,0.0,0.0,0.0,0.0,0.0,0.0,0.0,0.0,0.0,0.0,0.0,0.0,0.0,0.0,0.0,0.0,0.0,0.0,0.0,0.0,0.0,0.0,0.0,0.0,0.0,0.0,0.0,0.0,0.0,0.0,0.0,0.0,0.0,0.0,0.0,0.0,0.0,0.0,0.0,0.0,0.0,0.0,0.0,0.0,0.0,0.0,0.0,0.0,0.0,0.0,0.0,0.0,0.0,0.0,0.0,0.0,0.0,0.0,0.0,0.3591,0.0,0.0,0.0,0.0,0.0,0.0,0.0,0.0,0.0,0.0,0.0,0.0,0.0,0.0,0.0,0.0,0.0,0.0,0.0,0.0,0.0,0.0,0.0,0.0,0.0,0.0,0.0,0.0,0.0,0.0,0.0,0.0,0.0,0.0,0.0,0.0,0.0,0.0,0.0,0.0,0.0,0.0,0.0,0.0,0.0,0.0,0.0,0.0,0.0,0.0,0.0,0.0,0.0,0.0,0.0,0.0,0.0,0.0,0.0,0.0,0.0,0.0,0.0,0.0,0.0,0.0,0.0,0.0,0.0,0.0,0.0,0.0,0.0,0.0,0.0,0.0,0.0,0.0,0.0,0.0,0.0,0.0,0.0,0.0,0.0,0.0,0.0,0.0,0.0,0.0,0.0,0.0,0.0,0.0,0.0,0.0,0.0,0.0,0.0,0.0,0.0,0.0,0.0,0.0,0.0,0.0,0.0,0.0,0.0,0.0,0.2865,0.3043,0.3401,0.36,0.36,0.0,0.0,0.0,0.0,0.0,0.0,0.0,0.0,0.0,0.0,0.0,0.0,0.0,0.0,0.0,0.0,0.0,0.0,0.0,0.0,0.0,0.0,0.0,0.0,0.0,0.0,0.0,0.0,0.0,0.0,0.0,0.0,0.0,0.0,0.0,0.0,0.0,0.0,0.0,0.0,0.0,0.0,0.0,0.0,0.0,0.0,0.0,0.0,0.0,0.0,0.0,0.0,0.0,0.0,0.0,0.0,0.0,0.0,0.0,0.0,0.0,0.0,0.0,0.0,0.0,0.0,0.0,0.0,0.0,0.0,0.0,0.0,0.0,0.0,0.0,0.0,0.0,0.0,0.0,0.0,0.0,0.0,0.0,0.0,0.0,0.0,0.0,0.0,0.0,0.0,0.0,0.0,0.0,0.0,0.0,0.0,0.0,0.0,0.0,0.0,0.0,0.0,0.0,0.0,0.0,0.0,0.0,0.0,0.0,0.0,0.0,0.0,0.3427,0.3648,0.3651,0.0,0.0,0.0,0.0,0.0,0.0,0.0,0.0,0.0,0.0,0.0,0.0,0.0,0.0,0.0,0.0,0.0,0.0,0.0,0.0,0.0,0.0,0.0,0.0,0.0,0.0,0.0,0.0,0.0,0.0,0.0,0.0,0.0,0.0,0.0,0.0,0.0,0.0,0.0,0.0,0.0,0.0,0.0,0.0,0.0,0.0,0.0,0.0,0.0,0.0,0.0,0.0,0.0,0.0,0.0,0.0,0.0,0.0,0.0,0.0,0.0,0.0,0.0,0.0,0.0,0.0,0.0,0.0,0.0,0.0,0.0,0.0,0.0,0.0,0.0,0.0,0.0,0.0,0.0,0.0,0.0,0.0,0.0,0.0,0.0,0.0,0.0,0.0,0.0,0.0,0.0,0.0,0.0,0.0,0.0,0.0,0.0,0.0,0.0,0.0,0.0,0.0,0.0,0.0,0.0,0.0,0.0,0.0,0.0,0.0,0.3078,0.3518,0.3681,0.0,0.3788,0.0,0.0,0.0,0.0,0.0,0.0,0.0,0.0,0.0,0.0,0.0,0.0,0.0,0.0,0.0,0.0,0.0,0.0,0.0,0.0,0.0,0.0,0.0,0.0,0.0,0.0,0.0,0.0,0.0,0.0,0.0,0.0,0.0,0.0,0.0,0.0,0.0,0.0,0.0,0.0,0.0,0.0,0.0,0.0,0.0,0.0,0.0,0.0,0.0,0.0,0.0,0.0,0.0,0.0,0.0,0.0,0.0,0.0,0.0,0.0,0.0,0.0,0.0,0.0,0.0,0.0,0.0,0.0,0.0,0.0,0.0,0.0,0.0,0.0,0.0,0.0,0.0,0.0,0.0,0.0,0.0,0.0,0.0,0.0,0.0,0.0,0.0,0.0,0.0,0.0,0.0,0.0,0.0,0.0,0.0,0.0,0.0,0.0,0.0,0.0,0.0,0.0,0.0,0.0,0.0,0.0,0.0,0.0,0.0,0.0,0.3091,0.3459,0.3795,0.3882,0.0,0.0,0.0,0.0,0.0,0.0,0.0,0.0,0.0,0.0,0.0,0.0,0.0,0.0,0.0,0.0,0.0,0.0,0.0,0.0,0.0,0.0,0.0,0.0,0.0,0.0,0.0,0.0,0.0,0.0,0.0,0.0,0.0,0.0,0.0,0.0,0.0,0.0,0.0,0.0,0.0,0.0,0.0,0.0,0.0,0.0,0.0,0.0,0.0,0.0,0.0,0.0,0.0,0.0,0.0,0.0,0.0,0.0,0.0,0.0,0.0,0.0,0.0,0.0,0.0,0.0,0.0,0.0,0.0,0.0,0.0,0.0,0.0,0.0,0.0,0.0,0.0,0.0,0.0,0.0,0.0,0.0,0.0,0.0,0.0,0.0,0.0,0.0,0.0,0.0,0.0,0.0,0.0,0.0,0.0,0.0,0.0,0.0,0.0,0.0,0.0,0.0,0.0,0.0,0.0,0.0,0.0,0.0,0.0,0.0,0.2744,0.3105,0.3517,0.3895,0.3965,0.3681,0.0,0.0,0.0,0.0,0.0,0.0,0.0,0.0,0.0,0.0,0.0,0.0,0.0,0.0,0.0,0.0,0.0,0.0,0.0,0.0,0.0,0.0,0.0,0.0,0.0,0.0,0.0,0.0,0.0,0.0,0.0,0.0,0.0,0.0,0.0,0.0,0.0,0.0,0.0,0.0,0.0,0.0,0.0,0.0,0.0,0.0,0.0,0.0,0.0,0.0,0.0,0.0,0.0,0.0,0.0,0.0,0.0,0.0,0.0,0.0,0.0,0.0,0.0,0.0,0.0,0.0,0.0,0.0,0.0,0.0,0.0,0.0,0.0,0.0,0.0,0.0,0.0,0.0,0.0,0.0,0.0,0.0,0.0,0.0,0.0,0.0,0.0,0.0,0.0,0.0,0.0,0.0,0.0,0.0,0.0,0.0,0.0,0.0,0.0,0.0,0.0,0.0,0.0,0.0,0.0,0.0,0.0,0.0,0.267,0.2894,0.325,0.3768,0.4003,0.401,0.0,0.0,0.0,0.0,0.0,0.0,0.0,0.0,0.0,0.0,0.0,0.0,0.0,0.0,0.0,0.0,0.0,0.0,0.0,0.0,0.0,0.0,0.0,0.0,0.0,0.0,0.0,0.0,0.0,0.0,0.0,0.0,0.0,0.0,0.0,0.0,0.0,0.0,0.0,0.0,0.0,0.0,0.0,0.0,0.0,0.0,0.0,0.0,0.0,0.0,0.0,0.0,0.0,0.0,0.0,0.0,0.0,0.0,0.0,0.0,0.0,0.0,0.0,0.0,0.0,0.0,0.0,0.0,0.0,0.0,0.0,0.0,0.0,0.0,0.0,0.0,0.0,0.0,0.0,0.0,0.0,0.0,0.0,0.0,0.0,0.0,0.0,0.0,0.0,0.0,0.0,0.0,0.0,0.0,0.0,0.0,0.0,0.0,0.0,0.0,0.0,0.0,0.0,0.0,0.0,0.0,0.0,0.0,0.0,0.2582,0.3108,0.3465,0.3672,0.4172,0.419,0.0,0.0,0.0,0.0,0.0,0.0,0.0,0.0,0.0,0.0,0.0,0.0,0.0,0.0,0.0,0.0,0.0,0.0,0.0,0.0,0.0,0.0,0.0,0.0,0.0,0.0,0.0,0.0,0.0,0.0,0.0,0.0,0.0,0.0,0.0,0.0,0.0,0.0,0.0,0.0,0.0,0.0,0.0,0.0,0.0,0.0,0.0,0.0,0.0,0.0,0.0,0.0,0.0,0.0,0.0,0.0,0.0,0.0,0.0,0.0,0.0,0.0,0.0,0.0,0.0,0.0,0.0,0.0,0.0,0.0,0.0,0.0,0.0,0.0,0.0,0.0,0.0,0.0,0.0,0.0,0.0,0.0,0.0,0.0,0.0,0.0,0.0,0.0,0.0,0.0,0.0,0.0,0.0,0.0,0.0,0.0,0.0,0.0,0.0,0.0,0.0,0.0,0.0,0.0,0.0,0.0,0.0,0.0,0.0,0.2843,0.0,0.3689,0.3663,0.4096,0.4162,0.0,0.0,0.0,0.0,0.0,0.0,0.0,0.0,0.0,0.0,0.0,0.0,0.0,0.0,0.0,0.0,0.0,0.0,0.0,0.0,0.0,0.0,0.0,0.0,0.0,0.0,0.0,0.0,0.0,0.0,0.0,0.0,0.0,0.0,0.0,0.0,0.0,0.0,0.0,0.0,0.0,0.0,0.0,0.0,0.0,0.0,0.0,0.0,0.0,0.0,0.0,0.0,0.0,0.0,0.0,0.0,0.0,0.0,0.0,0.0,0.0,0.0,0.0,0.0,0.0,0.0,0.0,0.0,0.0,0.0,0.0,0.0,0.0,0.0,0.0,0.0,0.0,0.0,0.0,0.0,0.0,0.0,0.0,0.0,0.0,0.0,0.0,0.0,0.0,0.0,0.0,0.0,0.0,0.0,0.0,0.0,0.0,0.0,0.0,0.0,0.0,0.0,0.0,0.0,0.0,0.0,0.0,0.0,0.2996,0.3556,0.3796,0.3836,0.3704,0.3862,0.3928,0.0,0.0,0.0,0.0,0.0,0.0,0.0,0.0,0.0,0.0,0.0,0.0,0.0,0.0,0.0,0.0,0.0,0.0,0.0,0.0,0.0,0.0,0.0,0.0,0.0,0.0,0.0,0.0,0.0,0.0,0.0,0.0,0.0,0.0,0.0,0.0,0.0,0.0,0.0,0.0,0.0,0.0,0.0,0.0,0.0,0.0,0.0,0.0,0.0,0.0,0.0,0.0,0.0,0.0,0.0,0.0,0.0,0.0,0.0,0.0,0.0,0.0,0.0,0.0,0.0,0.0,0.0,0.0,0.0,0.0,0.0,0.0,0.0,0.0,0.0,0.0,0.0,0.0,0.0,0.0,0.0,0.0,0.0,0.0,0.0,0.0,0.0,0.0,0.0,0.0,0.0,0.0,0.0,0.0,0.0,0.0,0.0,0.0,0.0,0.0,0.0,0.0,0.0,0.0,0.0,0.0,0.0,0.0,0.0,0.3464,0.3751,0.4017,0.4302,0.4315,0.4333,0.0,0.0,0.0,0.0,0.0,0.0,0.0,0.0,0.0,0.0,0.0,0.0,0.0,0.0,0.0,0.0,0.0,0.0,0.0,0.0,0.0,0.0,0.0,0.0,0.0,0.0,0.0,0.0,0.0,0.0,0.0,0.0,0.0,0.0,0.0,0.0,0.0,0.0,0.0,0.0,0.0,0.0,0.0,0.0,0.0,0.0,0.0,0.0,0.0,0.0,0.0,0.0,0.0,0.0,0.0,0.0,0.0,0.0,0.0,0.0,0.0,0.0,0.0,0.0,0.0,0.0,0.0,0.0,0.0,0.0,0.0,0.0,0.0,0.0,0.0,0.0,0.0,0.0,0.0,0.0,0.0,0.0,0.0,0.0,0.0,0.0,0.0,0.0,0.0,0.0,0.0,0.0,0.0,0.0,0.0,0.0,0.0,0.0,0.0,0.0,0.0,0.0,0.0,0.0,0.0,0.0,0.0,0.0,0.0,0.4281,0.4618,0.4862,0.4978,0.5179,0.5065,0.4639,0.0,0.0,0.0,0.0,0.0,0.0,0.0,0.0,0.0,0.0,0.0,0.0,0.0,0.0,0.0,0.0,0.0,0.0,0.0,0.0,0.0,0.0,0.0,0.0,0.0,0.0,0.0,0.0,0.0,0.0,0.0,0.0,0.0,0.0,0.0,0.0,0.0,0.0,0.0,0.0,0.0,0.0,0.0,0.0,0.0,0.0,0.0,0.0,0.0,0.0,0.0,0.0,0.0,0.0,0.0,0.0,0.0,0.0,0.0,0.0,0.0,0.0,0.0,0.0,0.0,0.0,0.0,0.0,0.0,0.0,0.0,0.0,0.0,0.0,0.0,0.0,0.0,0.0,0.0,0.0,0.0,0.0,0.0,0.0,0.0,0.0,0.0,0.0,0.0,0.0,0.0,0.0,0.0,0.0,0.0,0.0,0.0,0.0,0.0,0.0,0.0,0.0,0.0,0.0,0.0,0.0,0.0,0.0,0.5864,0.6261,0.6241,0.5822,0.6312,0.6002,0.0,0.0,0.0,0.0,0.0,0.0,0.0,0.0,0.0,0.0,0.0,0.0,0.0,0.0,0.0,0.0,0.0,0.0,0.0,0.0,0.0,0.0,0.0,0.0,0.0,0.0,0.0,0.0,0.0,0.0,0.0,0.0,0.0,0.0,0.0,0.0,0.0,0.0,0.0,0.0,0.0,0.0,0.0,0.0,0.0,0.0,0.0,0.0,0.0,0.0,0.0,0.0,0.0,0.0,0.0,0.0,0.0,0.0,0.0,0.0,0.0,0.0,0.0,0.0,0.0,0.0,0.0,0.0,0.0,0.0,0.0,0.0,0.0,0.0,0.0,0.0,0.0,0.0,0.0,0.0,0.0,0.0,0.0,0.0,0.0,0.0,0.0,0.0,0.0,0.0,0.0,0.0,0.0,0.0,0.0,0.0,0.0,0.0,0.0,0.0,0.0,0.0,0.0,0.0,0.0,0.0,0.0,0.0,0.0,0.6736,0.775,0.8142,0.7874,0.7007,0.6651,0.0,0.0,0.0,0.0,0.0,0.0,0.0,0.0,0.0,0.0,0.0,0.0,0.0,0.0,0.0,0.0,0.0,0.0,0.0,0.0,0.0,0.0,0.0,0.0,0.0,0.0,0.0,0.0,0.0,0.0,0.0,0.0,0.0,0.0,0.0,0.0,0.0,0.0,0.0,0.0,0.0,0.0,0.0,0.0,0.0,0.0,0.0,0.0,0.0,0.0,0.0,0.0,0.0,0.0,0.0,0.0,0.0,0.0,0.0,0.0,0.0,0.0,0.0,0.0,0.0,0.0,0.0,0.0,0.0,0.0,0.0,0.0,0.0,0.0,0.0,0.0,0.0,0.0,0.0,0.0,0.0,0.0,0.0,0.0,0.0,0.0,0.0,0.0,0.0,0.0,0.0,0.0,0.0,0.0,0.0,0.0,0.0,0.0,0.0,0.0,0.0,0.0,0.0,0.0,0.0,0.0,0.0,0.0,0.6064,0.744,0.852,0.9468,1.0318,0.8719,0.7777,0.0,0.0,0.0,0.0,0.0,0.0,0.0,0.0,0.0,0.0,0.0,0.0,0.0,0.0,0.0,0.0,0.0,0.0,0.0,0.0,0.0,0.0,0.0,0.0,0.0,0.0,0.0,0.0,0.0,0.0,0.0,0.0,0.0,0.0,0.0,0.0,0.0,0.0,0.0,0.0,0.0,0.0,0.0,0.0,0.0,0.0,0.0,0.0,0.0,0.0,0.0,0.0,0.0,0.0,0.0,0.0,0.0,0.0,0.0,0.0,0.0,0.0,0.0,0.0,0.0,0.0,0.0,0.0,0.0,0.0,0.0,0.0,0.0,0.0,0.0,0.0,0.0,0.0,0.0,0.0,0.0,0.0,0.0,0.0,0.0,0.0,0.0,0.0,0.0,0.0,0.0,0.0,0.0,0.0,0.0,0.0,0.0,0.0,0.0,0.0,0.0,0.0,0.0,0.0,0.0,0.0,0.0,0.0,0.6683,0.7989,0.8783,1.0297,1.2433,1.0689,0.91,0.0,0.0,0.0,0.0,0.0,0.0,0.0,0.0,0.0,0.0,0.0,0.0,0.0,0.0,0.0,0.0,0.0,0.0,0.0,0.0,0.0,0.0,0.0,0.0,0.0,0.0,0.0,0.0,0.0,0.0,0.0,0.0,0.0,0.0,0.0,0.0,0.0,0.0,0.0,0.0,0.0,0.0,0.0,0.0,0.0,0.0,0.0,0.0,0.0,0.0,0.0,0.0,0.0,0.0,0.0,0.0,0.0,0.0,0.0,0.0,0.0,0.0,0.0,0.0,0.0,0.0,0.0,0.0,0.0,0.0,0.0,0.0,0.0,0.0,0.0,0.0,0.0,0.0,0.0,0.0,0.0,0.0,0.0,0.0,0.0,0.0,0.0,0.0,0.0,0.0,0.0,0.0,0.0,0.0,0.0,0.0,0.0,0.0,0.0,0.0,0.0,0.0,0.0,0.0,0.0,0.0,0.0,0.0,0.6919,0.8117,0.895,1.0402,1.2529,1.0469,0.9547,0.0,0.0,0.0,0.0,0.0,0.0,0.0,0.0,0.0,0.0,0.0,0.0,0.0,0.0,0.0,0.0,0.0,0.0,0.0,0.0,0.0,0.0,0.0,0.0,0.0,0.0,0.0,0.0,0.0,0.0,0.0,0.0,0.0,0.0,0.0,0.0,0.0,0.0,0.0,0.0,0.0,0.0,0.0,0.0,0.0,0.0,0.0,0.0,0.2507,0.0,0.0,0.0,0.0,0.0,0.0,0.0,0.0,0.0,0.0,0.0,0.0,0.0,0.0,0.0,0.0,0.0,0.0,0.0,0.0,0.0,0.0,0.0,0.0,0.0,0.0,0.0,0.0,0.0,0.0,0.0,0.0,0.0,0.0,0.0,0.0,0.0,0.0,0.0,0.0,0.0,0.0,0.0,0.0,0.0,0.0,0.0,0.0,0.0,0.0,0.0,0.0,0.0,0.0,0.0,0.0,0.0,0.0,0.0,0.6999,0.7922,0.889,1.0348,1.2177,1.0751,1.014,0.0,0.0,0.0,0.0,0.0,0.0,0.0,0.0,0.0,0.0,0.0,0.0,0.0,0.0,0.0,0.0,0.0,0.0,0.0,0.0,0.0,0.0,0.0,0.0,0.0,0.0,0.0,0.0,0.0,0.0,0.0,0.0,0.0,0.0,0.0,0.0,0.0,0.0,0.0,0.0,0.0,0.0,0.0,0.0,0.0,0.0,0.0,0.0,0.0,0.0,0.0,0.0,0.0,0.0,0.0,0.0,0.0,0.0,0.0,0.0,0.0,0.0,0.0,0.0,0.0,0.0,0.0,0.0,0.0,0.0,0.0,0.0,0.0,0.0,0.0,0.0,0.0,0.0,0.0,0.0,0.0,0.0,0.0,0.0,0.0,0.0,0.0,0.0,0.0,0.0,0.0,0.0,0.0,0.0,0.0,0.0,0.0,0.0,0.0,0.0,0.0,0.0,0.0,0.0,0.0,0.0,0.0,0.6439,0.7022,0.7727,0.8778,1.0177,1.1917,1.1136,1.0688,1.0656,0.0,0.0,0.0,0.0,0.0,0.0,0.0,0.0,0.0,0.0,0.0,0.0,0.0,0.0,0.0,0.0,0.0,0.0,0.0,0.0,0.0,0.0,0.0,0.0,0.0,0.0,0.0,0.0,0.0,0.0,0.0,0.0,0.0,0.0,0.0,0.0,0.0,0.0,0.2283,0.2121,0.0,0.0,0.0,0.0,0.0,0.0,0.0,0.0,0.2297,0.0,0.0,0.0,0.0,0.0,0.0,0.0,0.0,0.0,0.0,0.0,0.0,0.0,0.0,0.0,0.0,0.0,0.0,0.0,0.0,0.0,0.0,0.0,0.0,0.0,0.0,0.0,0.0,0.0,0.0,0.0,0.0,0.0,0.0,0.0,0.0,0.0,0.0,0.0,0.0,0.0,0.0,0.0,0.0,0.0,0.0,0.0,0.0,0.0,0.0,0.0,0.0,0.0,0.0,0.0,0.0,0.6015,0.6369,0.6976,0.7835,0.8624,0.984,1.1565,1.0903,1.0677,1.0981,0.0,0.0,0.0,0.0,0.0,0.0,0.0,0.0,0.0,0.0,0.0,0.0,0.0,0.0,0.0,0.0,0.0,0.0,0.0,0.0,0.0,0.0,0.0,0.0,0.0,0.0,0.0,0.0,0.0,0.0,0.0,0.0,0.0,0.0,0.0,0.0,0.0,0.0,0.0,0.1182,0.1136,0.0,0.0,0.0,0.0,0.0,0.0,0.0,0.0,0.2052,0.0,0.0,0.0,0.0,0.0,0.0,0.0,0.0,0.0,0.0,0.0,0.0,0.0,0.0,0.0,0.0,0.0,0.0,0.0,0.0,0.0,0.0,0.0,0.0,0.0,0.0,0.0,0.0,0.0,0.0,0.0,0.0,0.0,0.0,0.0,0.0,0.0,0.0,0.0,0.0,0.0,0.0,0.0,0.0,0.0,0.0,0.0,0.0,0.0,0.0,0.0,0.0,0.0,0.0,0.0,0.6227,0.6474,0.6871,0.7515,0.8454,0.9448,1.0356,1.0119,1.0014,0.0,0.0,0.0,0.0,0.0,0.0,0.0,0.0,0.0,0.0,0.0,0.0,0.0,0.0,0.0,0.0,0.0,0.0,0.0,0.0,0.0,0.0,0.0,0.0,0.0,0.0,0.0,0.0,0.0,0.0,0.0,0.0,0.0,0.0,0.0,0.0,0.0,0.0,0.0,0.0,0.0893,0.0893,0.0146,0.0,0.0,0.0,0.0,0.0,0.0,0.1677,0.1845,0.0,0.0,0.0,0.0,0.0,0.0,0.0,0.0,0.0,0.0,0.0,0.0,0.0,0.0,0.0,0.0,0.0,0.0,0.0,0.0,0.0,0.0,0.0,0.0,0.0,0.0,0.0,0.0,0.0,0.0,0.0,0.0,0.0,0.0,0.0,0.0,0.0,0.0,0.0,0.0,0.0,0.0,0.0,0.0,0.0,0.0,0.0,0.0,0.0,0.0,0.0,0.0,0.0,0.0,0.0,0.638,0.6548,0.6743,0.7119,0.8275,0.9027,0.9297,0.9296,0.9299,0.0,0.0,0.0,0.0,0.0,0.0,0.0,0.0,0.0,0.0,0.0,0.0,0.0,0.0,0.0,0.0,0.0,0.0,0.0,0.0,0.0,0.0,0.0,0.0,0.0,0.0,0.0,0.0,0.0,0.0,0.0,0.0,0.0,0.0,0.0,0.0,0.0,0.0,0.0,0.0,0.0,0.0554,-0.016,0.0701,0.0,0.0,0.0,0.0,0.1663,0.1532,0.0,0.0,0.0,0.0,0.0,0.0,0.0,0.0,0.0,0.0,0.0,0.0,0.0,0.0,0.0,0.0,0.0,0.0,0.0,0.0,0.0,0.0,0.0,0.0,0.0,0.0,0.0,0.0,0.0,0.0,0.0,0.0,0.0,0.0,0.0,0.0,0.0,0.0,0.0,0.0,0.0,0.0,0.0,0.0,0.0,0.0,0.0,0.0,0.0,0.0,0.0,0.0,0.0,0.0,0.0,0.0,0.6046,0.624,0.651,0.6962,0.7842,0.864,0.9279,0.8681,0.8709,0.0,0.0,0.0,0.0,0.0,0.0,0.0,0.0,0.0,0.0,0.0,0.0,0.0,0.0,0.0,0.0,0.0,0.0,0.0,0.0,0.0,0.0,0.0,0.0,0.0,0.0,0.0,0.0,0.0,0.0,0.0,0.0,0.0,0.0,0.0,0.0,0.0,0.0,0.0,0.0,0.0,-0.0132,-0.0129,0.0268,0.071,0.0,0.0,0.1144,0.0958,0.0866,0.0,0.0,0.0,0.0,0.0,0.0,0.0,0.0,0.0,0.0,0.0,0.0,0.0,0.0,0.0,0.0,0.0,0.0,0.0,0.0,0.0,0.0,0.0,0.0,0.0,0.0,0.0,0.0,0.0,0.0,0.0,0.0,0.0,0.0,0.0,0.0,0.0,0.0,0.0,0.0,0.0,0.0,0.0,0.0,0.0,0.0,0.0,0.0,0.0,0.0,0.0,0.0,0.0,0.0,0.0,0.5606,0.5986,0.6103,0.6362,0.6776,0.7419,0.7904,0.8226,0.774,0.7678,0.0,0.0,0.0,0.0,0.0,0.0,0.0,0.0,0.0,0.0,0.0,0.0,0.0,0.0,0.0,0.0,0.0,0.0,0.0,0.0,0.0,0.0,0.0,0.0,0.0,0.0,0.0,0.0,0.0,0.0,0.0,0.0,0.0,0.0,0.0,0.0,0.0,0.0,0.0,0.0,0.0,0.0,0.0068,0.0502,0.0,0.0,0.0,0.1203,0.1253,0.0,0.0,0.0,0.0,0.0,0.0,0.0,0.0,0.0,0.0,0.0,0.0,0.0,0.0,0.0,0.0,0.0,0.0,0.0,0.0,0.0,0.0,0.0,0.0,0.0,0.0,0.0,0.0,0.0,0.0,0.0,0.0,0.0,0.0,0.0,0.0,0.0,0.0,0.0,0.0,0.0,0.0,0.0,0.0,0.0,0.0,0.0,0.0,0.0,0.0,0.0,0.0,0.0,0.0,0.0,0.0,0.0,0.5996,0.6023,0.621,0.6573,0.7027,0.7251,0.7225,0.7012,0.0,0.0,0.0,0.0,0.0,0.0,0.0,0.0,0.0,0.0,0.0,0.0,0.0,0.0,0.0,0.0,0.0,0.0,0.0,0.0,0.0,0.0,0.0,0.0,0.0,0.0,0.0,0.3759,0.0,0.0,0.0,0.0,0.0,0.0,0.0,0.0,0.0,0.0,0.0,0.0,0.0,0.0,-0.015,0.0144,0.0422,0.0678,0.0,0.0,0.1221,0.1302,0.0884,0.0834,0.0,0.0,0.0,0.0,0.0,0.0,0.0,0.0,0.0,0.0,0.0,0.0,0.0,0.0,0.0,0.0,0.0,0.0,0.0,0.0,0.0,0.0,0.0,0.0,0.0,0.0,0.0,0.0,0.0,0.0,0.0,0.0,0.0,0.0,0.0,0.0,0.0,0.0,0.0,0.0,0.0,0.0,0.0,0.0,0.0,0.0,0.0,0.0,0.0,0.0,0.0,0.0,0.0,0.0,0.5618,0.6062,0.6023,0.6112,0.632,0.6747,0.6816,0.6641,0.6812,0.6905,0.0,0.0,0.0,0.0,0.0,0.0,0.0,0.0,0.0,0.0,0.0,0.0,0.0,0.0,0.0,0.0,0.0,0.0,0.0,0.0,0.0,0.0,0.0,0.0,0.0,0.0,0.0,0.0,0.0,0.0,0.0,0.0,0.0,0.0,0.0,0.0,0.0,0.0,0.0,0.0,0.0,-0.1473,0.0,-0.0571,-0.0737,0.0,0.0,0.1068,0.0622,0.0298,0.0401,0.1379,0.0,0.0,0.0,0.0,0.0,0.0,0.0,0.0,0.0,0.0,0.0,0.0,0.0,0.0,0.0,0.0,0.0,0.0,0.0,0.0,0.0,0.0,0.0,0.0,0.0,0.0,0.0,0.0,0.0,0.0,0.0,0.0,0.0,0.0,0.0,0.0,0.0,0.0,0.0,0.0,0.0,0.0,0.0,0.0,0.0,0.0,0.0,0.0,0.0,0.0,0.0,0.0,0.0,0.5618,0.61,0.5965,0.5962,0.6108,0.6266,0.6333,0.63,0.6244,0.6314,0.0,0.0,0.0,0.0,0.0,0.0,0.0,0.0,0.0,0.0,0.0,0.0,0.0,0.0,0.0,0.0,0.0,0.0,0.0,0.0,0.0,0.0,0.0,0.0,0.0,0.0,0.0,0.0,0.2445,0.266,0.2963,0.0,0.0,0.0,0.0,0.0,0.0,0.0,0.0,0.0,0.0,-0.0702,-0.0589,-0.0359,0.0,0.0,0.0666,0.0811,0.0965,0.0615,0.0603,0.1549,0.1573,0.0,0.0,0.0,0.0,0.0,0.0,0.0,0.0,0.0,0.0,0.0,0.0,0.0,0.0,0.0,0.0,0.0,0.0,0.0,0.0,0.0,0.0,0.0,0.0,0.0,0.0,0.0,0.0,0.0,0.0,0.0,0.0,0.0,0.0,0.0,0.0,0.0,0.0,0.0,0.0,0.0,0.0,0.0,0.0,0.0,0.0,0.0,0.0,0.0,0.0,0.0,0.0,0.5639,0.6104,0.5849,0.581,0.5922,0.5922,0.5886,0.5904,0.5851,0.5942,0.0,0.0,0.0,0.0,0.0,0.0,0.0,0.0,0.0,0.0,0.0,0.0,0.0,0.0,0.0,0.0,0.0,0.0,0.0,0.0,0.0,0.0,0.0,0.0,0.0,0.0,0.0,0.0,0.2018,0.2237,0.2239,0.0,0.0,0.0,0.0,0.0,0.0,0.0,0.0,0.0,0.0,-0.0553,-0.057,-0.0046,0.0429,0.0757,0.0862,0.1005,0.1255,0.0965,0.0972,0.1556,0.0,0.0,0.0,0.0,0.0,0.0,0.0,0.0,0.0,0.0,0.0,0.0,0.0,0.0,0.0,0.0,0.0,0.0,0.0,0.0,0.0,0.0,0.0,0.0,0.0,0.0,0.0,0.0,0.0,0.0,0.4955,0.0,0.0,0.0,0.0,0.0,0.0,0.0,0.0,0.0,0.0,0.0,0.0,0.0,0.0,0.0,0.0,0.0,0.0,0.0,0.0,0.0,0.0,0.5624,0.6076,0.5769,0.5664,0.5796,0.5671,0.5532,0.5442,0.5727,0.5888,0.5906,0.0,0.0,0.0,0.0,0.0,0.0,0.0,0.0,0.0,0.0,0.0,0.0,0.0,0.0,0.0,0.0,0.0,0.0,0.0,0.0,0.0,0.0,0.0,0.0,0.0,0.0,0.1952,0.2289,0.2327,0.0,0.0,0.0,0.0,0.0,0.0,0.0,0.0,0.0,0.0,-0.1134,-0.1472,0.0253,0.0219,0.0318,0.1156,0.1572,0.1728,0.1378,0.1268,0.128,0.0,0.0,0.0,0.0,0.0,0.0,0.0,0.0,0.0,0.0,0.0,0.0,0.0,0.0,0.0,0.0,0.0,0.0,0.0,0.0,0.0,0.0,0.0,0.0,0.0,0.0,0.0,0.5492,0.5508,0.0,0.0,0.0,0.0,0.0,0.0,0.0,0.0,0.0,0.0,0.0,0.5799,0.5803,0.0,0.0,0.0,0.0,0.0,0.0,0.0,0.0,0.0,0.0,0.0,0.0,0.5543,0.5888,0.5717,0.5613,0.5657,0.5616,0.5515,0.5399,0.5524,0.569,0.5888,0.0,0.0,0.0,0.0,0.0,0.0,0.0,0.0,0.0,0.0,0.0,0.0,0.0,0.0,0.0,0.0,0.0,0.0,0.0,0.0,0.0,0.0,0.0,0.0,0.0,0.1757,0.0,0.0,0.0,0.0,0.0,0.0,0.0,0.0,0.0,0.0,0.0,0.0415,0.0,-0.0242,-0.0213,0.0087,0.0273,0.0515,0.0,0.0,0.0,0.0,0.0,0.0,0.0,0.0,0.0,0.0,0.0,0.0,0.0,0.0,0.2139,0.2343,0.2221,0.2069,0.2124,0.0,0.0,0.0,0.0,0.0,0.0,0.0,0.0,0.0,0.0,0.0,0.0,0.0,0.0,0.5862,0.0,0.5939,0.0,0.0,0.0,0.0,0.0,0.0,0.0,0.0,0.5888,0.6101,0.6183,0.6183,0.6183,0.0,0.6081,0.5764,0.0,0.0,0.0,0.0,0.0,0.0,0.0,0.0,0.5504,0.571,0.5603,0.5569,0.5586,0.5569,0.5498,0.5399,0.5395,0.5495,0.5727,0.5946,0.6081,0.0,0.0,0.0,0.0,0.0,0.0,0.0,0.0,0.0,0.0,0.0,0.0,0.0,0.0,0.0,0.0,0.0,0.0,0.0,0.0,0.0,0.0,0.0,0.1504,0.0,0.0,0.0,0.0,0.0,0.0,0.0,0.0,0.0,0.1105,0.0738,0.0403,0.004,0.0125,0.0215,0.0353,0.0,0.0,0.0,0.0,0.0,0.0,0.0,0.1965,0.2068,0.1969,0.18,0.1699,0.169,0.1626,0.1494,0.0,0.0,0.1802,0.1701,0.1553,0.1607,0.1619,0.1638,0.1676,0.1702,0.1674,0.0,0.0,0.0,0.0,0.0,0.0,0.0,0.0,0.6048,0.6067,0.0,0.624,0.0,0.0,0.0,0.0,0.0,0.5901,0.0,0.0,0.6539,0.678,0.6555,0.6515,0.6549,0.6474,0.6213,0.5956,0.582,0.5684,0.0,0.0,0.0,0.0,0.0,0.0,0.5437,0.5569,0.5474,0.5467,0.5569,0.547,0.5399,0.5395,0.5395,0.5395,0.5428,0.5723,0.5888,0.5888,0.6383,0.0,0.0,0.0,0.0,0.0,0.0,0.0,0.0,0.0,0.0,0.0,0.0,0.0,0.0,0.0,0.0,0.0,0.0,0.0,0.0,0.1474,0.0,0.0,0.0,0.0,0.0,0.0,0.0,0.0,0.0,0.0,0.0404,0.0073,0.0,0.0374,0.0,0.0,0.0,0.0,0.1283,0.2086,0.2239,0.2328,0.2541,0.2239,0.1819,0.1397,0.0,0.0,0.088,0.1278,0.1489,0.1532,0.101,0.0738,0.1174,0.1278,0.1355,0.147,0.1542,0.167,0.1789,0.1714,0.1707,0.6359,0.0,0.0,0.0,0.0,0.6065,0.6508,0.7135,0.6984,0.6957,0.6983,0.6915,0.0,0.0,0.0,0.0,0.0,0.0,0.638,0.6464,0.6842,0.7045,0.7163,0.7227,0.7163,0.6949,0.6819,0.6634,0.6285,0.6177,0.5922,0.5532,0.0,0.0,0.0,0.0,0.5279,0.5453,0.5419,0.5416,0.5457,0.5416,0.5395,0.5395,0.5395,0.5395,0.5395,0.5495,0.5591,0.5686,0.5925,0.0,0.0,0.0,0.0,0.0,0.0,0.0,0.0,0.0,0.0,0.0,0.0,0.0,0.0,0.0,0.0,0.0,0.0,0.0,0.1524,0.1126,0.0963,0.0,0.0,0.0,0.0,0.0,0.0,0.0,0.0,0.0,0.0161,0.0432,0.0704,0.0,0.0,0.0977,0.1485,0.1271,0.1077,0.1306,0.0,0.0,0.0,0.1342,0.1477,0.1311,0.0937,0.0676,0.0772,0.0583,0.044,0.0,0.0295,0.0246,0.0342,0.0376,0.0,0.0458,0.0461,0.0514,0.0524,0.0532,0.0,0.7664,0.707,0.6427,0.6387,0.6735,0.6735,0.7138,0.7749,0.7551,0.7503,0.7461,0.7378,0.7078,0.6519,0.6366,0.0,0.0,0.0,0.6763,0.6976,0.7214,0.737,0.7465,0.7553,0.7472,0.7238,0.7125,0.693,0.6651,0.6368,0.6099,0.5764,0.0,0.0,0.5406,0.5299,0.5292,0.5395,0.5395,0.5395,0.5395,0.5395,0.5395,0.5395,0.5395,0.5395,0.5395,0.5395,0.5428,0.5521,0.5702,0.5812,0.0,0.0,0.0,0.0,0.0,0.0,0.0,0.0,0.0,0.0,0.0,0.4394,0.3973,0.0,0.0,0.0,0.1884,0.1491,0.122,0.0998,0.0,0.0,0.0,0.0,0.0,0.0,0.0,0.0601,0.0586,0.0489,0.0297,0.0597,0.0859,0.079,0.0839,0.098,0.1268,0.0,0.0804,0.1005,0.1017,0.0976,0.0927,0.0976,0.102,0.0817,0.0586,0.0447,0.0397,0.015,0.0,0.0,0.0,0.0,0.0,0.0,0.0,0.0,0.0,0.0,0.0,0.0,0.0,0.8726,0.8588,0.7308,0.7026,0.739,0.7393,0.765,0.8046,0.795,0.7801,0.7682,0.7794,0.7529,0.6933,0.6834,0.0,0.6963,0.6947,0.7146,0.7414,0.7563,0.7628,0.7617,0.7617,0.7529,0.7366,0.7227,0.7034,0.6876,0.6473,0.621,0.6184,0.5762,0.5588,0.5582,0.543,0.5386,0.5396,0.5386,0.5412,0.5416,0.5399,0.5395,0.5395,0.5395,0.5395,0.5395,0.5395,0.5395,0.5399,0.5648,0.5797,0.579,0.0,0.0,0.0,0.0,0.0,0.0,0.0,0.0,0.0,0.0,0.0,0.0,0.0,0.0,0.0,0.1372,0.0,0.0843,0.0988,0.0,0.0,0.0,0.0918,0.0552,0.0538,0.0555,0.0515,0.0,0.0,0.0571,0.0,0.0579,0.0395,0.034,0.0437,0.0654,0.0556,0.0558,0.0963,0.1017,0.107,0.1066,0.0859,0.0503,0.0,0.0,0.0,0.0,0.0,0.0,0.0,0.0,0.0,0.0,0.0,0.0,0.0,0.0,0.0,0.0,0.0,0.0,0.8882,0.8811,0.8508,0.8381,0.834,0.8337,0.8501,0.8652,0.856,0.8411,0.8269,0.8191,0.7892,0.7438,0.7404,0.7343,0.7278,0.7499,0.7638,0.7712,0.7865,0.7872,0.7763,0.776,0.7624,0.7426,0.7333,0.7183,0.6886,0.6697,0.6342,0.5981,0.5613,0.5448,0.5439,0.5275,0.5271,0.5489,0.5378,0.5391,0.5535,0.5457,0.5395,0.5395,0.5395,0.5395,0.5395,0.5395,0.5395,0.5402,0.5644,0.5733,0.5662,0.5728,0.0,0.0,0.0,0.0,0.0,0.0,0.0,0.0,0.0,0.4154,0.3432,0.0,0.2873,0.0,0.1254,0.0656,0.0463,0.0493,0.0,0.0,0.0649,0.0661,0.0594,0.0455,0.0425,0.0553,0.0437,0.0363,0.038,0.0387,0.0349,0.0159,0.0359,0.065,0.0707,0.0518,0.0421,0.0528,0.043,0.0271,0.0,0.0257,0.0,0.0,0.0,0.0,0.0,0.0,0.0,0.0,0.0,0.0,0.0,0.0,0.0,0.0,0.0,0.0,0.0,0.0,0.0,0.8937,0.8937,0.8937,0.8838,0.8811,0.8811,0.8859,0.8875,0.8794,0.8726,0.8574,0.8431,0.8245,0.7906,0.7899,0.7814,0.7682,0.7838,0.7913,0.787,0.7948,0.7907,0.7807,0.7746,0.7597,0.7419,0.7302,0.7183,0.6977,0.6875,0.6597,0.6244,0.5989,0.5806,0.5626,0.5219,0.5075,0.528,0.5367,0.5505,0.5681,0.5603,0.5524,0.5456,0.5459,0.5387,0.5315,0.5318,0.5315,0.5324,0.5529,0.5577,0.5506,0.5571,0.5544,0.0,0.0,0.0,0.0,0.0,0.0,0.0,0.0,0.0,0.0,0.0,0.2276,0.0,0.0956,0.0479,0.0559,0.0473,0.0431,0.0391,0.044,0.0409,0.0335,0.0216,0.0222,0.0317,0.0231,0.0143,0.015,0.0152,0.0104,0.0,0.0215,0.0371,0.0371,0.027,0.0218,0.0219,0.0111,0.0,0.0,0.0,0.0,0.0,0.0,0.0,0.0,0.0,0.0,0.0,0.0,0.0,0.0,0.0,0.0,0.0,0.0,0.0,0.0,0.0,0.0,0.8937,0.8937,0.8937,0.8937,0.8937,0.8937,0.8937,0.8937,0.8937,0.8807,0.8726,0.8577,0.8431,0.8299,0.835,0.8204,0.7992,0.8012,0.8008,0.7988,0.7988,0.7907,0.7807,0.7685,0.755,0.7443,0.7244,0.7122,0.7166,0.6964,0.6819,0.6646,0.6475,0.6215,0.583,0.5231,0.5001,0.5009,0.535,0.5581,0.5758,0.5741,0.5623,0.545,0.545,0.5372,0.5225,0.5189,0.5189,0.5192,0.5319,0.5401,0.5454,0.5472,0.549,0.0,0.5509,0.0,0.0,0.0,0.0,0.0,0.0,0.0,0.0,0.1416,0.1278,0.1221,0.0664,0.0452,0.0742,0.0618,0.0454,0.029,0.0253,0.0215,0.0,0.0,0.0,0.0,0.0,0.0,0.0,0.0,0.0,0.0,0.0,0.0,0.0,0.0,0.0,0.0,0.0,0.0,0.0,0.0,0.0,0.0,0.0,0.0,0.0,0.0,0.0,0.0,0.0,0.0,0.0,0.0,0.0,0.0,0.0,0.0,0.0,0.0,0.0,0.8937,0.8937,0.8937,0.8937,0.8937,0.8937,0.8937,0.8937,0.8937,0.8868,0.8828,0.8737,0.8584,0.8448,0.8442,0.8292,0.7998,0.817,0.816,0.7988,0.7988,0.796,0.7814,0.7784,0.7695,0.755,0.74,0.7326,0.7322,0.7061,0.6701,0.6367,0.6116,0.5832,0.5489,0.0,0.0,0.0,0.5473,0.5612,0.5464,0.5355,0.5228,0.5017,0.5156,0.0,0.5189,0.5189,0.5189,0.5195,0.5319,0.0,0.0,0.0,0.0,0.0,0.0,0.0,0.0,0.0,0.0,0.0,0.158,0.1471,0.1408,0.1348,0.1138,0.0775,0.0602,0.0432,0.0176,0.0132,0.0089,0.009,0.0,0.0046,0.0,0.0,0.0,0.0,0.0,0.0,0.0,0.0,0.0,0.0,0.0,0.0,0.0,0.0,0.0,0.0,0.0,0.0,0.0,0.0,0.0,0.0,0.0,0.0,0.0,0.0,0.0,0.0,0.0,0.0,0.0,0.0,0.0,0.0,0.0,0.0,0.0,0.0,0.0,0.9113,0.0,0.9042,0.9001,0.0,0.8937,0.8937,0.8937,0.8937,0.8937,0.8878,0.8855,0.874,0.8591,0.8516,0.8401,0.8255,0.8187,0.8157,0.815,0.8072,0.7951,0.7919,0.7848,0.7773,0.7699,0.7556,0.7494,0.7412,0.7221,0.6943,0.6586,0.6479,0.6284,0.6028,0.5981,0.585,0.5527,0.5676,0.5793,0.5835,0.5767,0.5616,0.5426,0.0,0.0,0.0,0.0,0.0,0.0,0.0,0.0,0.0,0.0,0.0,0.6239,0.6228,0.5763,0.4699,0.4132,0.3309,0.2009,0.1173,0.0741,0.0944,0.0762,0.054,0.0318,0.0273,0.0229,0.0,0.0,0.0,0.0,0.0,0.0,0.0,0.0,0.0,0.0,0.0,0.0,0.0,0.0,0.0,0.0,0.0,0.0,0.0,0.0,0.0,0.0,0.0,0.0,0.0,0.0,0.0,0.0,0.0,0.0,0.0,0.0,0.0,0.0,0.0,0.0,0.0,0.0,0.0,0.0,0.0,0.0,0.0,0.0,0.0,0.9306,0.9248,0.9224,0.9086,0.8977,0.8895,0.8937,0.8937,0.0,0.0,0.0,0.8868,0.8787,0.8669,0.8594,0.8533,0.8465,0.8258,0.8211,0.835,0.815,0.8042,0.8059,0.7936,0.7865,0.7885,0.7719,0.7556,0.746,0.7429,0.7238,0.6943,0.69,0.6851,0.6712,0.6702,0.6498,0.6067,0.6012,0.6097,0.626,0.626,0.6139,0.5894,0.5937,0.5951,0.5941,0.5947,0.6003,0.6111,0.6117,0.6133,0.6155,0.6221,0.6243,0.6317,0.6442,0.6269,0.5668,0.4664,0.3555,0.2356,0.0887,0.0146,0.0467,0.0189,0.0,0.0,0.0,0.0,0.0,0.0,0.0,0.0,0.0,0.0,0.0,0.0,0.0,0.0,0.0,0.0,0.0,0.0,0.0,0.0,0.0,0.0,0.0,0.0,0.0,0.0,0.0,0.0,0.0,0.0,0.0,0.0,0.0,0.0,0.0,0.0,0.0,0.0,0.0,0.0,0.0,0.0,0.0,0.0,0.0,0.0,0.0,0.0,0.0,0.9425,0.9337,0.9265,0.9197,0.9117,0.8991,0.8937,0.8937,0.8937,0.8866,0.875,0.8882,0.8781,0.8526,0.8767,0.873,0.8492,0.8574,0.8557,0.0,0.8303,0.8303,0.8401,0.814,0.8079,0.8177,0.7919,0.7709,0.7567,0.7484,0.7282,0.7071,0.6943,0.6812,0.6712,0.6702,0.6681,0.6555,0.6429,0.6261,0.6147,0.6144,0.6017,0.585,0.6014,0.6071,0.6045,0.609,0.6057,0.6117,0.6117,0.6212,0.6501,0.6626,0.6877,0.7182,0.7329,0.6951,0.5875,0.4988,0.3529,0.1303,0.0402,0.0049,0.0095,0.0048,0.0,0.0,0.0,0.0,0.0,0.0,0.0,0.0,0.0,0.0,0.0,0.0,0.0,0.0,0.0,0.0,0.0,0.0,0.0,0.0,0.0,0.0,0.0,0.0,0.0,0.0,0.0,0.0,0.0,0.0,0.0,0.0,0.0,0.0,0.0,0.0,0.0,0.0,0.0,0.0,0.0,0.0,0.0,0.0,0.0,0.0,0.0,0.0,0.0,0.9574,0.95,0.9429,0.9351,0.9266,0.9117,0.9008,0.8885,0.8937,0.8899,0.8835,0.8767,0.8781,0.8737,0.8733,0.8784,0.873,0.8628,0.8594,0.8594,0.8455,0.8473,0.8459,0.8262,0.8204,0.8258,0.813,0.7943,0.7723,0.7641,0.7495,0.7272,0.7071,0.7007,0.6943,0.6939,0.6936,0.6936,0.6692,0.6533,0.6411,0.6408,0.6408,0.6284,0.6367,0.645,0.6525,0.6528,0.6642,0.6796,0.6802,0.6912,0.7146,0.7171,0.7332,0.7495,0.7631,0.7065,0.5664,0.3951,0.2247,0.0505,0.0153,0.0,0.0,0.0,0.0,0.0,0.0,0.0,0.0,0.0,0.0,0.0,0.0,0.0,0.0,0.0,0.0,0.0,0.0,0.0,0.0,0.0,0.0,0.0,0.0,0.0,0.0,0.0,0.0,0.0,0.0,0.0,0.0,0.0,0.0,0.0,0.0,0.0,0.0,0.0,0.0,0.0,0.0,0.0,0.0,0.0,0.0,0.0,0.0,0.0,0.0,0.0,0.0,0.9758,0.9656,0.9622,0.9503,0.9384,0.9258,0.9072,0.8885,0.8848,0.8831,0.8817,0.876,0.876,0.8821,0.8747,0.8794,0.8838,0.8693,0.8632,0.8693,0.8587,0.8516,0.8521,0.8388,0.8323,0.8265,0.8286,0.8092,0.7882,0.7831,0.7682,0.7434,0.7302,0.72,0.72,0.721,0.7166,0.7176,0.6949,0.68,0.68,0.68,0.6787,0.6753,0.6787,0.6841,0.6883,0.695,0.7136,0.7398,0.745,0.7478,0.759,0.7631,0.7648,0.7658,0.7784,0.7076,0.5366,0.3342,0.1566,0.0305,0.0051,0.0,0.0,0.0,0.0,0.0,0.0,0.0,0.0,0.0,0.0,0.0,0.0,0.0,0.0,0.0,0.0,0.0,0.0,0.0,0.0,0.0,0.0,0.0,0.0,0.0,0.0,0.0,0.0,0.0,0.0,0.0,0.0,0.0,0.0,0.0,0.0,0.0,0.0,0.0,0.0,0.0,0.0,0.0,0.0,0.0,0.0,0.0,0.0,0.0,0.0,0.0,0.0,0.9812,0.9781,0.9666,0.9439,0.9251,0.9221,0.9076,0.8875,0.8794,0.873,0.8726,0.8716,0.8635,0.855,0.8652,0.8788,0.8871,0.8854,0.8767,0.8716,0.8696,0.8615,0.8476,0.834,0.8323,0.8306,0.814,0.8015,0.7951,0.7875,0.7733,0.7594,0.7563,0.7546,0.7536,0.7417,0.7417,0.7546,0.721,0.7055,0.7058,0.7055,0.6994,0.6873,0.6991,0.7001,0.6927,0.7187,0.7388,0.738,0.7509,0.7587,0.7617,0.7723,0.7794,0.7801,0.7887,0.7065,0.5064,0.4214,0.284,0.0982,0.026,0.0,0.0,0.0,0.0,0.0,0.0,0.0,0.0,0.0,0.0,0.0,0.0,0.0,0.0,0.0,0.0,0.0,0.0,0.0,0.0,0.0,0.0,0.0,0.0,0.0,0.0,0.0,0.0,0.0,0.0,0.0,0.0,0.0,0.0,0.0,0.0,0.0,0.0,0.0,0.0,0.0,0.0,0.0,0.0,0.0,0.0,0.0,0.0,0.0,0.0,0.0,0.0,0.9819,0.9815,0.9758,0.9564,0.9364,0.9286,0.9154,0.8875,0.8774,0.8662,0.857,0.8486,0.8462,0.8538,0.855,0.8659,0.8798,0.8804,0.8774,0.8713,0.8713,0.8628,0.8476,0.8336,0.8323,0.832,0.8204,0.8126,0.7978,0.7882,0.774,0.7614,0.7597,0.7597,0.7594,0.7536,0.7495,0.7461,0.7343,0.7278,0.7275,0.7278,0.7251,0.7214,0.7333,0.7387,0.7346,0.7448,0.7546,0.7624,0.7692,0.7767,0.7806,0.7916,0.7987,0.8079,0.7763,0.6852,0.5091,0.3996,0.2657,0.0948,0.032,0.0,0.0,0.0,0.0,0.0,0.0,0.0,0.0,0.0,0.0,0.0,0.0,0.0,0.0,0.0,0.0,0.0,0.0,0.0,0.0,0.0,0.0,0.0,0.0,0.0,0.0,0.0,0.0,0.0,0.0,0.0,0.0,0.0,0.0,0.0,0.0,0.0,0.0,0.0,0.0,0.0,0.0,0.0,0.0,0.0,0.0,0.0,0.0,0.0,0.0,0.0,0.0,0.9819,0.9819,0.9819,0.9676,0.9449,0.9442,0.9273,0.9005,0.8879,0.8726,0.854,0.8435,0.8425,0.8528,0.8535,0.8564,0.8699,0.8713,0.8662,0.8604,0.8625,0.8543,0.8367,0.8361,0.8248,0.8211,0.8201,0.8167,0.8092,0.7997,0.7885,0.7797,0.7784,0.7763,0.7723,0.7719,0.7668,0.7563,0.7528,0.7451,0.7485,0.7492,0.7501,0.7439,0.7519,0.758,0.7543,0.7614,0.7702,0.7807,0.7889,0.7987,0.8096,0.814,0.8214,0.8268,0.79,0.6846,0.5204,0.3981,0.2608,0.1072,0.0326,0.0,0.0,0.0,0.0,0.0,0.0,0.0,0.0,0.0,0.0,0.0,0.0,0.0,0.0,0.0,0.0,0.0,0.0,0.0,0.0,0.0,0.0,0.0,0.0,0.0,0.0,0.0,0.0,0.0,0.0,0.0,0.0,0.0,0.0,0.0,0.0,0.0,0.0,0.0,0.0,0.0,0.0,0.0,0.0,0.0,0.0,0.0,0.0,0.0,0.0,0.0,0.0,0.9819,0.9819,0.9819,0.973,0.9598,0.9585,0.9418,0.9183,0.9166,0.9013,0.8706,0.8672,0.8608,0.8496,0.8499,0.8567,0.8699,0.8703,0.857,0.837,0.8455,0.8347,0.8029,0.8197,0.8197,0.8049,0.8113,0.8153,0.8255,0.8303,0.8303,0.8231,0.8214,0.8157,0.7982,0.8014,0.7961,0.7926,0.7719,0.7651,0.776,0.778,0.7658,0.7508,0.7529,0.7563,0.7514,0.7665,0.7814,0.7821,0.8092,0.8252,0.8269,0.8387,0.8459,0.8476,0.8433,0.7434,0.5479,0.4524,0.3214,0.1306,0.0,0.0,0.0,0.0,0.0,0.0,0.0,0.0,0.0,0.0,0.0,0.0,0.0,0.0,0.0,0.0,0.0,0.0,0.0,0.0,0.0,0.0,0.0,0.0,0.0,0.0,0.0,0.0,0.0,0.0,0.0,0.0,0.0,0.0,0.0,0.0,0.0,0.0,0.0,0.0,0.0,0.0,0.0,0.0,0.0,0.0,0.0,0.0,0.0,0.0,0.0,0.0,0.0,0.9819,0.9819,0.9819,0.9741,0.9605,0.9507,0.934,0.9197,0.8947,0.8815,0.8706,0.8608,0.8587,0.8628,0.8628,0.8659,0.8699,0.8611,0.8557,0.855,0.8608,0.852,0.8347,0.8384,0.833,0.8218,0.8275,0.835,0.8397,0.8408,0.8408,0.8404,0.8404,0.8333,0.8228,0.8279,0.8194,0.7926,0.7868,0.7813,0.7834,0.7906,0.7943,0.7999,0.7899,0.7902,0.7996,0.8101,0.8143,0.8235,0.835,0.8408,0.8418,0.8547,0.8628,0.8585,0.8173,0.7566,0.6634,0.5049,0.3577,0.2436,0.1222,0.039,0.0,0.0,0.0,0.0,0.0,0.0,0.0,0.0,0.0,0.0,0.0,0.0,0.0,0.0,0.0,0.0,0.0,0.0,0.0,0.0,0.0,0.0,0.0,0.0,0.0,0.0,0.0,0.0,0.0,0.0,0.0,0.0,0.0,0.0,0.0,0.0,0.0,0.0,0.0,0.0,0.0,0.0,0.0,0.0,0.0,0.0,0.0,0.0,0.0,0.0,0.0,0.9819,0.9819,0.9819,0.9768,0.9669,0.9568,0.9408,0.9279,0.9062,0.8923,0.8798,0.8767,0.8808,0.8838,0.8808,0.8815,0.8825,0.8652,0.8587,0.8635,0.8638,0.8581,0.8496,0.8535,0.8431,0.8364,0.8431,0.8503,0.8543,0.8503,0.8509,0.8554,0.8554,0.8482,0.8387,0.8482,0.8367,0.8106,0.813,0.813,0.8052,0.8126,0.8228,0.8306,0.8238,0.8228,0.8388,0.834,0.8381,0.8472,0.8526,0.8577,0.8635,0.8726,0.873,0.8685,0.832,0.7873,0.7479,0.5868,0.436,0.3187,0.2014,0.0953,0.0,0.0,0.0,0.0,0.0,0.0,0.0,0.0,0.0,0.0,0.0,0.0,0.0,0.0,0.0,0.0,0.0,0.0,0.0,0.0,0.0,0.0,0.0,0.0,0.0,0.0,0.0,0.0,0.0,0.0,0.0,0.0,0.0,0.0,0.0,0.0,0.0,0.0,0.0,0.0,0.0,0.0,0.0,0.0,0.0,0.0,0.0,0.0,0.0,0.0,0.0,0.9832,0.9832,0.9825,0.9825,0.9798,0.9751,0.9622,0.9401,0.9479,0.9262,0.8984,0.9208,0.9222,0.9193,0.8994,0.9011,0.9105,0.8832,0.8652,0.8557,0.8543,0.8537,0.8523,0.8533,0.853,0.8506,0.8489,0.857,0.8699,0.8598,0.8594,0.8693,0.871,0.8635,0.8486,0.8625,0.8628,0.8469,0.8445,0.8459,0.8528,0.8455,0.8469,0.8486,0.8482,0.8489,0.8496,0.8489,0.8496,0.8526,0.8638,0.8781,0.8882,0.8861,0.8871,0.8865,0.8823,0.8377,0.7706,0.6924,0.5363,0.3634,0.2572,0.1566,0.0,0.0,0.0,0.0,0.0,0.0,0.0,0.0,0.0,0.0,0.0,0.0,0.0,0.0,0.0,0.0,0.0,0.0,0.0,0.0,0.0,0.0,0.0,0.0,0.0,0.0,0.0,0.0,0.0,0.0,0.0,0.0,0.0,0.0,0.0,0.0,0.0,0.0,0.0,0.0,0.0,0.0,0.0,0.0,0.0,0.0,0.0,0.0,0.0,0.0,0.0,1.0076,0.992,0.9913,0.9852,0.9798,0.9608,0.9459,0.9374,0.933,0.9272,0.914,0.9296,0.9354,0.9344,0.9154,0.9169,0.919,0.8957,0.8838,0.8801,0.8794,0.8791,0.8791,0.8794,0.8798,0.8777,0.8686,0.872,0.8832,0.876,0.877,0.8862,0.8866,0.8788,0.8659,0.8726,0.8747,0.8523,0.8587,0.8591,0.8506,0.8587,0.8638,0.8652,0.874,0.8798,0.8794,0.8696,0.8696,0.8781,0.8784,0.8838,0.8875,0.8937,0.8937,0.8826,0.8322,0.8266,0.8322,0.7204,0.5813,0.4247,0.3297,0.1903,0.0,0.0,0.0,0.0,0.0,0.0,0.0,0.0,0.0,0.0,0.0,0.0,0.0,0.0,0.0,0.0,0.0,0.0,0.0,0.0,0.0,0.0,0.0,0.0,0.0,0.0,0.0,0.0,0.0,0.0,0.0,0.0,0.0,0.0,0.0,0.0,0.0,0.0,0.0,0.0,0.0,0.0,0.0,0.0,0.0,0.0,0.0,0.0,0.0,0.0,0.0,1.0222,1.0131,1.0011,0.9936,0.9822,0.9646,0.9513,0.9469,0.9425,0.934,0.9296,0.9459,0.951,0.9456,0.9361,0.9323,0.9306,0.9171,0.9103,0.9089,0.9032,0.9018,0.9018,0.9015,0.9018,0.9018,0.8977,0.8977,0.9015,0.9015,0.8991,0.8892,0.8937,0.8893,0.8808,0.8879,0.8825,0.8686,0.8743,0.875,0.8689,0.8743,0.8794,0.8808,0.8834,0.8878,0.8875,0.879,0.8838,0.892,0.8937,0.8937,0.8937,0.8937,0.8937,0.8826,0.8491,0.8377,0.866,0.7595,0.6091,0.4749,0.3634,0.2182,0.0,0.0,0.0,0.0,0.0,0.0,0.0,0.0,0.0,0.0,0.0,0.0,0.0,0.0,0.0,0.0,0.0,0.0,0.0,0.0,0.0,0.0,0.0,0.0,0.0,0.0,0.0,0.0,0.0,0.0,0.0,0.0,0.0,0.0,0.0,0.0,0.0,0.0,0.0,0.0,0.0,0.0,0.0,0.0,0.0,0.0,0.0,0.0,0.0,0.0,0.0,1.03,1.0273,1.0137,1.0021,1.0039,0.9869,0.9724,0.9649,0.9717,0.9615,0.9486,0.9663,0.973,0.9639,0.9578,0.9561,0.9578,0.9445,0.9371,0.9344,0.9276,0.9265,0.9197,0.9183,0.9137,0.9238,0.9279,0.9337,0.9171,0.9197,0.9146,0.9008,0.8912,0.8947,0.8885,0.895,0.8927,0.8903,0.8865,0.8913,0.8851,0.8865,0.8871,0.8865,0.8858,0.8916,0.8878,0.8865,0.8868,0.8937,0.8937,0.8937,0.8937,0.8937,0.8937,0.8937,0.8881,0.8826,0.8712,0.7875,0.6533,0.4695,0.3522,0.2181,0.0,0.0,0.0,0.0,0.0,0.0,0.0,0.0,0.0,0.0,0.0,0.0,0.0,0.0,0.0,0.0,0.0,0.0,0.0,0.0,0.0,0.0,0.0,0.0,0.0,0.0,0.0,0.0,0.0,0.0,0.0,0.0,0.0,0.0,0.0,0.0,0.0,0.0,0.0,0.0,0.0,0.0,0.0,0.0,0.0,0.0,0.0,0.0,0.0,0.0,0.0,1.0541,1.0432,1.0395,1.0317,1.0188,0.9937,0.9808,0.9758,0.9693,0.9649,0.9605,0.9737,0.9802,0.9758,0.9659,0.9612,0.9615,0.9585,0.9551,0.9561,0.9629,0.9435,0.9268,0.9217,0.9275,0.9374,0.9378,0.9361,0.9313,0.9282,0.9255,0.9252,0.9052,0.9005,0.9069,0.9001,0.8885,0.8937,0.8888,0.8888,0.8885,0.8888,0.8937,0.8871,0.8838,0.8842,0.8923,0.8937,0.8937,0.8937,0.8937,0.8937,0.8937,0.8937,0.8937,0.8937,0.8937,0.8881,0.8657,0.7654,0.62,0.4639,0.3242,0.1734,0.0,0.0,0.0,0.0,0.0,0.0,0.0,0.0,0.0,0.0,0.0,0.0,0.0,0.0,0.0,0.0,0.0,0.0,0.0,0.0,0.0,0.0,0.0,0.0,0.0,0.0,0.0,0.0,0.0,0.0,0.0,0.0,0.0,0.0,0.0,0.0,0.0,0.0,0.0,0.0,0.0,0.0,0.0,0.0,0.0,0.0,0.0,0.0,0.0,0.0,0.0,1.0666,1.0582,1.0521,1.0446,1.0344,1.0114,1.0012,0.9985,0.9863,0.9836,0.9873,0.9829,0.9795,0.99,0.9771,0.9798,0.9798,0.9863,0.9859,0.9781,0.9741,0.9574,0.9391,0.9347,0.9395,0.9473,0.954,0.953,0.9476,0.9384,0.9371,0.934,0.9211,0.9171,0.9292,0.9174,0.9086,0.9055,0.9079,0.9023,0.8895,0.9001,0.9028,0.9001,0.8889,0.8801,0.8875,0.8937,0.8937,0.8937,0.8937,0.8937,0.8937,0.8937,0.8937,0.8937,0.8937,0.883,0.838,0.7374,0.6146,0.4695,0.3187,0.1784,0.0,0.0,0.0,0.0,0.0,0.0,0.0,0.0,0.0,0.0,0.0,0.0,0.0,0.0,0.0,0.0,0.0,0.0,0.0,0.0,0.0,0.0,0.0,0.0,0.0,0.0,0.0,0.0,0.0,0.0,0.0,0.0,0.0,0.0,0.0,0.0,0.0,0.0,0.0,0.0,0.0,0.0,0.0,0.0,0.0,0.0,0.0,0.0,0.0,0.0,0.0,1.0721,1.0707,1.0571,1.0517,1.0493,1.0365,1.0283,1.027,1.0127,1.0127,1.0171,0.9981,0.9978,1.0011,0.9994,1.0,1.0014,1.0188,1.0185,1.0046,0.9869,0.9686,0.9717,0.9625,0.9635,0.969,0.9805,0.9802,0.9727,0.9666,0.9574,0.9496,0.9429,0.9388,0.9384,0.9374,0.93,0.9222,0.9276,0.9228,0.9089,0.913,0.9231,0.9217,0.9083,0.8991,0.8939,0.8994,0.9011,0.8994,0.8905,0.8885,0.8937,0.8937,0.8937,0.895,0.8908,0.8755,0.8137,0.7321,0.6242,0.5002,0.3371,0.2007,0.127,0.0,0.0,0.0,0.0,0.0,0.0,0.0,0.0,0.0,0.0,0.0,0.0,0.0,0.0,0.0,0.0,0.0,0.0,0.0,0.0,0.0,0.0,0.0,0.0,0.0,0.0,0.0,0.0,0.0,0.0,0.0,0.0,0.0,0.0,0.0,0.0,0.0,0.0,0.0,0.0,0.0,0.0,0.0,0.0,0.0,0.0,0.0,0.0,0.0,0.0,1.0721,1.0717,1.0687,1.0673,1.0646,1.0514,1.0446,1.0436,1.029,1.0256,1.0263,1.0202,1.0192,1.0229,1.0229,1.0232,1.0246,1.0365,1.0419,1.0365,1.009,1.0042,1.0046,0.991,0.9852,0.9951,1.0107,1.0148,1.0083,0.9897,0.9825,0.9859,0.9585,0.9449,0.9547,0.9469,0.9374,0.9344,0.9378,0.9364,0.9296,0.93,0.9327,0.9317,0.9293,0.9218,0.9157,0.9225,0.9283,0.9235,0.9083,0.8974,0.8971,0.8964,0.8967,0.8991,0.9062,0.905,0.8668,0.7407,0.6171,0.5692,0.4032,0.227,0.1396,0.1266,0.0711,0.0,0.0,0.0,0.0,0.0,0.0,0.0,0.0,0.0,0.0,0.0,0.0,0.0,0.0,0.0,0.0,0.0,0.0,0.0,0.0,0.0,0.0,0.0,0.0,0.0,0.0,0.0,0.0,0.0,0.0,0.0,0.0,0.0,0.0,0.0,0.0,0.0,0.0,0.0,0.0,0.0,0.0,0.0,0.0989,0.1042,0.0992,0.0844,0.0742,1.0721,1.0721,1.0721,1.0721,1.0707,1.0633,1.0599,1.0568,1.0443,1.0419,1.0443,1.0354,1.0317,1.0375,1.0378,1.0378,1.0395,1.0449,1.049,1.0436,1.0256,1.0205,1.0263,1.0198,1.0164,1.0188,1.0229,1.0276,1.0222,1.0137,1.008,1.0134,0.9832,0.9771,0.9781,0.9663,0.9564,0.952,0.9554,0.953,0.9408,0.9456,0.9435,0.9418,0.9439,0.9415,0.9289,0.933,0.9371,0.9344,0.9235,0.9147,0.9147,0.9144,0.9144,0.9164,0.9205,0.9144,0.859,0.7873,0.7041,0.6645,0.5068,0.4044,0.3054,0.2686,0.2067,0.1351,0.0,0.0,0.0586,0.0,0.0794,0.1536,0.1426,0.1371,0.1432,0.0,0.0,0.0,0.0,0.0,0.0,0.0,0.0,0.0,0.0,0.0,0.0,0.0,0.0,0.0,0.0,0.0,0.0,0.0,0.0,0.0,0.0,0.0,0.0,0.2444,0.0,0.0,0.0,0.0,0.1593,0.1508,0.1418,0.1421,0.1532,0.1754,0.171,0.1449,0.14,1.0721,1.0721,1.0721,1.0721,1.0721,1.0714,1.0711,1.0694,1.0585,1.0585,1.066,1.0446,1.0443,1.0507,1.0527,1.0527,1.0521,1.049,1.05,1.0521,1.0388,1.0354,1.0388,1.0443,1.0443,1.0354,1.0378,1.0375,1.0368,1.0304,1.0253,1.027,1.012,0.9998,0.9992,0.9924,0.9774,0.9673,0.9764,0.9754,0.9585,0.9639,0.9618,0.9534,0.9574,0.9588,0.9493,0.9479,0.9466,0.9449,0.9449,0.9445,0.9439,0.9391,0.9381,0.9371,0.9388,0.9214,0.8887,0.8432,0.7985,0.7524,0.6574,0.5688,0.4956,0.4279,0.3549,0.2818,0.2155,0.1833,0.1771,0.1766,0.2408,0.3108,0.3104,0.3152,0.3213,0.1823,0.0,0.0,0.0,0.0,0.0,0.0,0.0,0.0375,0.0375,0.0428,0.0427,0.0,0.0,0.0,0.0,0.0,0.0,0.1244,0.1583,0.2129,0.2789,0.3411,0.3907,0.3931,0.3783,0.3516,0.0,0.3002,0.287,0.301,0.2767,0.2295,0.2367,0.2821,0.2615,0.2073,0.2134,1.0721,1.0721,1.0721,1.0721,1.0721,1.0721,1.0721,1.0717,1.0683,1.0694,1.0704,1.0666,1.0636,1.067,1.068,1.0677,1.0636,1.0575,1.0565,1.0622,1.0531,1.0504,1.0599,1.0626,1.0643,1.066,1.0622,1.0609,1.0555,1.0422,1.0375,1.0378,1.0192,1.007,1.0066,0.9947,0.9852,0.9795,0.989,0.9842,0.9842,0.9914,0.9818,0.9744,0.9768,0.9751,0.9741,0.9737,0.9747,0.9747,0.9747,0.9734,0.9663,0.9503,0.9418,0.9432,0.9483,0.9359,0.9182,0.8805,0.8494,0.8085,0.7466,0.6613,0.5919,0.5507,0.4884,0.3943,0.3491,0.3384,0.3935,0.3516,0.3618,0.4068,0.4113,0.3932,0.4242,0.3969,0.3226,0.2693,0.2454,0.2043,0.1811,0.1749,0.1803,0.1853,0.1958,0.2164,0.2368,0.2521,0.0,0.0,0.0,0.0,0.0,0.253,0.2723,0.327,0.3929,0.4786,0.518,0.5431,0.532,0.5252,0.4789,0.4325,0.431,0.4457,0.4216,0.3801,0.3896,0.4101,0.3765,0.3429,0.3174,1.0721,1.0721,1.0721,1.0721,1.0721,1.0721,1.0721,1.0721,1.0721,1.0721,1.0721,1.0721,1.0721,1.0721,1.0721,1.0721,1.0694,1.0656,1.0653,1.0694,1.0653,1.0639,1.0717,1.0721,1.0721,1.0714,1.0717,1.0721,1.0697,1.05,1.0473,1.051,1.0317,1.0171,1.0144,1.0021,0.9916,0.9886,0.991,0.9988,1.0,1.0117,1.008,0.992,0.9866,0.9839,0.9825,0.9819,0.9819,0.9815,0.9815,0.9781,0.97,0.9615,0.953,0.9578,0.954,0.9513,0.9452,0.9098,0.8874,0.8723,0.8307,0.7782,0.7245,0.6916,0.6334,0.5328,0.4973,0.5024,0.5207,0.5085,0.5495,0.6102,0.5897,0.5764,0.6038,0.5982,0.5482,0.4756,0.392,0.3228,0.2612,0.2719,0.3058,0.3275,0.3483,0.3841,0.4187,0.4341,0.4439,0.4336,0.4388,0.4137,0.3899,0.4043,0.414,0.4639,0.5137,0.5996,0.6589,0.6827,0.7092,0.7217,0.6632,0.5759,0.5786,0.5943,0.5599,0.5298,0.5324,0.5293,0.5091,0.483,0.4453,1.0721,1.0721,1.0721,1.0721,1.0721,1.0721,1.0721,1.0721,1.0721,1.0721,1.0721,1.0721,1.0721,1.0721,1.0721,1.0721,1.0721,1.0714,1.0714,1.0714,1.0711,1.0714,1.0717,1.0721,1.0721,1.0721,1.0721,1.0721,1.069,1.0551,1.0585,1.0595,1.0436,1.0324,1.0297,1.0229,1.0049,0.9968,0.9951,1.0029,1.0141,1.0219,1.0209,1.0007,0.9987,0.9923,0.9835,0.9825,0.9917,0.992,0.9897,0.9765,0.9724,0.9669,0.9707,0.9754,0.9564,0.952,0.9462,0.9378,0.9185,0.9101,0.9052,0.8677,0.8382,0.8067,0.7769,0.6916,0.6609,0.6754,0.6864,0.6739,0.7264,0.7918,0.7881,0.7687,0.7847,0.777,0.7441,0.6544,0.535,0.4767,0.4421,0.4404,0.4906,0.4962,0.5167,0.5445,0.574,0.5698,0.5696,0.5545,0.5441,0.5273,0.5285,0.5611,0.5813,0.6146,0.6591,0.7243,0.7858,0.83,0.84,0.8262,0.7901,0.7179,0.7273,0.7235,0.6924,0.6672,0.6584,0.632,0.5824,0.568,0.5537,1.0721,1.0721,1.0721,1.0721,1.0721,1.0721,1.0721,1.0721,1.0721,1.0721,1.0721,1.0721,1.0721,1.0721,1.0721,1.0721,1.0721,1.0721,1.0721,1.0721,1.0721,1.0721,1.0721,1.0721,1.0721,1.0721,1.0721,1.0721,1.0683,1.0565,1.0575,1.0643,1.0558,1.046,1.0432,1.0392,1.0368,1.0263,1.0327,1.0392,1.0388,1.0327,1.0215,1.0031,0.9984,0.996,0.9913,0.9906,1.0019,1.0134,1.0063,0.9953,0.9916,0.9863,0.9812,0.9774,0.9673,0.953,0.9452,0.9367,0.934,0.9265,0.914,0.9198,0.9046,0.8797,0.8598,0.9061,0.8509,0.8335,0.8433,0.8384,0.8729,0.8726,0.8714,0.8701,0.8944,0.8746,0.8527,0.8295,0.7109,0.692,0.6758,0.6786,0.6818,0.6818,0.6877,0.7054,0.7176,0.7134,0.7041,0.6871,0.6758,0.6647,0.6591,0.6927,0.7102,0.749,0.7826,0.8273,0.8491,0.8771,0.8826,0.8634,0.8391,0.8348,0.826,0.8159,0.8048,0.7896,0.7589,0.7012,0.6376,0.6357,0.6635,1.0721,1.0721,1.0721,1.0721,1.0721,1.0721,1.0721,1.0721,1.0721,1.0721,1.0721,1.0721,1.0721,1.0721,1.0721,1.0721,1.0721,1.0721,1.0721,1.0721,1.0721,1.0721,1.0721,1.0721,1.0721,1.0731,1.0721,1.0721,1.067,1.0599,1.0571,1.0677,1.0578,1.0487,1.0507,1.0497,1.0402,1.0351,1.0395,1.0439,1.0399,1.0371,1.0287,1.0007,0.9994,0.9953,0.9889,0.9924,0.9947,1.0025,0.9943,0.9899,0.9859,0.9795,0.9791,0.9693,0.9646,0.9578,0.952,0.9432,0.9354,0.9313,0.9293,0.9351,0.9411,0.9333,0.9153,0.9448,0.9347,0.9347,0.9488,0.9347,0.9383,0.9363,0.9212,0.9218,0.9312,0.9326,0.917,0.9051,0.8926,0.8552,0.8171,0.7865,0.7747,0.7773,0.7903,0.8207,0.8379,0.8442,0.837,0.8273,0.8159,0.81,0.8045,0.8156,0.8066,0.8291,0.8344,0.8677,0.8774,0.8881,0.8981,0.8912,0.8709,0.8794,0.9028,0.89,0.8533,0.8509,0.8551,0.8045,0.7598,0.7877,0.7909,1.0721,1.0721,1.0721,1.0721,1.0721,1.0721,1.0721,1.0721,1.0721,1.0721,1.0721,1.0721,1.0721,1.0721,1.0721,1.0721,1.0721,1.0721,1.0721,1.0721,1.0724,1.0744,1.0761,1.0761,1.0744,1.0772,1.0734,1.0724,1.0687,1.0633,1.0622,1.0714,1.0626,1.0568,1.0555,1.0555,1.0514,1.0453,1.0517,1.0514,1.0453,1.0463,1.0331,1.0192,1.0027,0.9974,0.9903,0.989,0.99,0.9992,0.9953,0.9899,0.9768,0.9802,0.9765,0.9741,0.9686,0.968,0.9622,0.9547,0.9459,0.9449,0.949,0.9557,0.9632,0.9663,0.9663,0.9659,0.9667,0.967,0.971,0.9697,0.967,0.9626,0.9599,0.9581,0.9523,0.9523,0.953,0.9426,0.9347,0.9339,0.8987,0.8606,0.8521,0.8632,0.8895,0.9276,0.9273,0.9266,0.9144,0.8927,0.8927,0.8815,0.8864,0.8953,0.8993,0.8969,0.8969,0.9045,0.9079,0.9093,0.9127,0.9083,0.8969,0.9096,0.9205,0.9106,0.9022,0.8911,0.8914,0.9094,0.9057,0.9258,0.9,1.0721,1.0721,1.0721,1.0721,1.0721,1.0721,1.0721,1.0721,1.0721,1.0721,1.0721,1.0721,1.0721,1.0721,1.0721,1.0721,1.0721,1.0721,1.0721,1.0721,1.0727,1.0785,1.0806,1.0789,1.0775,1.0786,1.0782,1.0721,1.0717,1.0697,1.0694,1.0711,1.0677,1.069,1.0683,1.066,1.066,1.0622,1.066,1.0656,1.0592,1.0538,1.0402,1.0293,1.0246,1.0195,0.9984,0.9957,1.0042,1.0148,1.0086,0.9957,0.9866,0.9903,0.9852,0.9808,0.9771,0.9768,0.9737,0.9669,0.9612,0.9629,0.968,0.9737,0.9764,0.9798,0.9805,0.9808,0.9852,0.9856,0.9825,0.9815,0.9836,0.9829,0.9802,0.9758,0.9717,0.972,0.9727,0.9747,0.9703,0.9618,0.9574,0.9192,0.9035,0.9081,0.913,0.9459,0.9401,0.9384,0.9364,0.9259,0.932,0.9266,0.9269,0.9296,0.9228,0.9215,0.9218,0.9256,0.93,0.9303,0.9252,0.9262,0.9232,0.9303,0.9351,0.9279,0.9225,0.9258,0.9289,0.9317,0.9361,0.9299,0.9123,1.0721,1.0721,1.0721,1.0721,1.0721,1.0721,1.0721,1.0721,1.0721,1.0721,1.0721,1.0721,1.0721,1.0721,1.0721,1.0721,1.0721,1.0721,1.0724,1.0721,1.0734,1.0758,1.0775,1.0778,1.0751,1.0732,1.0748,1.0721,1.0721,1.0721,1.0721,1.0721,1.0721,1.0717,1.0717,1.0721,1.0721,1.0721,1.0707,1.0683,1.0571,1.0531,1.0422,1.0297,1.0343,1.0256,1.0185,1.0031,1.0103,1.011,1.0014,0.9957,0.9899,0.9943,0.9903,0.9852,0.9832,0.9819,0.9819,0.9768,0.9744,0.9747,0.9788,0.9825,0.9846,0.9903,0.9889,0.9899,0.9899,0.9978,1.0086,1.0022,0.9906,0.9899,0.9944,0.9917,0.9886,0.988,0.9849,0.9836,0.9802,0.9747,0.972,0.963,0.9542,0.9485,0.9595,0.9622,0.9564,0.9527,0.952,0.9493,0.949,0.9452,0.9449,0.9422,0.9391,0.9405,0.9415,0.9432,0.9452,0.9381,0.9344,0.9378,0.9418,0.9449,0.9462,0.9459,0.9432,0.9398,0.9405,0.9445,0.9391,0.9361,0.9184,1.0694,1.066,1.07,1.0721,1.0721,1.0721,1.0721,1.0721,1.0721,1.0721,1.0721,1.0721,1.0721,1.0721,1.0721,1.0761,1.0785,1.0732,1.0795,1.0799,1.0802,1.0789,1.0772,1.0755,1.0755,1.0761,1.0731,1.0721,1.0721,1.0721,1.0721,1.0721,1.0721,1.0721,1.0721,1.0721,1.0721,1.0721,1.0707,1.068,1.0571,1.0565,1.0493,1.0378,1.0358,1.0314,1.0266,1.0181,1.0041,1.0021,0.998,0.9936,0.9893,0.9869,0.9941,0.99,0.9849,0.9829,0.9822,0.9819,0.9819,0.9805,0.9876,0.989,0.9924,1.0025,1.0114,1.0117,1.0124,1.0164,1.0283,1.0171,1.012,1.0117,1.0117,1.009,1.0022,0.9992,0.9883,0.9845,0.9802,0.9805,0.9791,0.9764,0.9734,0.9673,0.97,0.9727,0.971,0.969,0.9703,0.9673,0.9639,0.9588,0.9537,0.9561,0.9588,0.9598,0.9602,0.9574,0.9561,0.95,0.9503,0.9574,0.9598,0.9585,0.9598,0.9622,0.9612,0.9591,0.9581,0.9551,0.9523,0.9435,0.933,1.0636,1.0524,1.066,1.0717,1.0704,1.0721,1.0721,1.0721,1.0721,1.0721,1.0721,1.0721,1.0721,1.0724,1.0738,1.0812,1.0833,1.0863,1.0863,1.0914,1.0833,1.0857,1.0796,1.0802,1.0765,1.0867,1.0802,1.0721,1.0721,1.0721,1.0721,1.0721,1.0721,1.0721,1.0721,1.0721,1.0721,1.0721,1.0721,1.0704,1.069,1.068,1.0595,1.0524,1.049,1.0446,1.0378,1.0307,1.0229,1.0158,1.0103,1.0063,0.996,0.9944,0.9954,0.9947,0.9849,0.9859,0.9839,0.9832,0.9866,0.99,1.0002,1.0039,1.0076,1.0175,1.0276,1.027,1.0273,1.0283,1.0297,1.0287,1.028,1.0273,1.0273,1.0232,1.0161,1.0107,1.0063,1.0022,0.9852,0.9822,0.9819,0.9815,0.9812,0.9798,0.9812,0.9815,0.9812,0.9781,0.9852,0.9815,0.9774,0.9771,0.9737,0.9761,0.9781,0.9795,0.9768,0.9713,0.971,0.97,0.9724,0.9771,0.9747,0.9703,0.9747,0.9802,0.9747,0.9686,0.9652,0.9625,0.9608,0.9557,0.9442,1.0629,1.0507,1.0656,1.0663,1.0592,1.0677,1.0721,1.0721,1.0721,1.0721,1.0721,1.0721,1.0721,1.0741,1.0766,1.0907,1.0951,1.1067,1.1067,1.0884,1.088,1.087,1.0809,1.0768,1.0755,1.0772,1.0731,1.0721,1.0721,1.0734,1.0724,1.0721,1.0751,1.0721,1.0721,1.0721,1.0721,1.0721,1.0721,1.0717,1.0721,1.0717,1.0694,1.0633,1.0633,1.0595,1.0538,1.0466,1.0382,1.0304,1.0253,1.0164,1.0054,1.0042,1.0093,1.0114,1.0042,1.0131,1.0127,1.0134,1.0131,1.0148,1.0158,1.0202,1.0219,1.0337,1.0402,1.0422,1.0422,1.046,1.0548,1.0463,1.0432,1.0422,1.0402,1.0344,1.028,1.0239,1.0195,1.0158,1.0076,0.9937,0.9883,0.9917,0.992,0.9944,0.9961,0.9886,0.9863,0.9879,0.992,0.9876,0.9845,0.9866,0.9872,0.989,0.9836,0.9808,0.9805,0.9791,0.9805,0.9819,0.9815,0.9795,0.9808,0.9819,0.9819,0.9819,0.9802,0.9764,0.9727,0.9683,0.9646,0.9598,0.952,1.0629,1.0514,1.0656,1.0633,1.0527,1.0653,1.0721,1.0721,1.0721,1.0744,1.0795,1.0802,1.0836,1.0897,1.0968,1.1023,1.1033,1.1104,1.1084,1.0897,1.088,1.0793,1.0768,1.0721,1.0727,1.0721,1.0727,1.0734,1.0812,1.0806,1.0843,1.0877,1.0826,1.0819,1.0799,1.0768,1.0721,1.0721,1.0721,1.0721,1.0721,1.0717,1.0717,1.0711,1.0711,1.0704,1.0687,1.0629,1.0544,1.0487,1.0402,1.0304,1.0256,1.0222,1.0263,1.0246,1.0226,1.0307,1.0324,1.0341,1.0358,1.0432,1.0392,1.0358,1.0382,1.049,1.0548,1.0571,1.0565,1.0612,1.0663,1.0578,1.0571,1.0558,1.0538,1.048,1.0456,1.0415,1.0348,1.031,1.0226,1.0086,0.9988,1.0012,1.0046,1.008,1.011,1.0029,0.9961,1.0046,1.0048,1.0,0.998,1.0059,1.0022,0.9879,0.989,0.9829,0.9819,0.9819,0.9819,0.9819,0.9819,0.9819,0.9819,0.9819,0.9819,0.9815,0.9808,0.9805,0.9798,0.9747,0.969,0.9649,0.9608,1.0633,1.0524,1.0653,1.0633,1.0534,1.0656,1.0721,1.0721,1.0721,1.0802,1.0867,1.086,1.0985,1.1118,1.1151,1.1145,1.1207,1.1224,1.1067,1.0917,1.0884,1.0772,1.0761,1.0721,1.0721,1.0721,1.0734,1.0785,1.0853,1.0951,1.1019,1.1073,1.0995,1.0945,1.082,1.0756,1.0755,1.0734,1.0721,1.0721,1.0721,1.0721,1.0721,1.0721,1.0721,1.0721,1.0711,1.0687,1.0622,1.0561,1.05,1.049,1.0446,1.0361,1.0405,1.0419,1.0371,1.0422,1.0473,1.05,1.0548,1.0605,1.0558,1.0517,1.0531,1.0609,1.0649,1.0673,1.067,1.0687,1.07,1.0694,1.069,1.0687,1.0687,1.0663,1.0653,1.0602,1.0524,1.0449,1.0358,1.0256,1.0198,1.0198,1.0185,1.0249,1.0283,1.029,1.0232,1.0219,1.0253,1.0192,1.0181,1.0195,1.0134,1.0032,0.9914,0.9846,0.9825,0.9819,0.9819,0.9822,0.9819,0.9819,0.9819,0.9819,0.9819,0.9819,0.9819,0.9819,0.9819,0.9808,0.9747,0.9764,0.9747,1.0633,1.0514,1.0656,1.0633,1.0524,1.0656,1.0721,1.0721,1.0721,1.0806,1.088,1.088,1.1046,1.1227,1.1231,1.1234,1.1227,1.1145,1.1067,1.0992,1.0853,1.0769,1.0768,1.0721,1.0721,1.0721,1.0741,1.0799,1.0877,1.1029,1.1107,1.1134,1.1128,1.1056,1.0975,1.0836,1.0816,1.0744,1.0721,1.0721,1.0721,1.0721,1.0721,1.0721,1.0721,1.0721,1.0721,1.0721,1.0673,1.066,1.0649,1.0622,1.0487,1.0548,1.0636,1.0639,1.0616,1.0619,1.0646,1.0653,1.0673,1.0704,1.0666,1.067,1.067,1.0683,1.0721,1.0721,1.0721,1.0721,1.0721,1.0721,1.0721,1.0721,1.0721,1.0714,1.0704,1.0683,1.0612,1.0585,1.049,1.0419,1.0368,1.0327,1.0327,1.0405,1.0463,1.049,1.048,1.0456,1.0385,1.0324,1.0314,1.0327,1.0229,1.0127,0.9981,0.9866,0.9863,0.9852,0.9842,0.9842,0.9829,0.9819,0.9819,0.9819,0.9819,0.9819,0.9819,0.9819,0.9819,0.9819,0.9819,0.9819,0.9819,1.0565,1.0588,1.0612,1.0609,1.0602,1.068,1.0721,1.0721,1.0721,1.0833,1.1023,1.1036,1.1118,1.1246,1.1257,1.1199,1.107,1.1056,1.0985,1.087,1.0799,1.0729,1.0738,1.0721,1.0721,1.0721,1.0741,1.0799,1.089,1.1151,1.126,1.1263,1.1323,1.1158,1.1063,1.0965,1.0789,1.0772,1.0721,1.0721,1.0721,1.0721,1.0721,1.0721,1.0721,1.0721,1.0721,1.0721,1.0721,1.0721,1.0721,1.0687,1.0592,1.0673,1.0714,1.0707,1.07,1.069,1.0704,1.0707,1.0717,1.0721,1.0721,1.0714,1.0711,1.0714,1.0721,1.0721,1.0721,1.0721,1.0721,1.0721,1.0721,1.0721,1.0721,1.0721,1.0717,1.0717,1.0707,1.0697,1.0636,1.0558,1.0504,1.0463,1.0504,1.0639,1.0714,1.0727,1.0627,1.0636,1.0538,1.0439,1.0443,1.0453,1.0337,1.0236,1.0158,1.0046,0.9971,0.9954,0.991,0.9859,0.9839,0.9829,0.9819,0.9819,0.9819,0.9819,0.9819,0.9819,0.9819,0.9819,0.9819,0.9819,0.9819,1.0456,1.068,1.0565,1.0602,1.0707,1.0721,1.0721,1.0721,1.0721,1.0884,1.1114,1.1224,1.1229,1.1328,1.1321,1.1168,1.1029,1.0948,1.0877,1.0724,1.0751,1.0731,1.0731,1.0721,1.0721,1.0721,1.0744,1.0802,1.0985,1.1158,1.1297,1.1375,1.1341,1.1233,1.108,1.0924,1.0806,1.0748,1.0721,1.0721,1.0721,1.0721,1.0721,1.0721,1.0721,1.0721,1.0721,1.0721,1.0721,1.0721,1.0717,1.0714,1.0711,1.0707,1.0717,1.0721,1.0721,1.0721,1.0721,1.0721,1.0721,1.0721,1.0721,1.0721,1.0721,1.0721,1.0721,1.0721,1.0721,1.0721,1.0721,1.0721,1.0721,1.0721,1.0721,1.0721,1.0721,1.0721,1.0717,1.0711,1.0697,1.0629,1.0629,1.0592,1.0636,1.0833,1.0833,1.0836,1.083,1.0819,1.0714,1.0585,1.0565,1.0548,1.0422,1.0348,1.0351,1.0266,1.0144,1.0086,1.0066,0.9968,0.9849,0.9859,0.9873,0.9832,0.9819,0.9819,0.9819,0.9819,0.9819,0.9819,0.9819,0.9819,0.9819,1.048,1.0555,1.0633,1.069,1.0721,1.0721,1.0721,1.0721,1.0721,1.0884,1.1124,1.1241,1.124,1.1348,1.127,1.1114,1.0962,1.0839,1.0761,1.0731,1.0721,1.0721,1.0721,1.0721,1.0721,1.0721,1.0744,1.0795,1.0877,1.1111,1.1223,1.1289,1.1236,1.1189,1.1033,1.0884,1.0809,1.0731,1.0721,1.0721,1.0721,1.0721,1.0721,1.0721,1.0721,1.0721,1.0721,1.0721,1.0721,1.0721,1.0721,1.0717,1.0717,1.0721,1.0721,1.0721,1.0721,1.0721,1.0721,1.0721,1.0721,1.0721,1.0721,1.0721,1.0721,1.0721,1.0721,1.0721,1.0721,1.0721,1.0721,1.0721,1.0721,1.0721,1.0721,1.0721,1.0721,1.0721,1.0721,1.0721,1.0721,1.0727,1.0727,1.0768,1.0816,1.0799,1.085,1.0887,1.1012,1.0982,1.0904,1.0789,1.0694,1.0639,1.0517,1.046,1.0466,1.0399,1.0273,1.0239,1.0219,1.0107,0.9992,0.9889,0.9872,0.9883,0.9839,0.9819,0.9819,0.9819,0.9819,0.9819,0.9819,0.9819,0.9819,1.0375,1.0504,1.0653,1.0721,1.0721,1.0721,1.0721,1.0707,1.0649,1.0789,1.1056,1.1134,1.1209,1.1287,1.1196,1.1029,1.0873,1.0765,1.0734,1.0724,1.0721,1.0721,1.0721,1.0721,1.0721,1.0721,1.0721,1.0778,1.0813,1.1056,1.1158,1.1107,1.1131,1.1141,1.0911,1.0867,1.087,1.0727,1.0721,1.0721,1.0721,1.0721,1.0721,1.0721,1.0721,1.0721,1.0721,1.0721,1.0721,1.0721,1.0721,1.0721,1.0721,1.0721,1.0721,1.0721,1.0721,1.0721,1.0721,1.0721,1.0721,1.0721,1.0721,1.0721,1.0721,1.0721,1.0721,1.0721,1.0721,1.0721,1.0721,1.0721,1.0721,1.0721,1.0721,1.0721,1.0721,1.0721,1.0721,1.0721,1.0744,1.0792,1.0826,1.0928,1.0978,1.104,1.1067,1.1111,1.1151,1.1134,1.106,1.0985,1.089,1.0765,1.0639,1.0595,1.0588,1.0504,1.0402,1.0341,1.0293,1.0215,1.0137,1.008,0.9943,0.9914,0.9876,0.9866,0.9829,0.9819,0.9819,0.9819,0.9825,0.9842,0.9849,1.0263,1.0524,1.0663,1.0721,1.0721,1.0721,1.0721,1.07,1.0588,1.0687,1.088,1.108,1.1128,1.1134,1.1121,1.0931,1.0795,1.0741,1.0721,1.0721,1.0721,1.0721,1.0721,1.0721,1.0721,1.0721,1.0721,1.0724,1.0758,1.0928,1.1012,1.0992,1.1067,1.1168,1.0995,1.0904,1.0833,1.0748,1.0721,1.0721,1.0721,1.0721,1.0721,1.0721,1.0721,1.0721,1.0721,1.0721,1.0721,1.0721,1.0721,1.0721,1.0721,1.0721,1.0721,1.0721,1.0721,1.0721,1.0721,1.0721,1.0721,1.0721,1.0721,1.0721,1.0721,1.0721,1.0721,1.0724,1.0724,1.0721,1.0721,1.0721,1.0721,1.0721,1.0721,1.0741,1.0744,1.0748,1.0751,1.0758,1.0819,1.0873,1.0904,1.1012,1.1114,1.1182,1.1243,1.1307,1.1335,1.1274,1.1209,1.1151,1.108,1.0941,1.0789,1.0744,1.0734,1.0639,1.0544,1.0453,1.0378,1.0341,1.0276,1.0185,1.0103,1.0039,0.9968,0.9937,0.9897,0.9869,0.9822,0.9832,0.9903,0.9914,0.9907,1.0409,1.068,1.0711,1.0717,1.0717,1.0717,1.0721,1.0714,1.069,1.0785,1.0836,1.089,1.0989,1.0921,1.0921,1.0809,1.0755,1.0721,1.0721,1.0721,1.0721,1.0721,1.0721,1.0721,1.0721,1.0721,1.0721,1.0721,1.0748,1.0802,1.0816,1.0752,1.0822,1.087,1.0833,1.0785,1.0802,1.0765,1.0755,1.0748,1.0738,1.0734,1.0721,1.0721,1.0721,1.0721,1.0721,1.0721,1.0721,1.0721,1.0721,1.0721,1.0721,1.0721,1.0721,1.0721,1.0721,1.0721,1.0721,1.0721,1.0721,1.0721,1.0721,1.0721,1.0721,1.0721,1.0727,1.0744,1.0741,1.0721,1.0721,1.0721,1.0721,1.0727,1.0731,1.0795,1.0766,1.0779,1.0793,1.0914,1.0985,1.0934,1.0836,1.0972,1.1134,1.1189,1.1219,1.1284,1.1341,1.1338,1.1348,1.1311,1.126,1.1114,1.0962,1.0911,1.0877,1.0782,1.0687,1.0599,1.0534,1.0504,1.0432,1.0324,1.027,1.0219,1.0144,1.0046,1.0029,0.9995,0.9873,0.9849,0.9941,1.0015,1.0029]}]]